[[{"header":{"parameterUnit":"m.s-1","parameterCategory":1,"la1":30.6,"la2":29.2853,"lo1":-89.7004,"lo2":-87.6739,"dx":0.0162,"dy":0.0183,"nx":112,"ny":82,"refTime":"2022-12-13T18:00:00:Z","depth":0,"parameterNumber":2,"parameterNumberName":"U-component_of_WINDS"},"data":[0.0,0.0,0.0,0.0,0.0,0.0,0.0,0.0,0.0,0.0,0.0,0.0,0.0,0.0,0.0,0.0,0.0,0.0,0.0,0.0,0.0,0.0,0.0,0.0,0.0,0.0,0.0,0.0,0.0,0.0,0.0,0.0,0.0,0.0,0.0,0.0,0.0,0.0,0.0,0.0,0.0,0.0,0.0,0.0,0.0,0.0,0.0,0.0,0.0,0.0,0.0,0.0,0.0,0.0,0.0,0.0,0.0,0.0,0.0,0.0,0.0,0.0,0.0,0.0,0.0,0.0,0.0,0.0,0.0,0.0,0.0,0.0,0.0,0.0,0.0,0.0,0.0,0.0,0.0,0.0,0.0,0.0,0.0,0.0,0.0,0.0,0.0,0.0,0.0,0.0,2.6303,2.6208,2.6029,2.6199,2.6782,2.6944,2.7125,2.7303,0.0,0.0,0.0,0.0,0.0,0.0,0.0,0.0,0.0,0.0,0.0,0.0,0.0,0.0,0.0,0.0,0.0,0.0,0.0,0.0,0.0,0.0,0.0,0.0,0.0,0.0,0.0,0.0,0.0,0.0,0.0,0.0,0.0,0.0,0.0,0.0,0.0,0.0,0.0,0.0,0.0,0.0,0.0,0.0,0.0,0.0,0.0,0.0,0.0,0.0,0.0,0.0,0.0,0.0,0.0,0.0,0.0,0.0,0.0,0.0,0.0,0.0,0.0,0.0,0.0,0.0,0.0,0.0,0.0,0.0,0.0,0.0,0.0,0.0,0.0,0.0,0.0,0.0,0.0,0.0,0.0,0.0,0.0,0.0,0.0,0.0,0.0,0.0,0.0,0.0,0.0,0.0,0.0,0.0,0.0,0.0,0.0,0.0,0.0,0.0,0.0,0.0,0.0,0.0,2.8156,2.7469,2.7421,2.7429,2.7559,2.8109,2.8319,2.791,0.0,0.0,0.0,0.0,0.0,0.0,0.0,0.0,0.0,0.0,0.0,0.0,0.0,0.0,0.0,0.0,0.0,0.0,0.0,0.0,0.0,0.0,0.0,0.0,0.0,0.0,0.0,0.0,0.0,0.0,0.0,0.0,0.0,0.0,0.0,0.0,0.0,0.0,0.0,0.0,0.0,0.0,0.0,0.0,0.0,0.0,0.0,0.0,0.0,0.0,0.0,0.0,0.0,0.0,0.0,0.0,0.0,0.0,0.0,0.0,0.0,0.0,0.0,0.0,0.0,0.0,0.0,0.0,0.0,0.0,0.0,0.0,0.0,0.0,0.0,0.0,0.0,0.0,0.0,0.0,0.0,0.0,0.0,0.0,0.0,0.0,0.0,0.0,0.0,0.0,0.0,0.0,0.0,0.0,0.0,0.0,0.0,0.0,0.0,0.0,0.0,0.0,0.0,2.8662,2.866,2.8336,2.8304,2.8304,2.8304,2.8595,2.8748,2.8614,2.8372,0.0,0.0,0.0,0.0,0.0,0.0,0.0,0.0,0.0,0.0,0.0,0.0,0.0,0.0,0.0,0.0,0.0,0.0,0.0,0.0,0.0,0.0,0.0,0.0,0.0,0.0,0.0,0.0,0.0,0.0,0.0,0.0,0.0,0.0,0.0,0.0,0.0,0.0,0.0,0.0,0.0,0.0,0.0,0.0,0.0,0.0,0.0,0.0,0.0,0.0,0.0,0.0,0.0,0.0,0.0,0.0,0.0,0.0,0.0,0.0,0.0,0.0,0.0,0.0,0.0,0.0,0.0,0.0,0.0,0.0,0.0,0.0,0.0,0.0,0.0,0.0,0.0,0.0,0.0,0.0,0.0,0.0,0.0,0.0,0.0,0.0,0.0,0.0,0.0,0.0,0.0,0.0,0.0,0.0,0.0,0.0,0.0,0.0,0.0,0.0,0.0,0.0,2.948,2.9621,2.9621,2.9621,2.9556,2.9394,2.9361,2.935,2.9303,2.9303,0.0,0.0,0.0,0.0,0.0,0.0,0.0,0.0,0.0,0.0,0.0,0.0,0.0,0.0,0.0,0.0,0.0,0.0,0.0,0.0,0.0,0.0,0.0,0.0,0.0,0.0,0.0,0.0,0.0,0.0,0.0,0.0,0.0,0.0,0.0,0.0,0.0,0.0,0.0,0.0,0.0,0.0,0.0,0.0,0.0,0.0,0.0,0.0,0.0,0.0,0.0,0.0,0.0,0.0,0.0,0.0,0.0,0.0,0.0,0.0,0.0,0.0,0.0,0.0,0.0,0.0,0.0,0.0,0.0,0.0,0.0,0.0,0.0,0.0,0.0,0.0,0.0,0.0,0.0,0.0,0.0,0.0,0.0,0.0,0.0,0.0,0.0,0.0,0.0,0.0,0.0,0.0,0.0,0.0,0.0,0.0,0.0,0.0,0.0,0.0,0.0,0.0,3.1564,3.2001,3.2138,3.2171,3.1876,3.1188,3.1122,3.0773,3.0022,2.9913,0.0,0.0,0.0,0.0,0.0,0.0,0.0,0.0,0.0,0.0,0.0,0.0,0.0,0.0,0.0,0.0,0.0,0.0,0.0,0.0,0.0,0.0,0.0,0.0,0.0,0.0,0.0,0.0,0.0,0.0,0.0,0.0,0.0,0.0,0.0,0.0,0.0,0.0,0.0,0.0,0.0,0.0,0.0,0.0,0.0,0.0,0.0,0.0,0.0,0.0,0.0,0.0,0.0,0.0,0.0,0.0,0.0,0.0,0.0,0.0,0.0,0.0,0.0,0.0,0.0,0.0,0.0,0.0,0.0,0.0,0.0,0.0,0.0,0.0,0.0,0.0,0.0,0.0,0.0,0.0,0.0,0.0,0.0,0.0,0.0,0.0,0.0,0.0,0.0,0.0,0.0,0.0,0.0,0.0,0.0,0.0,0.0,0.0,0.0,0.0,0.0,0.0,3.2118,3.2882,3.3023,3.3023,3.2564,3.1385,3.1286,3.0947,3.0065,0.0,0.0,0.0,0.0,0.0,0.0,0.0,0.0,0.0,0.0,0.0,0.0,0.0,0.0,0.0,0.0,0.0,0.0,0.0,0.0,0.0,0.0,0.0,0.0,0.0,0.0,0.0,0.0,0.0,0.0,0.0,0.0,0.0,0.0,0.0,0.0,0.0,0.0,0.0,0.0,0.0,0.0,0.0,0.0,0.0,0.0,0.0,0.0,0.0,0.0,0.0,0.0,0.0,0.0,0.0,0.0,0.0,0.0,0.0,0.0,0.0,0.0,0.0,0.0,0.0,0.0,0.0,0.0,0.0,0.0,0.0,0.0,0.0,0.0,0.0,0.0,0.0,0.0,0.0,0.0,0.0,0.0,0.0,0.0,0.0,0.0,0.0,0.0,0.0,0.0,0.0,0.0,0.0,0.0,0.0,0.0,0.0,0.0,0.0,0.0,0.0,0.0,3.099,3.2635,3.3743,3.3839,3.3886,3.3393,3.2208,3.2109,3.1637,3.0555,0.0,0.0,0.0,0.0,0.0,0.0,0.0,0.0,0.0,0.0,0.0,0.0,0.0,0.0,0.0,0.0,0.0,0.0,0.0,0.0,0.0,0.0,0.0,0.0,0.0,0.0,0.0,0.0,0.0,0.0,0.0,0.0,0.0,0.0,0.0,0.0,0.0,0.0,0.0,0.0,0.0,0.0,0.0,0.0,0.0,0.0,0.0,0.0,0.0,0.0,0.0,0.0,0.0,0.0,0.0,0.0,0.0,0.0,0.0,0.0,0.0,0.0,0.0,0.0,0.0,0.0,0.0,0.0,0.0,0.0,0.0,0.0,0.0,0.0,0.0,0.0,0.0,0.0,0.0,0.0,0.0,0.0,0.0,0.0,0.0,0.0,0.0,0.0,0.0,0.0,0.0,0.0,0.0,0.0,0.0,0.0,0.0,0.0,0.0,0.0,0.0,0.0,3.1188,3.3294,3.4739,3.4883,3.4883,3.4584,3.3856,3.3789,3.3115,0.0,0.0,0.0,0.0,0.0,0.0,0.0,0.0,0.0,0.0,0.0,0.0,0.0,0.0,0.0,0.0,0.0,0.0,0.0,0.0,0.0,0.0,0.0,0.0,0.0,0.0,0.0,0.0,0.0,0.0,0.0,0.0,0.0,0.0,0.0,0.0,0.0,0.0,0.0,0.0,0.0,0.0,0.0,0.0,0.0,0.0,0.0,0.0,0.0,0.0,0.0,0.0,0.0,0.0,0.0,0.0,0.0,0.0,0.0,0.0,0.0,0.0,0.0,0.0,0.0,0.0,0.0,0.0,0.0,0.0,0.0,0.0,0.0,0.0,0.0,0.0,0.0,0.0,0.0,0.0,0.0,0.0,0.0,0.0,0.0,0.0,0.0,0.0,0.0,0.0,0.0,0.0,0.0,0.0,0.0,0.0,0.0,0.0,0.0,0.0,0.0,0.0,0.0,3.0766,3.3057,3.4835,3.5152,3.5011,3.4725,3.4353,3.4253,3.3412,3.1281,0.0,0.0,0.0,0.0,0.0,0.0,0.0,0.0,0.0,0.0,0.0,0.0,0.0,0.0,0.0,0.0,0.0,0.0,0.0,0.0,0.0,0.0,0.0,0.0,0.0,0.0,0.0,0.0,0.0,0.0,0.0,0.0,0.0,0.0,0.0,0.0,0.0,0.0,0.0,0.0,0.0,0.0,0.0,0.0,0.0,0.0,0.0,0.0,0.0,0.0,0.0,0.0,0.0,0.0,0.0,0.0,0.0,0.0,0.0,0.0,0.0,0.0,0.0,0.0,0.0,0.0,0.0,0.0,0.0,0.0,0.0,0.0,0.0,0.0,0.0,0.0,0.0,0.0,0.0,0.0,0.0,0.0,0.0,0.0,0.0,0.0,0.0,0.0,0.0,0.0,0.0,0.0,0.0,0.0,0.0,0.0,0.0,0.0,0.0,0.0,0.0,0.0,3.0683,3.3383,3.5374,3.5633,3.5498,3.5341,3.5206,3.5172,3.4559,3.3196,0.0,0.0,0.0,0.0,0.0,0.0,0.0,0.0,0.0,0.0,0.0,0.0,0.0,0.0,0.0,0.0,0.0,0.0,0.0,0.0,0.0,0.0,0.0,0.0,0.0,0.0,0.0,0.0,0.0,0.0,0.0,0.0,0.0,0.0,0.0,0.0,0.0,0.0,0.0,0.0,0.0,0.0,0.0,0.0,0.0,0.0,0.0,0.0,0.0,0.0,0.0,0.0,0.0,0.0,0.0,0.0,0.0,0.0,0.0,0.0,0.0,0.0,0.0,0.0,0.0,0.0,0.0,0.0,0.0,0.0,0.0,0.0,0.0,0.0,0.0,0.0,0.0,0.0,0.0,0.0,0.0,0.0,0.0,0.0,0.0,0.0,0.0,0.0,0.0,0.0,0.0,0.0,0.0,0.0,0.0,0.0,0.0,0.0,0.0,0.0,0.0,0.0,3.0931,3.4028,3.6215,3.6215,3.6215,3.6249,3.636,3.636,3.6367,3.6381,0.0,0.0,0.0,0.0,0.0,0.0,0.0,0.0,0.0,0.0,0.0,0.0,0.0,0.0,0.0,0.0,0.0,0.0,0.0,0.0,0.0,0.0,0.0,0.0,0.0,0.0,0.0,0.0,0.0,0.0,0.0,0.0,0.0,0.0,0.0,0.0,0.0,0.0,0.0,0.0,0.0,0.0,0.0,0.0,0.0,0.0,0.0,0.0,0.0,0.0,0.0,0.0,0.0,0.0,0.0,0.0,0.0,0.0,0.0,0.0,3.0399,0.0,0.0,0.0,0.0,0.0,0.0,0.0,0.0,0.0,0.0,0.0,0.0,0.0,0.0,0.0,0.0,0.0,0.0,0.0,0.0,0.0,0.0,0.0,0.0,0.0,0.0,0.0,0.0,0.0,0.0,0.0,0.0,0.0,0.0,0.0,0.0,0.0,0.0,0.0,0.0,0.0,3.1167,3.4151,3.6291,3.6492,3.6333,3.6582,3.758,3.7691,3.7486,3.697,3.652,0.0,0.0,0.0,0.0,0.0,0.0,0.0,0.0,0.0,0.0,0.0,0.0,0.0,0.0,0.0,0.0,0.0,0.0,0.0,0.0,0.0,0.0,0.0,0.0,0.0,0.0,0.0,0.0,0.0,0.0,0.0,0.0,0.0,0.0,0.0,0.0,0.0,0.0,0.0,0.0,0.0,0.0,0.0,0.0,0.0,0.0,0.0,0.0,0.0,0.0,0.0,0.0,0.0,0.0,0.0,0.0,0.0,0.0,0.0,0.0,3.1539,0.0,0.0,0.0,0.0,0.0,0.0,0.0,0.0,0.0,0.0,0.0,0.0,0.0,0.0,0.0,0.0,0.0,0.0,0.0,0.0,0.0,0.0,0.0,0.0,0.0,0.0,0.0,0.0,0.0,0.0,0.0,0.0,0.0,0.0,0.0,0.0,0.0,0.0,0.0,0.0,3.191,3.487,3.704,3.7615,3.7536,3.7857,3.8907,3.8943,3.8982,3.9022,3.7918,0.0,0.0,0.0,0.0,0.0,0.0,0.0,0.0,0.0,0.0,0.0,0.0,0.0,0.0,0.0,0.0,0.0,0.0,0.0,0.0,0.0,0.0,0.0,0.0,0.0,0.0,0.0,0.0,0.0,0.0,0.0,0.0,0.0,0.0,0.0,0.0,0.0,0.0,0.0,0.0,0.0,0.0,0.0,0.0,0.0,0.0,0.0,0.0,0.0,0.0,0.0,0.0,0.0,3.446,3.431,3.3881,3.4703,3.4816,3.4319,3.3094,3.3127,3.3988,3.3988,0.0,0.0,0.0,0.0,0.0,0.0,0.0,0.0,0.0,0.0,0.0,0.0,0.0,0.0,0.0,0.0,0.0,0.0,0.0,0.0,0.0,0.0,3.3428,3.2542,3.3815,3.4492,3.1812,0.0,0.0,0.0,0.0,0.0,0.0,0.0,0.0,0.0,0.0,0.0,3.311,3.5786,3.7969,3.8897,3.8897,3.9182,4.0039,4.011,4.0467,4.1252,3.912,3.8038,0.0,0.0,0.0,0.0,0.0,0.0,0.0,0.0,0.0,0.0,0.0,0.0,0.0,0.0,0.0,0.0,0.0,0.0,0.0,0.0,0.0,0.0,0.0,0.0,0.0,0.0,0.0,0.0,0.0,0.0,0.0,0.0,2.9386,3.0959,0.0,0.0,0.0,0.0,0.0,0.0,0.0,0.0,0.0,0.0,0.0,0.0,0.0,3.3909,3.2784,3.3313,3.3379,3.2949,3.3578,3.422,3.4783,3.5512,3.6141,3.6671,3.6473,0.0,3.475,3.475,0.0,0.0,0.0,0.0,0.0,0.0,0.0,0.0,0.0,0.0,0.0,0.0,0.0,0.0,0.0,0.0,0.0,0.0,0.0,0.0,0.0,0.0,3.76,3.6766,3.6835,3.6732,3.5659,3.3671,3.1957,3.1566,3.1482,3.1012,0.0,0.0,0.0,0.0,0.0,0.0,3.5241,3.6679,3.8148,3.9611,3.9182,3.9397,4.0824,4.0931,4.1288,4.2073,4.1372,4.0418,3.9306,3.7902,0.0,0.0,0.0,0.0,0.0,0.0,0.0,0.0,0.0,0.0,0.0,0.0,0.0,0.0,0.0,0.0,0.0,0.0,0.0,0.0,0.0,0.0,0.0,0.0,0.0,0.0,0.0,0.0,0.0,2.9597,3.0653,3.1835,3.1831,3.228,0.0,0.0,0.0,0.0,0.0,0.0,0.0,0.0,0.0,3.3604,3.4868,3.5214,3.4551,3.528,3.5479,3.5181,3.5512,3.581,3.6141,3.6473,3.6804,3.7102,3.7102,3.6738,3.6141,3.6141,3.6141,3.6141,0.0,0.0,0.0,0.0,3.5876,3.5545,3.5611,3.5379,3.4916,3.4187,0.0,0.0,0.0,0.0,0.0,0.0,0.0,3.4274,3.4321,3.5814,3.7249,3.7353,3.7654,3.7861,3.7516,3.658,3.526,3.3434,3.3236,3.2723,3.0763,3.1303,0.0,0.0,0.0,3.4777,3.6194,3.7458,3.8861,4.0431,4.0289,4.0538,4.168,4.1752,4.1895,4.2251,4.2086,4.164,4.1085,3.9434,3.8196,0.0,0.0,0.0,0.0,0.0,0.0,0.0,0.0,0.0,0.0,0.0,0.0,0.0,0.0,0.0,0.0,0.0,0.0,0.0,0.0,0.0,0.0,0.0,0.0,0.0,0.0,0.0,0.0,3.1013,3.1548,3.2463,3.2636,3.3149,0.0,0.0,0.0,0.0,0.0,0.0,3.3914,3.4394,3.4526,3.4211,3.5364,3.6009,3.6009,3.6539,3.6738,3.6539,3.6854,3.7103,3.727,3.7619,3.7836,3.8037,3.7886,3.7937,3.8003,3.7336,3.7102,3.7102,3.7102,3.7102,3.7135,3.7301,3.7036,3.6671,3.74,3.7301,3.6738,3.6174,3.5644,3.4982,3.3829,0.0,0.0,0.0,0.0,3.5842,3.5668,3.6827,3.8077,3.8251,3.8695,3.8938,3.8347,3.8434,3.7966,3.5723,3.5297,3.4703,3.2787,3.324,0.0,3.3025,3.4411,3.599,3.7404,3.8493,3.9682,4.1252,4.1217,4.1431,4.2216,4.2287,4.2287,4.2287,4.2287,4.2287,4.2287,4.0902,4.0235,4.0418,0.0,0.0,0.0,0.0,0.0,0.0,0.0,0.0,0.0,0.0,0.0,0.0,0.0,0.0,0.0,0.0,0.0,0.0,0.0,0.0,0.0,0.0,0.0,0.0,0.0,0.0,0.0,0.0,0.0,3.2597,3.3606,0.0,0.0,0.0,0.0,3.5752,3.4701,3.4375,3.5227,3.4944,3.5036,3.5876,3.5976,3.6009,3.6009,3.6042,3.5711,3.5015,3.6169,3.7077,3.7835,3.902,3.9962,4.0603,4.0084,4.0133,4.0418,3.8086,3.7102,3.7102,3.7102,3.7102,3.7201,3.7897,3.8129,3.8195,3.8924,3.9156,3.9123,3.9056,3.7632,3.5943,3.5843,3.5346,0.0,0.0,3.8072,4.0723,4.1401,4.2331,4.2739,4.1243,4.0922,4.0352,3.8146,3.8514,3.9175,3.9,3.8362,3.7591,3.6794,0.0,3.6439,3.5741,3.6935,3.836,3.9605,3.9786,4.0467,4.2073,4.1538,4.1431,4.2216,4.2287,4.2287,4.2287,4.2287,4.2287,4.2287,4.2216,4.1624,4.0503,4.0313,0.0,0.0,0.0,0.0,0.0,0.0,0.0,0.0,0.0,0.0,0.0,0.0,0.0,0.0,0.0,0.0,0.0,0.0,0.0,0.0,0.0,0.0,0.0,0.0,0.0,0.0,0.0,0.0,3.4218,3.4116,0.0,3.4619,3.478,3.4959,3.5198,3.5135,3.4992,3.4834,3.5271,3.5463,3.5313,3.695,3.7883,3.7883,3.8696,3.8942,3.867,3.9132,3.95,3.974,4.0203,4.0526,4.0802,4.0611,4.0611,4.072,3.9836,3.9486,3.9438,3.9093,3.9192,3.9521,3.9793,3.9895,3.9929,4.0201,4.0269,4.0372,4.0848,4.0523,3.9944,4.0436,4.0645,4.0595,4.0021,4.1152,4.245,4.189,4.1866,4.168,4.061,3.9968,3.9254,3.7862,3.832,3.9093,3.9554,3.9206,3.8585,3.7817,3.8298,3.8624,3.8139,3.8722,3.9597,4.0535,4.0681,4.1109,4.218,4.2037,4.1966,4.2251,4.2287,4.2287,4.2287,4.2787,4.3072,4.3072,4.3536,4.385,4.3934,4.3393,4.1674,0.0,0.0,0.0,0.0,0.0,0.0,0.0,0.0,0.0,0.0,0.0,0.0,0.0,0.0,0.0,0.0,0.0,0.0,0.0,0.0,0.0,0.0,0.0,0.0,0.0,3.4035,3.4312,3.5387,3.4915,3.4743,3.5503,3.5451,3.5496,3.5814,3.5732,3.5659,3.5736,3.6209,3.6471,3.6518,3.8269,3.9296,3.9535,4.0384,4.0802,4.0802,4.0943,4.1036,4.1036,4.122,4.1311,4.1311,4.1128,4.1128,4.1265,4.0943,4.099,4.122,4.0528,4.0514,4.0802,4.0802,4.0974,4.1216,4.1505,4.1609,4.1678,4.2196,4.2368,4.2437,4.297,4.3339,4.3476,4.2583,4.2987,4.3412,4.2581,4.2172,4.1716,4.0895,4.0538,4.0039,3.8683,3.9432,4.0289,3.9968,3.966,3.9428,3.9146,3.9522,3.9779,3.954,3.9949,4.0503,4.1038,4.1324,4.1716,4.2216,4.2287,4.2287,4.2287,4.2037,4.2109,4.268,4.2965,4.3322,4.3857,4.3607,4.3822,4.4607,4.4357,4.2881,4.0193,0.0,0.0,0.0,0.0,0.0,0.0,0.0,0.0,0.0,0.0,0.0,0.0,0.0,0.0,0.0,0.0,0.0,0.0,0.0,0.0,0.0,0.0,0.0,3.5993,3.4898,3.4634,3.6049,3.5924,3.6022,3.6794,3.6609,3.672,3.747,3.6461,3.6478,3.8028,3.7721,3.8156,3.964,3.9744,4.0089,4.0802,4.0849,4.0849,4.0849,4.1311,4.1534,4.1534,4.2044,4.2287,4.2287,4.1753,4.1831,4.2282,4.13,4.1436,4.2276,4.1255,4.0849,4.0849,4.0849,4.1332,4.2141,4.2881,4.3158,4.3158,4.3192,4.3192,4.3192,4.3227,4.3227,4.3227,4.3227,4.3602,4.3968,4.3968,4.3802,4.3358,4.2537,4.2929,4.2858,4.0431,4.1787,4.2787,4.0396,3.9968,4.0217,4.0967,4.0467,3.9968,3.9968,4.0646,0.0,4.1145,4.1823,4.2287,4.2251,4.2287,4.2287,4.2287,4.1609,4.1859,4.3429,4.2822,4.3072,4.4607,4.2501,4.1645,4.243,4.3144,4.3287,4.2908,0.0,0.0,0.0,0.0,0.0,0.0,0.0,0.0,0.0,0.0,0.0,0.0,0.0,0.0,0.0,0.0,0.0,0.0,0.0,0.0,0.0,3.431,3.4335,3.4993,3.5465,3.5862,3.6286,3.629,3.6256,3.6541,3.6435,3.647,3.672,3.7167,3.7602,3.8099,3.8729,3.9261,3.9675,4.0548,4.1066,4.1311,4.1666,4.1874,4.1874,4.2002,4.2086,4.2086,4.2246,4.2287,4.2287,4.2127,4.2483,4.3137,4.2888,4.3251,4.3772,4.2,4.1534,4.1874,4.1874,4.2369,4.3112,4.3289,4.3713,4.4243,4.489,4.5067,4.5174,4.574,4.5917,4.5917,4.5917,4.601,4.6138,4.6138,4.5659,4.4821,4.35,4.3358,4.2858,4.0431,4.1359,4.2251,4.1002,4.1252,4.1538,4.1145,4.0931,4.0967,4.1538,4.1823,4.1966,4.1966,4.2144,4.2073,4.1502,4.193,4.2287,4.2287,4.2644,4.3286,4.425,4.4642,4.5035,4.5463,4.5392,4.5463,4.5677,4.3953,4.3032,0.0,0.0,0.0,0.0,0.0,0.0,0.0,0.0,0.0,0.0,0.0,0.0,0.0,0.0,0.0,0.0,0.0,0.0,0.0,0.0,0.0,0.0,3.4618,3.4765,3.4871,3.5474,3.6149,3.6827,3.6613,3.6542,3.6863,3.6899,3.7041,3.7398,3.7993,3.8656,3.9292,3.9926,4.0429,4.078,4.1498,4.1874,4.1874,4.2127,4.2287,4.2287,4.2287,4.2465,4.2787,4.2787,4.2965,4.3251,4.3251,4.3536,4.3964,4.3964,4.4214,4.4492,0.0,0.0,0.0,0.0,4.4071,4.4535,4.4856,4.5249,4.5677,4.6141,4.6284,4.6391,4.6855,4.6998,4.6998,4.6998,4.6748,4.6498,4.6498,4.5891,4.4999,4.3786,4.4,4.3822,4.1431,4.2144,4.2929,4.1823,4.1966,0.0,4.168,4.1609,4.1752,4.2216,4.2287,4.2287,4.2287,4.2573,4.2608,4.218,4.2787,4.3251,4.3251,4.3429,0.0,0.0,0.0,4.5178,4.4856,4.5285,0.0,0.0,0.0,4.366,4.4617,4.2978,0.0,0.0,4.0732,3.9811,0.0,0.0,0.0,0.0,0.0,0.0,0.0,0.0,0.0,0.0,0.0,0.0,0.0,0.0,0.0,0.0,3.5155,3.6042,3.5435,3.5364,3.5864,3.7291,3.6899,3.6827,3.7505,3.7684,3.7969,3.8611,3.8933,3.9611,4.0895,4.1145,0.0,0.0,0.0,4.2323,4.243,4.243,4.2465,4.2537,4.2537,4.2929,4.3643,4.3643,4.4,4.4607,4.4607,4.4678,4.4749,4.4749,4.4821,4.4856,4.4678,4.4607,4.4714,4.5392,4.5713,4.5891,4.6605,0.0,0.0,4.6998,4.6998,4.6998,4.6998,4.6998,4.6998,4.6998,4.6498,4.5927,4.5927,4.5427,4.4678,4.3964,4.4892,4.5285,4.2929,4.3572,4.4143,4.2573,4.2358,4.243,4.243,4.2358,4.2323,4.2394,4.243,4.2501,4.2644,4.3322,4.3786,4.3786,4.4428,0.0,4.4892,4.4357,4.4642,4.6105,4.5534,4.4821,4.4071,4.4036,4.4,4.3893,4.3893,4.4928,4.6998,4.6998,4.6998,4.689,4.2,4.0687,0.0,0.0,0.0,0.0,0.0,0.0,0.0,0.0,0.0,0.0,0.0,0.0,0.0,0.0,0.0,3.5428,3.5368,3.5614,3.6114,3.6185,3.6292,3.6577,3.7077,3.7434,3.7577,3.8183,3.8362,3.7862,3.9575,4.0503,4.0146,4.1359,4.2144,4.2287,4.2287,4.2608,4.3251,4.3286,4.3572,4.4178,0.0,0.0,4.4392,4.4392,4.45,4.4607,4.4607,4.4963,4.557,4.557,4.5963,4.6391,4.5106,4.4607,4.4642,4.4785,4.5249,4.582,4.5963,4.6462,4.6998,4.6998,4.6998,4.6998,4.6998,4.6998,0.0,4.6998,4.689,4.6748,4.6748,4.6641,4.632,4.5534,4.607,4.6105,4.3786,4.4,4.4143,4.2573,4.2822,4.3286,4.3286,4.2715,4.2501,4.3179,4.3286,4.3714,4.4963,4.5249,4.5356,4.5356,4.607,4.6534,4.6534,4.6998,4.7676,4.8568,4.8496,4.8068,4.7319,4.7283,4.6962,4.632,4.632,4.6534,4.6998,4.6998,4.6998,4.6962,4.5899,4.5275,0.0,0.0,0.0,0.0,0.0,0.0,0.0,0.0,0.0,0.0,0.0,3.6827,3.6183,0.0,3.6648,3.5615,3.5972,3.6399,3.6399,3.6756,3.7006,3.7006,3.7362,3.7577,3.7577,3.8326,3.879,3.8754,4.0217,4.1109,4.1109,4.2251,4.2894,4.2894,4.3251,4.3643,4.4071,4.4071,4.425,4.4607,4.4607,4.4821,4.5213,4.5213,4.5427,4.582,4.582,4.6034,4.6391,4.6391,4.6641,4.6926,4.6105,4.582,4.582,4.582,4.607,4.6391,4.6391,4.6641,4.6998,4.6998,4.6998,4.6998,4.6998,4.6998,4.6998,4.6998,4.6998,4.6998,4.6998,4.6998,4.689,4.6498,4.6712,4.6569,4.4999,4.4963,4.4856,4.3679,4.3786,4.4178,4.4571,4.4321,4.4178,4.4607,4.4642,4.5071,4.6248,4.6748,4.6998,4.6998,4.7676,4.8139,4.8139,4.8532,4.8746,4.8746,4.8746,4.8568,4.8211,4.8175,4.8175,4.8139,4.7783,4.7568,4.7568,4.7176,4.6998,4.6998,4.6998,4.6783,0.0,0.0,0.0,0.0,0.0,0.0,0.0,3.7755,3.8112,3.7291,3.7255,3.7148,3.6506,3.7041,3.7184,3.5899,3.6756,3.7362,3.672,3.7184,3.7577,3.7577,3.7577,3.7648,3.7826,3.854,3.9254,3.986,4.0931,4.1787,4.2251,4.3215,4.3714,4.3714,4.4321,4.4678,4.4856,4.4856,4.4928,4.5071,4.5071,4.5427,4.6034,4.6034,4.6391,4.6998,4.6998,4.7069,4.7212,4.7212,4.7319,4.7426,4.7283,4.7319,4.739,4.7105,4.6998,4.6998,4.6998,4.6998,4.6998,4.6998,4.6998,4.6998,4.6998,4.6998,4.7033,4.7176,4.7105,4.7033,4.7176,4.7105,4.7033,4.7176,4.7105,4.6819,4.6177,4.5927,4.557,4.4785,4.4749,4.5035,4.5677,4.6079,4.6338,4.6284,4.6248,4.6605,4.7568,4.8247,4.8675,4.8853,4.9424,4.971,4.9567,4.9531,4.921,4.8461,4.8532,4.8568,4.8389,4.8532,4.8853,4.9317,4.871,4.8389,4.8389,4.7747,4.7354,4.7212,4.7212,4.714,3.8148,3.8076,3.7184,3.6542,3.7077,3.7327,0.0,3.6078,3.6435,3.565,3.6042,3.6506,3.6435,3.7041,3.7541,3.7362,3.747,3.7541,3.747,3.7541,3.7577,3.7577,3.7577,3.7862,3.8611,3.9361,3.9825,3.9896,4.1966,4.2965,4.2323,4.3679,4.45,4.45,4.4571,4.4963,4.5677,4.5677,4.6034,4.6712,4.6712,4.6783,4.6855,4.6855,4.689,4.6998,4.6998,4.739,4.8032,4.8032,4.8425,4.8996,4.8318,4.8461,4.8889,4.7497,4.6998,4.6998,4.6998,4.6998,4.6998,4.6998,4.6998,4.6998,4.6998,4.6998,4.714,4.7854,4.7533,4.714,4.7854,4.7533,4.7176,4.789,4.7497,4.6962,4.689,4.6284,4.557,4.4785,4.5178,4.5713,4.5784,4.7232,4.8299,4.8018,4.7925,4.8461,4.9924,5.0209,5.053,5.1208,5.1387,5.1137,5.0423,5.0388,5.0031,4.9246,4.9852,4.9924,4.921,4.9852,4.9959,4.9317,4.9246,4.921,4.921,4.9103,4.871,4.8032,4.8032,4.7676,3.7148,3.7826,3.8005,3.672,3.7362,3.8005,3.6863,3.722,3.7577,3.6756,3.6863,3.7077,3.7077,3.7362,3.7577,3.7577,3.7577,3.7577,3.7577,3.7577,3.7577,3.7577,3.8151,3.8618,3.8754,3.9896,4.0788,4.1252,4.3072,4.4,4.3679,4.4714,4.532,4.532,4.5749,4.6177,4.6498,4.6498,4.6676,4.6998,4.6998,4.7247,4.7676,4.7676,4.7925,4.8354,4.8354,4.8532,4.8853,4.8853,4.9032,4.9281,4.896,4.9032,4.9174,4.8068,4.7961,4.8354,4.8354,4.8354,4.8282,4.7818,4.7676,4.7604,4.714,4.6998,4.7176,4.7961,4.7925,4.7854,4.8639,4.8247,4.7997,4.9246,4.8247,4.7247,4.8139,4.7537,4.6701,4.6342,4.6729,4.7217,4.7651,4.8394,4.9053,4.9386,4.9458,4.9992,5.1347,5.0688,5.0257,5.0581,5.12,5.1437,5.1112,5.1369,5.1155,5.0401,5.0462,5.0352,5.0031,5.0316,5.0566,5.0709,5.0245,4.9995,4.9995,4.9531,4.9139,4.8853,4.8853,4.8925,3.7541,3.8219,3.8719,3.7113,3.7612,3.8326,3.7719,3.8041,3.829,3.7719,3.7577,3.7577,3.7577,3.7577,3.7577,3.7577,3.7577,3.7577,3.7577,3.7864,3.8044,3.8044,3.9012,3.9625,3.9697,4.0805,4.1904,4.2858,4.4178,4.4928,4.4928,4.5713,4.6141,4.6141,4.6676,4.7105,4.7319,4.7319,4.7426,4.764,4.764,4.7925,4.8496,4.8496,4.8782,4.9317,4.9317,4.946,4.9638,4.9638,4.9781,4.9959,4.9745,4.9781,4.9888,4.9103,4.9032,4.9317,4.9317,4.9317,4.921,4.8675,4.8496,4.8389,4.7818,4.764,4.7783,4.8603,4.8675,4.8675,4.9424,4.9067,4.8829,5.0032,4.8851,4.7859,4.9277,4.8568,4.7693,4.791,4.7975,4.8174,4.8721,4.9094,4.9464,5.0044,5.024,5.067,5.1538,5.0841,5.0299,5.0299,5.1246,5.1741,5.1566,5.1765,5.1571,5.0823,5.0629,5.0495,5.0495,5.0709,5.1101,5.1672,5.1137,5.0816,5.0816,5.0245,4.9852,4.9638,4.9888,5.0174,4.0431,3.986,3.9504,3.7933,3.7577,3.7612,3.7577,3.7612,3.7612,3.7577,3.7577,3.7577,3.7577,3.7577,3.7577,3.7577,3.7577,3.7577,3.7577,3.851,3.9156,3.9156,4.0088,4.1061,4.1829,4.2376,4.3185,4.4428,4.532,4.5749,4.5749,4.6534,4.6962,4.6962,4.6962,4.7354,4.8139,4.8139,4.8496,4.9246,4.9246,4.9246,4.9281,4.9281,4.9281,4.9317,4.9317,4.9745,5.0459,5.0459,5.0923,5.153,5.078,5.0923,5.153,5.0744,4.9959,4.9317,4.9317,4.9317,4.9317,4.9281,4.9281,4.9281,4.9246,4.9246,4.9424,5.0209,4.9888,4.946,5.0281,4.9888,4.9377,4.9703,4.9217,4.8988,5.0132,4.9122,4.8211,4.8976,4.8502,4.7992,4.8028,4.8964,4.9709,4.9709,4.9936,5.0157,5.0326,5.0969,5.1449,5.1449,5.2215,5.2441,5.1682,5.1294,5.0823,5.0028,5.0307,5.0495,5.0495,5.1244,5.1672,5.1708,5.1672,5.1637,5.1637,5.1637,5.1244,5.0495,5.1244,5.1208,4.0146,3.9147,3.8255,3.7719,3.7577,3.7577,3.7577,3.7577,3.7577,3.7577,3.8397,3.9147,3.9147,3.9147,3.9147,3.9147,3.8868,3.8654,3.8654,3.9586,4.0266,4.0266,4.1232,4.2326,4.347,4.3724,4.4229,4.52,4.6504,4.7265,4.7265,4.7518,4.788,4.8466,4.8466,4.8735,4.9343,4.9343,4.9349,4.9317,4.9852,5.0102,5.0138,5.0637,5.0999,5.1239,5.0986,5.1178,5.1634,5.1379,5.1458,5.1672,5.1387,5.1458,5.1672,5.1387,5.1137,5.0887,5.0887,5.0887,5.0816,5.0281,5.0102,4.9995,4.9495,4.9317,4.9401,4.9887,5.0268,5.0602,5.1049,5.0995,5.0859,5.0911,4.9973,4.9107,4.9445,4.9322,4.9224,4.9481,4.9932,5.0231,5.0231,5.0564,5.0824,5.0824,5.1599,5.1667,5.0105,5.2013,5.3078,5.2013,5.3322,5.4146,5.3887,5.4038,5.4049,5.3792,5.3654,5.336,5.2852,5.287,5.2654,5.203,5.1822,5.1708,5.1708,5.1708,5.1565,5.1315,5.2101,5.26,4.0003,3.9182,3.8362,3.8076,3.8005,3.7933,3.7648,3.7577,3.7577,3.7577,3.8611,3.9611,3.986,4.0009,4.0226,4.0681,4.0454,4.0165,4.0059,4.1065,4.1705,4.1412,4.2599,4.366,4.4193,4.4818,4.548,4.6387,4.7408,4.7992,4.7992,4.8247,4.8689,4.92,4.9492,4.9913,5.0496,5.0496,5.0507,5.0556,5.1106,5.1358,5.1358,5.1898,5.2209,5.2408,5.2209,5.2257,5.2408,5.2209,5.2114,5.2114,5.2114,5.2114,5.2114,5.2114,5.2114,5.2066,5.1772,5.1708,5.1651,5.1213,5.1083,5.106,5.0664,5.0566,5.0613,5.0841,5.1031,5.133,5.1843,5.1784,5.1609,5.1694,5.1188,5.0611,5.0398,5.0558,5.0711,5.0711,5.1121,5.1416,5.1416,5.1416,5.1416,5.1416,5.2564,5.2816,5.0969,5.2779,5.3961,5.3225,5.4531,5.5466,5.5466,5.5628,5.5675,5.5675,5.5367,5.4967,5.4456,5.4085,5.364,5.3051,5.2695,5.2529,5.2529,5.2529,5.2529,5.2529,5.335,5.3992,4.011,3.9896,3.9753,3.904,3.8826,3.8611,3.7826,3.7612,3.7612,3.7648,3.8326,3.9147,3.9896,4.0306,4.0923,4.2119,4.2157,4.1938,4.1686,4.2772,4.3369,4.2631,4.4156,4.4952,4.4209,4.5584,4.694,4.7929,4.7995,4.8068,4.8181,4.8912,4.935,4.9387,5.0117,5.0884,5.1682,5.1682,5.2003,5.2806,5.2806,5.2806,5.2806,5.2806,5.2806,5.2806,5.2806,5.2806,5.2806,5.2806,5.2842,5.2878,5.2878,5.2878,5.2915,5.2915,5.2915,5.2826,5.2125,5.1794,5.1822,5.2126,5.2232,5.2278,5.2717,5.2806,5.2806,5.2769,5.2186,5.1784,5.2631,5.2266,5.1688,5.2095,5.2729,5.3105,5.2641,5.2568,5.2605,5.2605,5.2011,5.1528,5.1528,5.1528,5.1528,5.1528,5.2828,5.3497,5.2717,5.3385,5.424,5.4983,5.5837,5.6395,5.6432,5.6071,5.5865,5.5865,5.5558,5.5386,5.535,5.493,5.4688,5.4652,5.4251,5.4028,5.4028,5.4028,5.4028,5.4099,5.4884,5.5277,3.9968,3.9896,3.986,3.9682,3.9218,3.8754,3.854,3.8041,3.7755,3.8362,3.9575,4.0753,4.1538,4.1923,4.2222,4.2541,4.2413,4.2246,4.2216,4.318,4.404,4.4485,4.4438,4.4729,4.5769,4.6252,4.6854,4.7716,4.8345,4.9233,5.0454,5.0712,5.1119,5.1711,5.1933,5.2296,5.2863,5.2608,5.2587,5.2806,5.2806,5.2806,5.2806,5.2806,5.2937,5.3151,5.2893,5.2937,5.3151,5.2893,5.3134,5.3689,5.3689,5.4054,5.4602,5.4602,5.4602,5.4556,5.4335,5.3525,5.2536,5.2627,5.2672,5.2672,5.2761,5.2806,5.274,5.2375,5.2569,5.2941,5.3407,5.3376,5.3228,5.3343,5.3085,5.2566,5.1862,5.2197,5.2605,5.2605,5.294,5.32,5.32,5.32,5.32,5.32,5.3534,5.3497,5.2717,5.4388,5.5726,5.5949,5.6692,5.7435,5.8029,5.7983,5.7942,5.7942,5.7857,5.7518,5.6927,5.6588,5.6071,5.5412,5.4762,5.4453,5.4453,5.4184,5.4313,5.492,5.574,5.6418,3.9896,3.9896,3.9896,3.9896,3.9361,3.8897,3.9218,3.8933,3.8863,3.9837,4.1153,4.2221,4.2454,4.2982,4.3498,4.3704,4.3722,4.3615,4.3483,4.4383,4.5026,4.4766,4.5249,4.5844,4.6438,4.7144,4.8036,4.9224,4.941,4.9856,5.0785,5.1528,5.2122,5.2605,5.294,5.3272,5.3521,5.3359,5.3235,5.3235,5.3235,5.3235,5.3235,5.3235,5.3543,5.4038,5.3834,5.4096,5.4593,5.4386,5.4601,5.5006,5.5006,5.5264,5.5668,5.5668,5.5668,5.5668,5.5668,5.508,5.4301,5.4136,5.4049,5.4092,5.4301,5.4344,5.4312,5.4035,5.4001,5.4189,5.4758,5.4611,5.4426,5.4797,5.4537,5.4017,5.3162,5.3348,5.3571,5.32,5.3497,5.3794,5.3794,5.3794,5.3794,5.3794,5.3794,5.3645,5.32,5.4983,5.6432,5.6803,5.7546,5.8215,5.8661,5.8698,5.8698,5.8698,5.8698,5.8512,5.8066,5.7654,5.7258,5.6742,5.6197,5.6128,5.6454,5.6205,5.65,5.7293,5.7762,5.8195,3.9828,3.9896,4.0039,3.9932,3.9361,3.904,3.9899,4.0045,4.0336,4.172,4.2753,4.3386,4.3126,4.3795,4.4563,4.5128,4.5368,4.5338,4.5065,4.579,4.5918,4.4804,4.6364,4.7404,4.6995,4.8259,4.967,5.1119,5.0785,5.0525,5.0599,5.1974,5.2754,5.2754,5.346,5.3794,5.3794,5.3794,5.3794,5.3794,5.3794,5.3794,5.3794,5.3905,5.4351,5.502,5.5131,5.5614,5.632,5.632,5.6357,5.6469,5.6469,5.6506,5.6617,5.6617,5.6617,5.6617,5.6617,5.6617,5.654,5.5955,5.5797,5.5839,5.6203,5.632,5.632,5.632,5.5763,5.5391,5.6246,5.5837,5.5354,5.6134,5.6209,5.5874,5.502,5.4834,5.4648,5.3943,5.3794,5.3794,5.3794,5.3794,5.3794,5.3794,5.3794,5.3831,5.3943,5.5243,5.6432,5.7249,5.8066,5.8586,5.8698,5.8698,5.8698,5.8698,5.8698,5.8698,5.8698,5.8363,5.8223,5.8334,5.8014,5.8227,5.903,5.8981,5.9383,6.0186,6.0186,6.0222,3.9481,4.0088,4.0753,4.0075,3.9361,3.9258,4.0921,4.078,4.0998,4.3397,4.3542,4.3614,4.4891,4.4894,4.4963,4.5736,4.6091,4.629,4.6224,4.5811,4.6141,4.785,4.7256,4.7441,4.9299,4.9745,5.0005,5.0302,5.1491,5.2457,5.3125,5.3423,5.3608,5.3608,5.372,5.3794,5.3794,5.3794,5.3794,5.3794,5.3794,5.3794,5.3831,5.45,5.4871,5.5057,5.5763,5.6172,5.632,5.632,5.6692,5.7286,5.7286,5.7695,5.8289,5.8289,5.8289,5.8289,5.8289,5.8289,5.8066,5.6648,5.6203,5.6203,5.6283,5.632,5.632,5.632,5.6209,5.6246,5.71,5.6692,5.6097,5.6246,5.5763,5.502,5.4203,5.4017,5.398,5.3831,5.3794,5.3794,5.3794,5.3794,5.3794,5.3794,5.3794,5.4054,5.4723,5.5057,5.554,5.6432,5.7249,5.7992,5.8661,5.8698,5.8698,5.8698,5.8698,5.8698,5.8698,5.8614,5.8911,5.9579,5.9264,5.9485,6.0257,5.9969,6.0222,6.0989,6.0989,6.1354,4.0127,4.0782,4.1467,4.107,4.0384,4.042,4.2558,4.274,4.3105,4.5407,4.5772,4.5697,4.5773,4.5956,4.6027,4.6026,4.6271,4.6513,4.6513,4.6513,4.6995,4.8147,4.8333,4.9002,5.0636,5.1156,5.1565,5.2011,5.2791,5.32,5.32,5.3571,5.3794,5.3794,5.3794,5.3794,5.3794,5.3794,5.3794,5.3794,5.3794,5.4017,5.4463,5.4834,5.5503,5.632,5.6729,5.7175,5.7546,5.7546,5.7769,5.8141,5.8141,5.8364,5.8698,5.8698,5.8698,5.8698,5.8698,5.8698,5.8586,5.7806,5.7546,5.7546,5.7546,5.7546,5.7546,5.7546,5.7546,5.7658,5.8029,5.7843,5.7435,5.7026,5.5949,5.4797,5.398,5.3794,5.3794,5.3794,5.3794,5.3794,5.3794,5.3794,5.3794,5.3794,5.4166,5.4574,5.4946,5.5763,5.6469,5.6878,5.7658,5.8289,5.8661,5.8698,5.8698,5.8698,5.8698,5.8884,5.9329,5.9329,5.9738,6.0555,6.0418,6.07,6.1513,6.1338,6.165,6.2461,6.2461,6.2682,4.0873,4.1423,4.1937,4.1791,4.1243,4.146,4.3944,4.4492,4.5077,4.7168,4.7756,4.7644,4.6799,4.6871,4.6946,4.665,4.6823,4.6995,4.6995,4.7701,4.8296,4.8481,4.9596,5.0785,5.1825,5.2494,5.3125,5.3757,5.3794,5.3534,5.2902,5.346,5.3794,5.3794,5.3794,5.3794,5.3794,5.3794,5.3794,5.3794,5.398,5.4388,5.502,5.5391,5.6246,5.7509,5.7695,5.8141,5.8698,5.8698,5.8698,5.8698,5.8698,5.8698,5.8698,5.8698,5.8698,5.8698,5.8698,5.8698,5.8698,5.8698,5.8698,5.8698,5.8698,5.8698,5.8698,5.8698,5.8698,5.8698,5.8698,5.8698,5.8475,5.7472,5.5949,5.4574,5.3943,5.3794,5.3794,5.3794,5.3794,5.3794,5.3794,5.3943,5.4054,5.4054,5.476,5.5354,5.5503,5.6692,5.7583,5.7732,5.8326,5.8698,5.8698,5.8698,5.8698,5.8698,5.8884,5.9255,5.9887,6.011,6.0593,6.1447,6.1484,6.1856,6.2673,6.2673,6.297,6.3602,6.3602,6.3602,4.1167,4.1559,4.1827,4.1061,4.0876,4.1528,4.4226,4.4847,4.5616,4.8192,4.819,4.7893,4.8521,4.7519,4.7036,4.841,4.8633,4.8667,4.8667,4.9373,5.019,5.0971,5.1193,5.1899,5.3423,5.3645,5.372,5.3794,5.3794,5.3794,5.3683,5.3757,5.3794,5.3794,5.3794,5.3794,5.3794,5.3794,5.3794,5.3831,5.4537,5.4946,5.5057,5.658,5.736,5.7546,5.8289,5.8624,5.8698,5.8698,5.8698,5.8698,5.8698,5.8698,5.8698,5.8698,5.8698,5.8698,5.8698,5.8698,5.8698,5.8698,5.8698,5.8698,5.8698,5.8698,5.8698,5.8698,5.8698,5.8698,5.8698,5.8698,5.8326,5.6766,5.5131,5.3905,5.3831,5.3794,5.3794,5.3794,5.3794,5.3794,5.3794,5.4426,5.4909,5.4909,5.5652,5.6432,5.7175,5.7398,5.7769,5.8512,5.8661,5.8698,5.8698,5.8698,5.8698,5.8698,5.9404,5.9812,5.9924,6.0667,6.1484,6.2264,6.2301,6.271,6.349,6.349,6.3527,6.3602,6.3602,6.3602,4.2156,4.2654,4.3107,4.2811,4.3139,4.3915,4.5493,4.6231,4.7043,4.8558,4.8259,4.7961,4.8742,4.7999,4.759,4.8704,4.889,4.9076,4.9559,4.9893,5.0599,5.1974,5.2122,5.2568,5.3683,5.3794,5.3794,5.3794,5.3348,5.3088,5.3088,5.3088,5.3311,5.3794,5.3348,5.3311,5.3794,5.3794,5.4054,5.4537,5.4871,5.554,5.6543,5.7212,5.7769,5.8252,5.8549,5.8698,5.8698,5.8698,5.8698,5.8698,5.8698,5.8698,5.8698,5.8698,5.8698,5.8698,5.8698,5.8698,5.8698,5.8698,5.8698,5.8698,5.8698,5.8698,5.8698,5.8698,5.8698,5.8698,5.8698,5.7992,5.71,5.6469,5.502,5.3794,5.3794,5.3794,5.3943,5.4426,5.4537,5.4686,5.5206,5.5577,5.58,5.58,5.6506,5.7138,5.7472,5.7918,5.8364,5.8661,5.8698,5.8698,5.8698,5.8698,5.8698,5.8698,5.8995,5.9627,6.063,6.1038,6.1819,6.3119,6.3119,6.3305,6.3602,6.3602,6.3602,6.3602,6.3602,6.3602,4.3095,4.3578,4.3986,4.3986,4.4655,4.5509,4.6327,4.7107,4.7924,4.8742,4.8444,4.8221,4.8816,4.8259,4.7961,4.8779,4.9113,4.9447,5.0042,5.0748,5.1565,5.2494,5.2828,5.32,5.387,5.4017,5.4054,5.3981,5.3422,5.3051,5.294,5.294,5.3125,5.3423,5.3125,5.3237,5.3794,5.4314,5.4834,5.5391,5.6134,5.7063,5.8215,5.8475,5.8772,5.9069,5.9069,5.9069,5.9069,5.9069,5.9069,5.9069,5.9069,5.8921,5.8698,5.8698,5.8698,5.8698,5.8698,5.8698,5.8698,5.8698,5.8698,5.8698,5.8698,5.8698,5.8698,5.8698,5.8698,5.8661,5.8401,5.7323,5.6246,5.5986,5.4834,5.3794,5.3794,5.3794,5.4054,5.4834,5.502,5.528,5.6134,5.6506,5.6655,5.6655,5.736,5.7843,5.7843,5.8364,5.8698,5.8698,5.8698,5.8698,5.8698,5.8698,5.8698,5.8698,5.9181,5.9961,6.115,6.167,6.245,6.3602,6.3602,6.3602,6.3602,6.3602,6.3602,6.3602,6.3602,6.3602,4.3763,4.3986,4.3986,4.3986,4.4655,4.5509,4.6327,4.7107,4.7924,4.8742,4.889,4.889,4.889,4.8259,4.7961,4.8779,4.9559,5.0079,5.0116,5.2234,5.346,5.2679,5.3311,5.3907,5.4262,5.4591,5.4654,5.4296,5.4296,5.4123,5.3794,5.3794,5.3423,5.2642,5.3385,5.3794,5.3794,5.5466,5.6283,5.632,5.8735,5.9887,5.9924,6.0778,6.0704,5.9887,5.9887,5.9887,5.9887,5.9887,5.9887,5.9887,5.9887,5.9404,5.8698,5.8698,5.8698,5.8698,5.8698,5.8698,5.8698,5.8698,5.8698,5.8698,5.8698,5.8698,5.8698,5.8698,5.8698,5.8512,5.7732,5.6915,5.6097,5.5243,5.4388,5.3794,5.3794,5.3794,5.4054,5.4834,5.502,5.528,5.6134,5.6952,5.7509,5.7509,5.8178,5.8698,5.8698,5.8698,5.8698,5.8698,5.8698,5.8698,5.8698,5.8698,5.8698,5.8698,6.0258,6.1187,6.1187,6.2747,6.3602,6.3602,6.3602,6.3602,6.3602,6.3602,6.3602,6.3602,6.3602,6.3602,4.5324,4.5324,4.5026,4.5584,4.6327,4.6995,4.7256,4.7924,4.8593,4.8853,4.8444,4.8259,4.8816,4.8259,4.8333,5.0302,5.0822,5.1379,5.2494,5.3496,5.4048,5.3786,5.418,5.4528,5.4623,5.4746,5.4746,5.4654,5.3596,5.3119,5.3628,5.3399,5.3569,5.4203,5.5057,5.5763,5.632,5.7398,5.8215,5.8772,5.9552,6.0221,6.0815,6.1076,6.1038,6.0778,6.0778,6.0778,6.0778,6.0778,6.0778,6.0778,6.0778,6.0295,5.9589,6.0184,6.0035,5.9627,6.0221,6.0407,6.0407,6.0407,6.0407,6.0295,5.9701,5.9144,5.8698,5.8698,5.9107,5.9329,5.8549,5.8141,5.7732,5.6915,5.6097,5.5503,5.5503,5.5503,5.5763,5.6543,5.6729,5.6989,5.7806,5.8141,5.8326,5.8326,5.8549,5.8698,5.8698,5.8698,5.8698,5.8698,5.8698,5.8698,5.8698,5.8698,5.8698,5.8698,5.9218,5.9998,6.115,6.1707,6.2487,6.3602,6.3602,6.3602,6.3602,6.3602,6.3602,6.3602,6.3602,6.3602,4.6136,4.6141,4.5881,4.6364,4.7107,4.7701,4.7701,4.8333,4.889,4.889,4.8519,4.833,4.8949,4.8323,4.8397,5.0492,5.0987,5.1625,5.3038,5.3988,5.4495,5.4495,5.4776,5.4981,5.4981,5.5091,5.5091,5.4981,5.3992,5.3774,5.4495,5.4585,5.5149,5.6292,5.659,5.6989,5.7509,5.8921,5.9887,6.0407,6.1038,6.1596,6.2116,6.2116,6.193,6.167,6.167,6.167,0.0,6.167,6.172,6.1852,6.1852,6.1416,6.0862,6.1263,6.1032,6.0659,6.1044,6.1187,6.1187,6.1187,6.1187,6.1113,6.0555,5.9812,5.9218,5.9552,5.9998,6.0221,5.9367,5.9144,5.8884,5.7769,5.7138,5.6655,5.6357,5.632,5.6543,5.736,5.7509,5.7769,5.8549,5.8698,5.8698,5.8698,5.8698,5.8698,5.8698,5.8698,5.8698,5.8698,5.8698,5.8698,5.8698,5.8698,5.8698,5.8698,5.9292,6.011,6.115,6.1781,6.2599,6.3602,6.3602,6.3602,6.3602,6.3602,6.3602,6.3602,6.3602,6.3602,0.0,4.662,4.6587,4.6694,4.7252,4.7809,4.7843,4.8438,0.0,4.8959,4.8922,4.8949,4.9271,4.8408,4.8183,4.9645,5.0334,5.1111,5.2314,5.385,5.4874,5.4941,5.5157,5.5377,5.5415,5.557,5.5615,5.5339,5.5339,5.5553,5.6034,5.6952,5.7794,5.8622,5.8166,5.7888,5.7813,6.0231,6.1459,6.1416,6.294,6.3647,6.3602,6.3602,6.3193,6.2487,6.2531,6.2531,6.2531,6.2575,6.2757,6.3009,6.3009,6.2747,6.2349,6.2033,6.1883,6.1768,6.1554,6.1422,6.1422,6.1422,6.1385,6.1348,6.1422,6.0747,6.0184,6.0964,6.1261,6.1113,6.0221,6.0035,5.9701,5.8141,5.7732,5.7472,5.6729,5.6506,5.6692,5.7435,5.7583,5.7843,5.8586,5.8698,5.8698,5.8698,5.8698,5.8698,5.8698,5.8698,5.8698,5.8698,5.8698,5.8735,5.8772,5.8735,5.8735,5.8772,6.0258,6.115,6.1298,6.2747,6.3565,6.3602,6.3602,6.3602,6.3602,6.3602,6.3602,6.3602,6.3602,6.3602,4.7617,0.0,4.762,4.8477,4.884,4.9052,0.0,4.9457,4.9608,4.9608,4.9051,4.8598,4.872,4.7985,4.8136,5.0364,5.1348,5.2378,5.3943,5.4742,5.5517,5.6367,5.5977,5.5868,5.656,5.6066,5.5682,5.5599,5.5615,5.5938,5.6736,5.7951,5.8997,5.9836,6.1326,6.1764,6.1123,6.2973,6.3766,6.3484,6.3859,6.3915,6.3602,6.3602,6.3527,6.3342,6.3659,6.3784,6.3787,6.403,6.4218,6.4253,6.4253,6.3833,6.3293,6.3795,6.3608,6.3154,6.3689,6.3879,6.3879,6.3879,6.3463,6.3048,6.369,6.2476,6.0964,6.115,6.1633,6.193,6.1113,6.1373,6.1558,6.0593,5.9812,5.9292,5.9107,5.8586,5.8215,5.8401,5.8438,5.8475,5.8661,5.8698,5.8698,5.8698,5.8698,5.8698,5.8698,5.8698,5.8698,5.8698,5.8698,5.8958,5.9589,5.9069,5.8958,5.9589,5.9998,6.0778,6.2079,6.2487,6.297,6.3602,6.3602,6.3602,6.3602,6.3602,6.3602,6.3602,6.3602,6.3602,4.73,4.7786,4.8326,4.9332,4.9588,4.9608,4.9776,4.9235,4.8753,4.9159,4.8526,4.8098,4.8606,4.8289,4.8555,5.0531,5.1129,5.2246,5.4816,5.6039,5.6759,5.6973,5.6588,5.6319,5.6395,5.5972,5.5703,5.5703,5.6049,5.6819,5.8088,5.9216,6.0367,6.1632,6.3179,6.3588,6.28,6.4055,6.4592,6.4407,6.4407,6.4292,6.4131,6.4131,6.4131,6.4131,6.4331,6.4407,6.4445,6.4628,6.4803,6.4976,6.4976,6.4839,6.4619,6.4851,6.4704,6.4367,6.4617,6.4699,6.4699,6.4699,6.4396,6.4127,6.4547,6.3804,6.2818,6.2818,6.3118,6.3381,6.293,6.2994,6.3061,6.2403,6.1334,6.0524,6.0659,5.998,5.9255,5.9255,5.9255,5.9144,5.8772,5.8698,5.8846,5.9218,5.9255,5.9404,5.9812,5.985,5.985,5.985,5.985,6.0035,6.0481,6.011,6.0035,6.0481,6.0853,6.1447,6.2376,6.2747,6.3156,6.3602,6.3602,6.3602,6.3602,6.3602,6.3602,6.3602,6.3602,6.3602,4.6598,4.7533,4.8618,4.9314,4.9478,4.9504,4.953,4.8428,4.7606,4.8315,4.7897,4.7718,4.8678,4.8677,4.9005,5.047,5.0828,5.205,5.5259,5.6973,5.7665,5.7049,5.6857,5.6549,5.5972,5.578,5.5742,5.5895,5.6703,5.7934,5.9627,6.0627,6.1897,6.3474,6.4359,6.4496,6.3878,6.4529,6.4837,6.4803,6.4803,6.4769,6.4699,6.4699,6.4699,6.4699,6.4769,6.4803,6.4803,6.4837,6.5073,6.5397,6.5397,6.5608,6.5872,6.5513,6.5397,6.5329,6.5009,6.4871,6.4871,6.4871,6.4871,6.4871,6.4871,6.4871,6.4871,6.4871,6.4803,6.4699,6.4699,6.4483,6.418,6.3757,6.2598,6.1637,6.192,6.1087,6.0282,6.0282,6.024,5.9976,5.935,5.9197,5.9417,6.017,6.0282,6.0543,6.1251,6.1363,6.1363,6.1363,6.1279,6.131,6.1422,6.1416,6.1447,6.1558,6.2116,6.245,6.2599,6.3267,6.3602,6.3602,6.3602,6.3602,6.3602,6.3602,6.3602,6.3602,6.3602,6.3602,4.7453,4.801,4.8123,4.8044,4.8037,4.8082,4.8335,4.8183,4.8029,4.8144,4.8068,4.8029,4.8222,4.8202,4.874,5.0433,5.249,5.4297,5.5549,5.5934,5.6319,5.6934,5.6357,5.6126,5.6742,5.6126,5.6011,5.6742,5.7627,5.8819,6.0512,6.2089,6.3358,6.4359,6.5243,6.5641,6.5536,6.5651,6.5542,6.5207,6.5207,6.5041,6.4699,6.4699,6.4699,6.4734,6.5073,6.5207,6.5238,6.558,6.5755,6.5808,6.5808,6.5872,6.5897,6.5808,6.5808,6.5781,6.5755,6.5728,6.5728,6.5728,6.5728,6.5728,6.5728,6.5728,6.5728,6.5728,6.5238,6.4699,6.4699,6.4664,6.459,6.4547,6.3795,6.3156,6.3189,6.2511,6.1943,6.1943,6.1657,6.1469,6.1722,6.1468,6.1394,6.1873,6.1943,6.1946,6.2097,6.2097,6.2097,6.2097,6.1845,6.1916,6.2591,6.2369,6.2524,6.3193,6.271,6.271,6.3416,6.3527,6.3602,6.3602,6.3602,6.3602,6.3602,6.3602,6.3602,6.3602,6.3602,6.3602,4.6394,4.674,4.6837,4.7184,4.8276,4.9353,4.949,4.8779,4.824,4.8702,4.8432,4.824,4.8702,4.9202,4.9913,5.1203,5.3128,5.4783,5.563,5.6515,5.7093,5.7033,5.6626,5.6357,5.628,5.5934,5.6242,5.7588,5.8473,5.9896,6.205,6.332,6.4397,6.5282,6.5705,6.5897,6.5897,6.5897,6.5808,6.5635,6.5635,6.5513,6.5329,6.5329,6.5329,6.5359,6.5542,6.5635,6.5635,6.5808,6.5897,6.5897,6.5897,6.5897,6.5897,6.5897,6.5897,6.5897,6.5897,6.5897,6.5897,6.5897,6.5897,6.5897,6.5897,6.5897,6.5897,6.5897,6.5635,6.5329,6.5329,6.5168,6.5073,6.5299,6.4394,6.3668,6.4324,6.3655,6.2952,6.2952,6.2813,6.2591,6.2345,6.2132,6.2213,6.2842,6.2952,6.3103,6.3558,6.3596,6.3596,6.3596,6.3421,6.3427,6.361,6.3484,6.3419,6.3602,6.3267,6.323,6.3602,6.3602,6.3602,6.3602,6.3602,6.3602,6.3602,6.3602,6.3602,6.3602,6.3602,6.3602,4.5355,4.574,4.6124,4.6971,4.8355,4.9586,5.001,4.8894,4.8048,4.8933,4.874,4.8682,4.9548,5.0548,5.1491,5.2204,5.3552,5.4785,5.5671,5.6904,5.7482,5.6802,5.6725,5.6456,5.578,5.5703,5.6434,5.8165,5.905,6.0627,6.3166,6.4128,6.5013,6.5859,6.5897,6.5897,6.5897,6.5897,6.5897,6.5897,6.5897,6.5897,6.5897,6.5897,6.5897,6.5897,6.5897,6.5897,6.5897,6.5897,6.5897,6.5897,6.5897,6.5897,6.5897,6.5897,6.5897,6.5897,6.5897,6.5897,6.5897,6.5897,6.5897,6.5897,6.5897,6.5897,6.5897,6.5897,6.5897,6.5897,6.5897,6.5663,6.5513,6.5808,6.4958,6.4311,6.5244,6.4703,6.4057,6.4057,6.3992,6.3731,6.322,6.3074,6.3231,6.3943,6.4057,6.4285,6.4894,6.5009,6.5009,6.5009,6.4871,6.4699,6.4368,6.4251,6.4087,6.3742,6.3647,6.3602,6.3602,6.3602,6.3602,6.3602,6.3602,6.3602,6.3602,6.3602,6.3602,6.3602,6.3602,6.3602,4.5355,4.6201,4.7009,4.7817,4.6971,4.6355,4.7932,4.7625,4.724,4.8048,4.8854,4.9643,5.0452,5.1933,5.3069,5.3205,5.3937,5.4785,5.5671,5.5943,5.602,5.584,5.5822,5.5843,5.5703,5.5703,5.6434,5.8165,5.905,6.0627,6.3166,6.4128,6.5013,6.5859,6.5897,6.5897,6.5897,6.5897,6.5897,6.5897,6.5897,6.5897,6.5897,6.5897,6.5897,6.5897,6.5897,6.5897,6.5897,6.5897,6.5897,6.5897,6.5897,6.5897,6.5897,6.5897,6.5897,6.5897,6.5897,6.5897,6.5897,6.5897,6.5897,6.5897,6.5897,6.5897,6.5897,6.5897,6.5897,6.5897,6.5897,6.5897,6.5872,6.5897,6.5795,6.5731,6.5833,6.5769,6.5731,6.5731,6.5437,6.5282,6.5601,6.5322,6.5206,6.564,6.5731,6.5769,6.5808,6.5808,6.5808,6.5808,6.5485,6.5073,6.4699,6.4369,6.4209,6.4169,6.3786,6.3602,6.3602,6.3602,6.3602,6.3602,6.3602,6.3602,6.3602,6.3602,6.3602,6.3602,6.3602,6.3602,4.4432,4.5449,4.6352,4.7163,4.6873,4.687,4.8585,4.8682,4.8856,5.024,5.0394,5.0491,5.1279,5.1568,5.2184,5.3822,5.3937,5.4303,5.5731,5.5943,5.5924,5.5845,5.5865,5.5865,5.5845,5.5787,5.669,5.8941,5.9842,6.1435,6.3974,6.4936,6.5551,6.5897,6.5897,6.5897,6.5897,6.5897,6.5897,6.5897,6.5897,6.5897,6.5897,6.5897,6.5897,6.5897,6.5897,6.5897,6.5897,6.5897,6.5897,6.5897,6.5897,6.5897,6.5897,6.5897,6.5897,6.5897,6.5897,6.5897,6.5897,6.5897,6.5897,6.5897,6.5897,6.5897,6.5897,6.5897,6.5897,6.5897,6.5897,6.5897,6.5897,6.5897,6.5897,6.5897,6.5897,6.5897,6.5897,6.5897,6.5781,6.5728,6.5872,6.5781,6.5728,6.5897,6.5897,6.5897,6.5897,6.5897,6.5897,6.5897,6.5513,6.5238,6.5073,6.4737,6.452,6.452,6.392,6.3602,6.3602,6.3602,6.3602,6.3602,6.3602,6.3602,6.3602,6.3602,6.3602,6.3602,6.3602,6.3602,4.4025,4.5175,4.6271,4.7139,4.7118,4.7366,4.9118,4.9276,4.9509,5.1259,5.1568,5.1549,5.1549,5.153,5.2107,5.3917,5.376,5.4009,5.5748,5.598,5.598,5.5905,5.5905,5.604,5.629,5.6271,5.7292,5.9854,6.0773,6.2213,6.4547,6.5461,6.5923,6.5923,6.5923,6.5897,6.5897,6.5923,6.5923,6.5923,6.5923,6.5923,6.5897,6.5897,6.5897,6.5897,6.5897,6.5897,6.5897,6.5897,6.5897,6.5897,6.5897,6.5897,6.5897,6.5897,6.5897,6.5897,6.5897,6.5897,6.5897,6.5897,6.5897,6.5897,6.5897,6.5897,6.5897,6.5897,6.5897,6.5897,6.5897,6.5897,6.5897,6.5897,6.5897,6.5897,6.5897,6.5897,6.5897,6.5897,6.5897,6.5897,6.5897,6.5897,6.5897,6.5897,6.5897,6.5897,6.5897,6.5897,6.5897,6.5897,6.5635,6.5485,6.5485,6.5105,6.4871,6.4871,6.4292,6.3878,6.3786,6.3786,6.3786,6.3786,6.3786,6.3786,6.3786,6.3647,6.3602,6.3602,6.3602,6.3602,4.4383,4.5616,4.7097,4.8034,4.7593,4.7383,4.9203,4.8883,4.8677,5.0426,5.2126,5.2762,5.112,5.2164,5.3321,5.3412,5.343,5.4009,5.5748,5.6016,5.5977,5.5905,5.5981,5.6348,5.712,5.7236,5.8258,6.0804,6.1687,6.2898,6.4701,6.551,6.5923,6.5996,6.5947,6.5897,6.5897,6.5972,6.5996,6.5996,6.5996,6.5972,6.5897,6.5897,6.5897,6.5897,6.5897,6.5897,6.5897,6.5897,6.5897,6.5897,6.5897,6.5897,6.5897,6.5897,6.5897,6.5897,6.5897,6.5897,6.5897,6.5897,6.5897,6.5897,6.5897,6.5897,6.5897,6.5897,6.5897,6.5897,6.5897,6.5897,6.5897,6.5897,6.5897,6.5897,6.5897,6.5897,6.5897,6.5897,6.5897,6.5897,6.5897,6.5897,6.5897,6.5897,6.5897,6.5897,6.5897,6.5897,6.5897,6.5897,6.5897,6.5897,6.5897,6.5513,6.5299,6.5299,6.4904,6.4593,6.4249,6.4209,6.4209,6.4209,6.4209,6.4209,6.4209,6.3786,6.3602,6.3602,6.3602,6.3602,4.3343,4.4762,4.6282,4.7147,4.8089,4.8916,4.9489,4.9346,4.943,5.0527,5.1606,5.2261,5.1797,5.2144,5.2934,5.4108,5.4431,5.489,5.5879,5.6072,5.6111,5.5977,5.6518,5.7021,5.7253,5.7795,5.8665,6.0055,6.1404,6.2673,6.3814,6.5196,6.5967,6.599,6.5967,6.5943,6.5943,6.5967,6.599,6.599,6.599,6.5967,6.5943,6.5909,6.5923,6.5972,6.5923,6.5897,6.5897,6.5897,6.5897,6.5897,6.5897,6.5897,6.5897,6.5897,6.5897,6.5897,6.5897,6.5897,6.5897,6.5897,6.5897,6.5897,6.5897,6.5897,6.5897,6.5897,6.5897,6.5897,6.5897,6.5897,6.5897,6.5897,6.5897,6.5897,6.5897,6.5897,6.5897,6.5897,6.5897,6.5897,6.5897,6.5897,6.5897,6.5897,6.5897,6.5897,6.5897,6.5897,6.5897,6.5897,6.5897,6.5897,6.5897,6.5781,6.5728,6.5728,6.5329,6.4942,6.4593,6.4519,6.4519,6.4519,6.4519,6.4445,6.4209,6.4087,6.3873,6.3602,6.3602,6.3602,4.4893,4.6291,4.7558,4.8446,4.9219,4.9798,5.0124,5.013,5.0195,5.0717,5.1527,5.201,5.176,5.2298,5.3121,5.4178,5.4715,5.5265,5.6005,5.6172,5.6205,5.6128,5.6863,5.7482,5.7812,5.8567,5.9688,6.1235,6.2218,6.3278,6.4496,6.5495,6.6013,6.6036,6.6013,6.6013,6.6013,6.6036,6.6036,6.6036,6.6036,6.6058,6.608,6.6005,6.5958,6.6005,6.5958,6.5933,6.5947,6.5947,6.5923,6.5897,6.5897,6.5897,6.5897,6.5897,6.5897,6.5897,6.5897,6.5897,6.5897,6.5897,6.5897,6.5897,6.5897,6.5897,6.5897,6.5897,6.5897,6.5897,6.5897,6.5897,6.5897,6.5897,6.5897,6.5897,6.5897,6.5897,6.5897,6.5897,6.5897,6.5897,6.5897,6.5897,6.5897,6.5897,6.5897,6.5897,6.5897,6.5897,6.5897,6.5897,6.5897,6.5897,6.5897,6.5897,6.5897,6.5897,6.5663,6.5427,6.5168,6.5041,6.4942,6.4942,6.4942,6.4841,6.4668,6.4483,6.4212,6.383,6.383,6.3742,4.7719,4.8963,4.9998,5.0874,5.0573,5.0217,5.0945,5.0999,5.096,5.0979,5.1653,5.2,5.1355,5.2607,5.3746,5.3905,5.4618,5.5397,5.6173,5.6304,5.6327,5.6411,5.7069,5.7865,5.874,5.9571,6.0963,6.3284,6.3554,6.4327,6.5876,6.6003,6.6058,6.6102,6.6058,6.6013,6.6013,6.608,6.6102,6.6102,6.6102,6.6144,6.6185,6.6058,6.6013,6.6013,6.6013,6.6029,6.602,6.602,6.5972,6.5923,6.5923,6.5897,6.5897,6.5897,6.5897,6.5897,6.5897,6.5897,6.5897,6.5897,6.5897,6.5897,6.5897,6.5897,6.5897,6.5897,6.5897,6.5897,6.5897,6.5897,6.5897,6.5897,6.5897,6.5897,6.5897,6.5897,6.5897,6.5897,6.5897,6.5897,6.5897,6.5897,6.5897,6.5897,6.5897,6.5897,6.5897,6.5897,6.5897,6.5897,6.5897,6.5897,6.5897,6.5897,6.5897,6.5897,6.5897,6.5897,6.5897,6.558,6.5329,6.5329,6.5329,6.5329,6.5299,6.4904,6.4593,6.4251,6.4212,6.4004,4.5431,4.7145,4.907,4.9945,5.0559,5.0975,5.116,5.1166,5.112,5.1106,5.123,5.1512,5.2095,5.3058,5.3984,5.4645,5.5611,5.6289,5.6285,5.6386,5.6665,5.7245,5.8042,5.8895,5.9645,6.0499,6.1195,6.1621,6.2936,6.3864,6.4213,6.5469,6.6165,6.6165,6.6165,6.6144,6.6144,6.6165,6.6165,6.6165,6.6165,6.6165,6.6185,6.6058,6.6013,6.6013,6.6013,6.599,6.599,6.599,6.599,6.5967,6.5996,6.5972,6.5972,6.5923,6.5897,6.5897,6.5897,6.5897,6.5897,6.5897,6.5897,6.5897,6.5897,6.5897,6.5897,6.5897,6.5897,6.5897,6.5897,6.5897,6.5897,6.5897,6.5897,6.5897,6.5897,6.5897,6.5897,6.5897,6.5897,6.5897,6.5897,6.5897,6.5897,6.5897,6.5897,6.5897,6.5897,6.5897,6.5897,6.5897,6.5897,6.5897,6.5897,6.5897,6.5897,6.5897,6.5897,6.5897,6.5897,6.5808,6.5781,6.5781,6.5781,6.5608,6.5299,6.5238,6.4976,6.4592,6.433,6.4169,4.6266,4.7946,4.9575,5.0403,5.0946,5.1269,5.1291,5.1269,5.1244,5.1238,5.1203,5.1473,5.2411,5.3291,5.4186,5.4997,5.597,5.656,5.6454,5.6517,5.6834,5.7664,5.8441,5.9279,6.0088,6.0856,6.1466,6.1794,6.3033,6.3923,6.429,6.5528,6.6185,6.6185,6.6185,6.6185,6.6185,6.6185,6.6185,6.6185,6.6185,6.6185,6.6185,6.6123,6.6102,6.6102,6.6102,6.608,6.6058,6.6058,6.6036,6.6013,6.6005,6.6005,6.6005,6.5958,6.5958,6.5958,6.5947,6.5947,6.5947,6.5923,6.5897,6.5897,6.5897,6.5897,6.5897,6.5897,6.5897,6.5897,6.5897,6.5897,6.5897,6.5897,6.5897,6.5897,6.5897,6.5897,6.5897,6.5897,6.5897,6.5897,6.5897,6.5897,6.5897,6.5897,6.5897,6.5897,6.5897,6.5897,6.5897,6.5897,6.5897,6.5897,6.5897,6.5897,6.5897,6.5897,6.6244,6.6474,6.6474,6.6474,6.6282,6.5897,6.5897,6.5781,6.5608,6.5608,6.5588,6.5618,6.5414,6.5462,4.7236,4.8893,5.0195,5.1172,5.1346,5.1328,5.1385,5.1368,5.1324,5.1399,5.149,5.1813,5.2769,5.3633,5.4492,5.539,5.6133,5.6601,5.6601,5.6719,5.7148,5.8008,5.8789,5.957,6.043,6.1101,6.1718,6.2327,6.3147,6.3961,6.4754,6.5566,6.6069,6.6185,6.6185,6.6185,6.6185,6.6185,6.6185,6.6185,6.6185,6.6185,6.6185,6.6185,6.6185,6.6185,6.6185,6.6165,6.6123,6.6123,6.608,6.6036,6.6036,6.6013,6.6013,6.6013,6.6013,6.599,6.6005,6.602,6.5996,6.5947,6.5923,6.5897,6.5897,6.5897,6.5897,6.5897,6.5897,6.5897,6.5897,6.5897,6.5897,6.5897,6.5897,6.5897,6.5897,6.5897,6.5897,6.5897,6.5897,6.5897,6.5897,6.5897,6.5897,6.5897,6.5897,6.5897,6.5897,6.5897,6.5897,6.5897,6.5897,6.5897,6.5897,6.6013,6.609,6.609,6.6859,6.7321,6.7321,6.7321,6.7013,6.632,6.6051,6.5974,6.609,6.609,6.6331,6.6689,6.6743,6.7006,4.4052,4.6677,4.9453,5.1016,5.1406,5.1403,5.1398,5.1394,5.1412,5.1414,5.1984,5.2767,5.3672,5.4531,5.539,5.6289,5.6523,5.6601,5.6601,5.7265,5.8047,5.8906,5.9726,6.0547,6.1367,6.152,6.1564,6.1539,6.2315,6.311,6.3922,6.4715,6.5489,6.6185,6.6185,6.6185,6.6185,6.6185,6.6185,6.6185,6.6185,6.6185,6.6185,6.6185,6.6185,6.6185,6.6185,6.6185,6.6165,6.6165,6.6165,6.6165,6.6102,6.608,6.608,6.6036,6.6013,6.6013,6.599,6.6005,6.5996,6.5996,6.5947,6.5897,6.5897,6.5897,6.5897,6.5897,6.5897,6.5897,6.5897,6.5897,6.5897,6.5897,6.5897,6.5897,6.5897,6.5897,6.5897,6.5897,6.5897,6.5897,6.5897,6.5897,6.5897,6.5897,6.5897,6.5897,6.5897,6.5897,6.5897,6.5897,6.5897,6.5897,6.5897,6.6551,6.6936,6.6936,6.7744,6.8244,6.8244,6.8244,6.8167,6.809,6.6628,6.6244,6.6936,6.6936,6.6949,6.7038,6.7438,6.7668,4.5117,4.7344,4.9297,5.0976,5.1406,5.1406,5.1406,5.1418,5.138,5.1404,5.2461,5.3555,5.3945,5.4726,5.5586,5.6445,5.6601,5.6758,5.7265,5.7656,5.8398,5.9726,6.0195,6.0742,6.1562,6.164,6.1638,6.1538,6.2701,6.357,6.3903,6.5122,6.5953,6.6301,6.6224,6.6185,6.6185,6.6185,6.6185,6.6185,6.6185,6.6185,6.6185,6.6185,6.6185,6.6185,6.6185,6.6185,6.6185,6.6185,6.6185,6.6185,6.6165,6.6144,6.6144,6.6123,6.6102,6.6102,6.608,6.6036,6.6052,6.6029,6.5958,6.5947,6.5947,6.5923,6.5897,6.5897,6.5897,6.5897,6.5897,6.5897,6.5897,6.5897,6.5897,6.5897,6.5897,6.5897,6.5897,6.5897,6.5897,6.5897,6.5897,6.5897,6.5897,6.5897,6.5897,6.6051,6.6513,6.6551,6.6744,6.7244,6.7321,6.7321,6.7321,6.7628,6.7821,6.7821,6.8667,6.9129,6.9129,6.9129,6.936,6.9783,6.8167,6.7244,6.709,6.759,6.7821,6.7859,6.8531,6.9088,4.5547,4.7422,4.8633,5.0351,5.1094,5.1406,5.1406,5.1406,5.1445,5.168,5.293,5.4062,5.4297,5.5039,5.5859,5.6484,5.6797,5.7148,5.7812,5.8281,5.8984,6.0234,6.0586,6.0976,6.164,6.1719,6.168,6.164,6.2773,6.3525,6.3729,6.4854,6.5681,6.6108,6.6031,6.6069,6.6301,6.6263,6.6263,6.6263,6.6224,6.6224,6.6263,6.6224,6.6224,6.6263,6.6224,6.6185,6.6185,6.6185,6.6185,6.6185,6.6185,6.6185,6.6185,6.6185,6.6185,6.6185,6.6144,6.6102,6.6102,6.6036,6.599,6.5982,6.5982,6.5972,6.5923,6.5923,6.5923,6.5897,6.5897,6.5897,6.5897,6.5897,6.5897,6.5897,6.5897,6.5897,6.5897,6.5897,6.6051,6.6128,6.5936,6.6051,6.6205,6.6205,6.6205,6.6513,6.7321,6.7436,6.7667,6.8321,6.8398,6.8398,6.8398,6.859,6.8744,6.8744,6.9552,7.0014,7.0014,7.0014,7.0283,7.0898,6.9667,6.8629,6.7744,6.8398,6.8744,6.8744,6.9629,7.0321,4.3203,4.5156,4.6836,4.8594,5.0234,5.1406,5.1406,5.1406,5.1641,5.2461,5.3359,5.4258,5.5078,5.5937,5.6562,5.6601,5.7305,5.7851,5.789,5.9258,6.0312,6.039,6.1133,6.164,6.1719,6.1719,6.1719,6.1719,6.1719,6.2109,6.2928,6.2935,6.3664,6.5296,6.5353,6.576,6.6572,6.6456,6.6379,6.6379,6.6263,6.6263,6.6379,6.6263,6.6263,6.6379,6.6263,6.6185,6.6185,6.6185,6.6185,6.6185,6.6185,6.6185,6.6185,6.6185,6.6185,6.6185,6.6185,6.6144,6.6102,6.6102,6.6058,6.599,6.599,6.6005,6.5996,6.5996,6.5947,6.5897,6.5897,6.5897,6.5897,6.5897,6.5897,6.5897,6.5897,6.5897,6.5897,6.5897,6.6513,6.6782,6.6013,6.6513,6.7051,6.7051,6.7051,6.7359,6.8244,6.8321,6.8359,6.8398,6.8398,6.8398,6.8398,6.9167,6.9629,6.9629,7.0398,7.0821,7.0821,7.0821,7.086,7.0898,7.0821,7.036,6.9552,6.9629,6.9629,6.9667,7.0475,7.086,4.1836,4.375,4.5742,4.6953,4.8945,5.0625,5.0625,5.1016,5.1641,5.2539,5.3398,5.4258,5.5156,5.6015,5.6601,5.6601,5.7344,5.8086,5.8672,5.9687,6.0625,6.1172,6.1523,6.1719,6.1719,6.1719,6.1719,6.1719,6.2187,6.2617,6.2969,6.3899,6.4463,6.4545,6.5556,6.6295,6.6606,6.6528,6.6555,6.6533,6.6456,6.6456,6.6515,6.6477,6.6422,6.6379,6.634,6.6263,6.6185,6.6185,6.6185,6.6185,6.6185,6.6185,6.6185,6.6185,6.6185,6.6185,6.6185,6.6165,6.6165,6.6165,6.6123,6.6058,6.6058,6.6036,6.6005,6.6005,6.5967,6.5943,6.5943,6.5958,6.5947,6.5923,6.5897,6.5897,6.5897,6.5897,6.5897,6.5897,6.6551,6.7013,6.6705,6.7359,6.7936,6.7936,6.7936,6.8244,6.9129,6.9244,6.9436,6.9937,7.0014,7.0014,7.0014,7.0283,7.0475,7.0475,7.0744,7.0898,7.0898,7.0898,7.0898,7.0898,7.0898,7.0514,6.9706,7.0206,7.0206,6.9706,7.0514,7.0898,4.0586,4.2422,4.4531,4.6289,4.8047,4.9648,5.0781,5.1211,5.1719,5.2891,5.3828,5.4687,5.5586,5.6211,5.6719,5.6992,5.7773,5.8633,5.9492,6.0312,6.1055,6.164,6.1719,6.1719,6.1719,6.1719,6.1719,6.1719,6.2226,0.0,6.2578,6.3594,6.4016,6.3754,6.5666,6.6408,6.5822,6.6057,6.6195,6.6192,6.6167,6.632,6.6631,6.6594,6.6567,6.6495,6.6456,6.6379,6.6185,6.6185,6.6185,6.6185,6.6185,6.6185,6.6185,6.6185,6.6379,6.6572,6.6301,6.6379,6.6572,6.6301,6.6165,6.6123,6.6123,6.608,6.6036,6.6036,6.6013,6.6013,6.6013,6.6029,6.5982,6.5933,6.5933,6.601,6.6319,6.6115,6.5974,6.6244,6.6974,6.7552,6.7552,6.8244,6.8859,6.8859,6.8859,6.9129,6.9975,7.009,7.0321,7.0821,7.0898,7.0898,7.0898,7.0898,7.0898,7.0898,7.0898,7.0898,7.0898,7.0898,7.0898,7.0898,7.0898,7.0629,7.009,7.0629,7.0629,7.0129,7.0667,7.0898,0.0,0.0,0.0,4.6562,4.7461,4.8398,5.1758,5.1875,5.1797,5.3594,5.4648,5.5508,5.6445,5.6601,5.6875,5.7773,5.8633,5.9492,6.0273,6.1133,6.1719,6.1719,6.1719,6.1719,6.1719,6.1719,6.1719,6.1719,6.1719,6.1719,6.1719,6.1719,6.2109,6.3008,6.5508,6.6015,6.4336,6.5078,6.543,6.539,6.5354,6.5803,6.6709,6.6646,6.6633,6.669,6.6631,6.6476,6.6244,6.6224,6.6263,6.6263,6.6263,6.6263,6.6224,6.6224,6.6766,6.7384,6.6533,6.6804,6.7384,6.6533,6.6263,6.6224,6.6224,6.6183,6.6102,6.614,6.6097,6.6052,6.609,6.6052,6.6052,6.609,6.6052,6.6283,6.7132,6.6613,6.6205,6.6974,6.7821,6.8398,6.8436,6.9167,6.9744,6.9744,6.9744,7.0014,7.0783,7.0898,7.0898,7.0898,7.0898,7.0898,7.0898,7.0898,7.0898,7.0898,7.0898,7.0898,7.0898,7.0898,7.0898,7.0898,7.0898,7.0898,7.0898,7.0898,7.0898,7.0898,7.0898,7.0898,3.8047,0.0,0.0,0.0,0.0,0.0,4.7695,4.8359,4.9492,5.2461,5.3242,5.4062,5.6211,5.6601,5.7109,5.8594,5.9023,5.9492,6.0273,6.1133,6.1719,6.1719,6.1719,6.1719,6.1719,6.1719,6.1719,0.0,6.1719,6.1719,6.1719,6.1719,6.2383,6.3906,6.4648,6.4805,6.4297,6.5742,6.6172,6.5547,6.6166,6.6579,6.6829,6.6813,6.6774,6.67,6.6672,6.6937,6.7372,6.7366,6.7366,6.7366,6.7366,6.7328,6.7212,6.6572,6.6843,6.7462,6.723,6.7694,6.839,6.8158,6.7655,6.7152,6.7152,6.6668,6.632,6.6938,6.7111,6.7205,6.7802,6.7509,6.7139,6.7734,6.7402,6.717,6.8058,6.8034,6.7894,6.8077,6.827,6.859,6.9244,7.0014,7.0552,7.0552,7.0552,7.0667,7.086,7.0898,7.0898,7.0898,7.0898,7.0898,7.0898,7.0898,7.0898,7.0898,7.0898,7.0898,7.0898,7.0898,7.0898,7.0898,7.0898,7.0898,7.0898,7.0898,7.0898,7.0898,7.0898,7.0898,3.7891,3.9219,4.1016,4.2422,0.0,0.0,4.7812,4.8828,5.0078,5.3164,5.4062,5.4805,5.6328,5.6914,5.7578,5.8984,5.9492,6.0,6.082,6.1367,6.1719,6.1719,6.1719,6.1719,6.1719,6.1719,6.1719,6.1719,6.1719,6.1719,6.1719,6.2031,6.2539,6.3203,6.3906,6.3945,6.3203,6.457,6.5195,6.5078,6.5586,6.6211,6.6914,6.6914,6.6875,6.6797,6.7157,6.7576,6.8026,6.8706,6.8552,6.7798,6.7798,6.7565,6.7238,6.7039,6.7444,6.8081,6.8081,6.8622,6.9241,6.8932,6.8468,6.8042,6.8042,6.7694,6.7384,6.7887,6.8042,6.8158,6.8618,6.8386,6.8094,6.8574,6.8304,6.8188,6.8999,6.8899,6.8737,6.9037,6.9065,6.9284,7.0131,7.0644,7.0952,7.0952,7.0925,7.0898,7.0898,7.0898,7.0898,7.0898,7.0898,7.0898,7.0898,7.0898,7.0898,7.0898,7.0898,7.0925,7.0952,7.0952,7.0952,7.0979,7.0979,7.0979,7.0979,7.0925,7.0898,7.0898,7.0898,7.0898,3.8437,3.918,4.0547,4.3789,4.4062,0.0,4.9492,5.0625,5.1445,5.4062,5.5195,5.582,5.6094,5.6797,5.7656,5.8594,5.9531,6.0508,6.1562,6.1719,6.1719,6.1719,6.1719,6.1719,6.1719,6.1719,6.1719,6.1719,6.1719,6.1719,6.1719,6.2422,6.25,6.1719,6.3281,6.3359,6.1719,6.2656,6.3476,6.414,6.4336,6.5273,6.6758,6.6875,6.6914,6.6953,6.7812,6.8261,6.8466,7.0034,6.9683,6.8115,6.8115,6.7686,6.7112,6.7736,6.8413,6.9052,6.9069,6.9551,7.0054,6.9319,6.9009,6.8932,6.8932,6.8854,6.8816,6.8932,6.9009,6.9087,6.9087,6.9009,6.897,6.9048,6.9009,6.9164,6.9976,6.9546,6.9192,6.9919,6.9972,7.0141,7.0951,7.1056,7.1005,7.1005,7.0952,7.0925,7.0925,7.0925,7.0925,7.0925,7.0925,7.0925,7.0925,7.0925,7.0925,7.0925,7.0925,7.0952,7.1005,7.1005,7.103,7.1106,7.1106,7.1106,7.1106,7.0979,7.0925,7.0925,7.0898,7.0898,3.875,3.8711,3.9336,4.1406,4.2305,0.0,4.4805,4.5742,4.6992,4.9609,5.0273,5.1016,5.3086,5.3594,5.4219,5.582,5.7383,5.914,6.1406,6.1719,6.1719,6.1719,6.1719,6.1719,6.1719,6.1719,6.1719,6.1719,6.1719,6.1719,6.1719,6.1875,6.1875,6.1719,6.2695,6.2734,6.1719,6.3242,6.3789,6.3281,6.4687,6.5508,6.5898,6.6562,6.6914,6.6953,6.7812,6.8554,6.9252,7.0267,7.0463,7.0111,7.0111,6.9994,6.9757,6.9199,6.9483,7.0097,7.0118,7.0617,7.1175,7.1021,7.044,6.9783,6.9783,6.9319,6.8932,6.9589,7.0286,7.0827,7.0827,7.0286,6.9938,7.0634,7.0286,7.0015,7.0866,7.0905,7.0844,7.0999,7.0405,7.0141,7.0951,7.1081,7.1081,7.1081,7.1081,7.1056,7.1056,7.1056,7.1056,7.1056,7.1056,7.1056,7.1056,7.1056,7.1056,7.1056,7.1056,7.1056,7.1081,7.1081,7.1081,7.1106,7.1106,7.1106,7.1106,7.103,7.1005,7.1056,7.0952,7.0925,3.8945,3.8906,3.9648,4.1367,0.0,0.0,0.0,4.6328,4.7539,4.9687,5.0156,5.0547,5.1836,5.2773,5.3789,5.5078,5.7148,5.8984,6.0273,6.1172,6.1719,6.1719,6.1719,6.1719,6.1719,6.1719,6.1719,6.1719,6.1719,6.1719,6.1719,6.1719,6.1719,6.1719,6.2109,6.2148,6.1719,6.2578,6.3008,6.3008,6.4336,6.5195,6.5625,6.6484,6.7148,6.7617,6.8476,6.9297,7.0117,7.0976,7.1367,7.1328,7.0859,7.039,7.0,7.0,7.0226,7.0576,7.0961,7.1276,7.1493,7.151,7.1098,7.0634,7.0634,7.0363,7.0131,7.0518,7.0943,7.1291,7.1291,7.0982,7.075,7.1214,7.0982,7.075,7.1214,7.1291,7.1291,7.1291,7.0899,7.0738,7.1124,7.1178,7.1154,7.1154,7.113,7.1106,7.1106,7.1106,7.1106,7.1106,7.1106,7.1106,7.1106,7.1106,7.1106,7.1106,7.1106,7.1106,7.1154,7.1154,7.1178,7.1201,7.1201,7.1201,7.1201,7.113,7.1106,7.1106,7.103,7.103,0.0,0.0,0.0,0.0,0.0,4.4492,0.0,0.0,0.0,0.0,0.0,0.0,5.0625,0.0,0.0,5.3711,0.0,0.0,0.0,5.9453,0.0,6.1172,6.1484,6.164,6.1484,6.1328,6.1367,6.168,6.1406,6.1367,6.168,6.1719,6.1719,6.1719,6.1719,6.1719,6.1719,6.1719,6.2148,6.3008,6.3867,6.4765,6.5625,6.6484,6.7383,6.8242,6.9101,6.9961,7.0781,7.164,7.1992,7.1914,7.1211,7.0508,7.0,7.0703,7.0937,7.0976,7.1597,7.1721,7.1559,7.1551,7.1407,7.1291,7.1291,7.1291,7.1291,7.1291,7.1291,7.1291,7.1291,7.1291,7.1291,7.1291,7.1291,7.1291,7.1291,7.1291,7.1291,7.1291,7.1291,7.1291,7.1291,7.1247,7.1224,7.1224,7.1178,7.113,7.113,7.113,7.113,7.113,7.113,7.113,7.113,7.113,7.113,7.113,7.113,7.1154,7.1224,7.1224,7.1324,7.1562,7.1562,7.164,7.1794,7.175,7.151,7.113,7.1106,7.1106,0.0,0.0,0.0,0.0,4.4219,0.0,0.0,0.0,4.6641,4.6836,0.0,0.0,0.0,0.0,0.0,0.0,0.0,0.0,5.2383,5.5117,5.7734,5.9297,6.0781,6.1406,6.0625,5.9883,6.0117,6.1601,6.0312,6.0117,6.1601,6.1719,6.1719,6.1719,6.1719,6.1719,6.1719,6.1719,6.2148,6.3008,6.3867,6.4765,6.5625,6.6484,6.7383,6.8242,6.9101,6.9961,7.0781,7.164,7.1992,7.1992,7.1875,7.1797,7.1719,7.1836,7.1836,7.1834,7.1948,7.1838,7.168,7.1669,7.1485,7.1291,7.1291,7.1291,7.1291,7.1291,7.1291,7.1291,7.1291,7.1291,7.1291,7.1291,7.1291,7.1291,7.1291,7.1291,7.1291,7.1291,7.1291,7.1291,7.1291,7.1291,7.1291,7.1291,7.1269,7.1269,7.1269,7.1269,7.1269,7.1269,7.1269,7.1269,7.1269,7.1269,7.1269,7.1269,7.1269,7.1269,7.1291,7.1291,7.1678,7.2452,7.2452,7.2839,7.3612,7.3612,7.2778,7.1269,7.1154,7.113,0.0,0.0,0.0,0.0,0.0,0.0,4.5859,0.0,4.6289,0.0,0.0,0.0,0.0,0.0,0.0,0.0,5.0781,0.0,0.0,0.0,5.6875,0.0,0.0,0.0,0.0,0.0,0.0,0.0,6.0156,5.9922,6.1601,6.1719,6.1719,6.1719,6.1719,6.1953,6.2461,6.2461,6.289,6.375,6.4648,6.5234,6.5625,6.6484,6.7383,6.8203,6.8594,6.9219,7.0,7.0898,7.125,7.1289,7.1797,7.1992,7.1992,7.1992,7.1992,7.1992,7.2014,7.1877,7.1723,7.1626,7.1446,7.1291,7.1291,7.1291,7.1291,7.1291,7.1291,7.1291,7.1291,7.1291,7.1291,7.1291,7.1291,7.1291,7.1291,7.1291,7.1291,7.1291,7.1291,7.1291,7.1291,7.1291,7.1291,7.1291,7.1291,7.1291,7.1291,7.1291,7.1485,7.1988,7.2065,7.2065,7.2065,7.2065,7.1833,7.133,7.1291,7.1291,7.1291,7.1794,7.222,7.2607,7.3109,7.3535,7.3883,7.3883,7.3535,7.28,7.2755,7.219,4.2226,0.0,0.0,0.0,0.0,0.0,0.0,0.0,0.0,0.0,0.0,0.0,0.0,0.0,0.0,0.0,0.0,5.1484,0.0,5.3203,0.0,0.0,0.0,0.0,0.0,0.0,0.0,0.0,0.0,5.9414,6.1562,6.1719,6.1719,6.1719,6.1914,6.2344,6.3008,6.3242,6.3789,6.4648,6.5312,6.5742,6.5976,6.6601,6.7383,6.8203,6.8203,6.8672,6.9453,7.0117,7.0508,7.0742,7.1406,7.1797,7.1992,7.1992,7.1992,7.1992,7.1992,7.1924,7.1753,7.1608,7.1446,7.133,7.133,7.133,7.1291,7.1291,7.1291,7.1291,7.1291,7.1291,7.1291,7.1291,7.1291,7.1291,7.1291,7.1291,7.1291,7.1291,7.1291,7.1291,7.1291,7.1291,7.1291,7.1291,7.1291,7.1369,7.164,7.164,7.1988,7.2877,7.2955,7.2955,7.2955,7.2723,7.222,7.1369,7.1523,7.164,7.164,7.2491,7.3071,7.3264,7.3922,7.4347,7.4579,7.4579,7.4463,7.4231,7.3999,7.3226,0.0,0.0,0.0,4.4101,0.0,0.0,0.0,0.0,4.6055,0.0,0.0,0.0,0.0,0.0,0.0,4.6523,0.0,0.0,0.0,0.0,0.0,0.0,0.0,0.0,0.0,0.0,0.0,0.0,0.0,0.0,6.1523,6.1719,6.1719,6.1719,6.2539,6.2969,6.3008,6.3828,6.4687,6.5547,6.5586,6.6055,6.6875,6.6875,6.7383,6.8203,6.8203,6.8672,6.9414,6.9492,7.0,7.0703,7.0742,7.125,7.1992,7.1992,7.1992,7.1992,7.1992,7.1914,7.1783,7.1719,7.1601,7.1485,7.1485,7.1407,7.1291,7.1291,7.1291,7.1291,7.1291,7.1291,7.1291,7.1291,7.1291,7.1291,7.1291,7.1291,7.1291,7.1291,7.1291,7.1291,7.1291,7.1291,7.1291,7.1291,7.1291,7.1601,7.2452,7.2568,7.2877,7.3767,7.3844,7.3844,7.3844,7.3071,7.222,7.1369,7.2104,7.2568,7.2568,7.3419,7.4231,7.5005,7.5044,7.5469,7.632,7.632,7.5895,7.5044,7.427,7.3883,0.0,0.0,4.9562,4.6209,0.0,0.0,0.0,0.0,0.0,0.0,0.0,0.0,0.0,0.0,4.7305,4.6445,0.0,0.0,0.0,0.0,0.0,0.0,0.0,0.0,0.0,0.0,0.0,0.0,0.0,0.0,0.0,6.1719,6.1719,6.1719,6.1992,6.2695,6.3867,6.414,6.5039,6.6445,6.6445,6.6601,6.6914,6.6914,6.7383,6.8203,6.8203,6.8672,6.9453,7.0039,7.0469,7.0742,7.1328,7.1758,7.1992,7.1992,7.1992,7.1992,7.1992,7.1914,7.1796,7.1786,7.1711,7.1645,7.1629,7.1523,7.1407,7.1407,7.1369,7.1291,7.1291,7.1291,7.1291,7.1291,7.1291,7.1291,7.1291,7.1291,7.1291,7.1291,7.1756,7.1988,7.1407,7.2258,7.2645,7.1485,7.1794,7.2065,7.1794,7.2761,7.3574,7.3883,7.3883,7.3883,7.3883,7.3109,7.2452,7.2181,7.2993,7.3458,7.3458,7.427,7.4811,7.5082,7.5662,7.6127,7.6397,7.6397,7.6243,7.5933,7.5662,7.4966,5.0156,5.1136,0.0,4.7937,4.8703,0.0,4.5468,0.0,4.8355,0.0,0.0,0.0,0.0,0.0,0.0,4.8047,0.0,0.0,0.0,4.8359,0.0,0.0,0.0,0.0,0.0,0.0,0.0,0.0,0.0,0.0,0.0,0.0,6.1719,6.1719,6.2305,6.3164,6.4297,6.4922,6.5781,6.6914,6.6914,6.6914,6.6914,6.6914,6.7383,6.8203,6.8203,6.8672,6.9453,7.0039,7.043,7.0742,7.1328,7.1719,7.1992,7.1992,7.1992,7.1992,7.1992,7.1953,7.1875,7.1875,7.1822,7.1745,7.1758,7.1669,7.1571,7.1567,7.1446,7.1369,7.1369,7.133,7.1291,7.1291,7.1291,7.1291,7.1291,7.1291,7.1291,7.1291,7.1988,7.2413,7.1872,7.2955,7.3419,7.1988,7.2491,7.2877,7.2297,7.3226,7.3999,7.4309,7.4347,7.4347,7.4347,7.3806,7.338,7.3071,7.3844,7.4347,7.4347,7.5121,7.5276,7.4695,7.5817,7.6088,7.5508,7.6088,7.6397,7.6397,7.6397,7.5817]},{"header":{"parameterUnit":"m.s-1","parameterCategory":1,"la1":30.6,"la2":29.2853,"lo1":-89.7004,"lo2":-87.6739,"dx":0.0162,"dy":0.0183,"nx":112,"ny":82,"refTime":"2022-12-13T18:00:00:Z","depth":0,"parameterNumber":3,"parameterNumberName":"V-component_of_WINDS"},"data":[0.0,0.0,0.0,0.0,0.0,0.0,0.0,0.0,0.0,0.0,0.0,0.0,0.0,0.0,0.0,0.0,0.0,0.0,0.0,0.0,0.0,0.0,0.0,0.0,0.0,0.0,0.0,0.0,0.0,0.0,0.0,0.0,0.0,0.0,0.0,0.0,0.0,0.0,0.0,0.0,0.0,0.0,0.0,0.0,0.0,0.0,0.0,0.0,0.0,0.0,0.0,0.0,0.0,0.0,0.0,0.0,0.0,0.0,0.0,0.0,0.0,0.0,0.0,0.0,0.0,0.0,0.0,0.0,0.0,0.0,0.0,0.0,0.0,0.0,0.0,0.0,0.0,0.0,0.0,0.0,0.0,0.0,0.0,0.0,0.0,0.0,0.0,0.0,0.0,0.0,-1.9023,-1.8954,-1.8057,-1.7671,-1.8065,-1.8174,-1.9081,-2.1141,0.0,0.0,0.0,0.0,0.0,0.0,0.0,0.0,0.0,0.0,0.0,0.0,0.0,0.0,0.0,0.0,0.0,0.0,0.0,0.0,0.0,0.0,0.0,0.0,0.0,0.0,0.0,0.0,0.0,0.0,0.0,0.0,0.0,0.0,0.0,0.0,0.0,0.0,0.0,0.0,0.0,0.0,0.0,0.0,0.0,0.0,0.0,0.0,0.0,0.0,0.0,0.0,0.0,0.0,0.0,0.0,0.0,0.0,0.0,0.0,0.0,0.0,0.0,0.0,0.0,0.0,0.0,0.0,0.0,0.0,0.0,0.0,0.0,0.0,0.0,0.0,0.0,0.0,0.0,0.0,0.0,0.0,0.0,0.0,0.0,0.0,0.0,0.0,0.0,0.0,0.0,0.0,0.0,0.0,0.0,0.0,0.0,0.0,0.0,0.0,0.0,0.0,0.0,0.0,-1.917,-1.8791,-1.8583,-1.8501,-1.8589,-1.896,-1.9554,-2.0465,0.0,0.0,0.0,0.0,0.0,0.0,0.0,0.0,0.0,0.0,0.0,0.0,0.0,0.0,0.0,0.0,0.0,0.0,0.0,0.0,0.0,0.0,0.0,0.0,0.0,0.0,0.0,0.0,0.0,0.0,0.0,0.0,0.0,0.0,0.0,0.0,0.0,0.0,0.0,0.0,0.0,0.0,0.0,0.0,0.0,0.0,0.0,0.0,0.0,0.0,0.0,0.0,0.0,0.0,0.0,0.0,0.0,0.0,0.0,0.0,0.0,0.0,0.0,0.0,0.0,0.0,0.0,0.0,0.0,0.0,0.0,0.0,0.0,0.0,0.0,0.0,0.0,0.0,0.0,0.0,0.0,0.0,0.0,0.0,0.0,0.0,0.0,0.0,0.0,0.0,0.0,0.0,0.0,0.0,0.0,0.0,0.0,0.0,0.0,0.0,0.0,0.0,0.0,-1.9607,-1.9331,-1.9113,-1.9091,-1.9091,-1.9091,-1.9288,-1.9758,-2.0694,-2.109,0.0,0.0,0.0,0.0,0.0,0.0,0.0,0.0,0.0,0.0,0.0,0.0,0.0,0.0,0.0,0.0,0.0,0.0,0.0,0.0,0.0,0.0,0.0,0.0,0.0,0.0,0.0,0.0,0.0,0.0,0.0,0.0,0.0,0.0,0.0,0.0,0.0,0.0,0.0,0.0,0.0,0.0,0.0,0.0,0.0,0.0,0.0,0.0,0.0,0.0,0.0,0.0,0.0,0.0,0.0,0.0,0.0,0.0,0.0,0.0,0.0,0.0,0.0,0.0,0.0,0.0,0.0,0.0,0.0,0.0,0.0,0.0,0.0,0.0,0.0,0.0,0.0,0.0,0.0,0.0,0.0,0.0,0.0,0.0,0.0,0.0,0.0,0.0,0.0,0.0,0.0,0.0,0.0,0.0,0.0,0.0,0.0,0.0,0.0,0.0,0.0,0.0,-1.9791,-1.9792,-1.9792,-1.9792,-1.9749,-1.964,-1.9619,-1.9984,-2.0805,-2.0805,0.0,0.0,0.0,0.0,0.0,0.0,0.0,0.0,0.0,0.0,0.0,0.0,0.0,0.0,0.0,0.0,0.0,0.0,0.0,0.0,0.0,0.0,0.0,0.0,0.0,0.0,0.0,0.0,0.0,0.0,0.0,0.0,0.0,0.0,0.0,0.0,0.0,0.0,0.0,0.0,0.0,0.0,0.0,0.0,0.0,0.0,0.0,0.0,0.0,0.0,0.0,0.0,0.0,0.0,0.0,0.0,0.0,0.0,0.0,0.0,0.0,0.0,0.0,0.0,0.0,0.0,0.0,0.0,0.0,0.0,0.0,0.0,0.0,0.0,0.0,0.0,0.0,0.0,0.0,0.0,0.0,0.0,0.0,0.0,0.0,0.0,0.0,0.0,0.0,0.0,0.0,0.0,0.0,0.0,0.0,0.0,0.0,0.0,0.0,0.0,0.0,0.0,-2.0892,-2.1081,-2.0871,-2.0892,-2.07,-2.0254,-2.0211,-2.0175,-1.9965,-1.9987,0.0,0.0,0.0,0.0,0.0,0.0,0.0,0.0,0.0,0.0,0.0,0.0,0.0,0.0,0.0,0.0,0.0,0.0,0.0,0.0,0.0,0.0,0.0,0.0,0.0,0.0,0.0,0.0,0.0,0.0,0.0,0.0,0.0,0.0,0.0,0.0,0.0,0.0,0.0,0.0,0.0,0.0,0.0,0.0,0.0,0.0,0.0,0.0,0.0,0.0,0.0,0.0,0.0,0.0,0.0,0.0,0.0,0.0,0.0,0.0,0.0,0.0,0.0,0.0,0.0,0.0,0.0,0.0,0.0,0.0,0.0,0.0,0.0,0.0,0.0,0.0,0.0,0.0,0.0,0.0,0.0,0.0,0.0,0.0,0.0,0.0,0.0,0.0,0.0,0.0,0.0,0.0,0.0,0.0,0.0,0.0,0.0,0.0,0.0,0.0,0.0,0.0,-2.1258,-2.1661,-2.1445,-2.1445,-2.1147,-2.0381,-2.0318,-2.0194,-1.99,0.0,0.0,0.0,0.0,0.0,0.0,0.0,0.0,0.0,0.0,0.0,0.0,0.0,0.0,0.0,0.0,0.0,0.0,0.0,0.0,0.0,0.0,0.0,0.0,0.0,0.0,0.0,0.0,0.0,0.0,0.0,0.0,0.0,0.0,0.0,0.0,0.0,0.0,0.0,0.0,0.0,0.0,0.0,0.0,0.0,0.0,0.0,0.0,0.0,0.0,0.0,0.0,0.0,0.0,0.0,0.0,0.0,0.0,0.0,0.0,0.0,0.0,0.0,0.0,0.0,0.0,0.0,0.0,0.0,0.0,0.0,0.0,0.0,0.0,0.0,0.0,0.0,0.0,0.0,0.0,0.0,0.0,0.0,0.0,0.0,0.0,0.0,0.0,0.0,0.0,0.0,0.0,0.0,0.0,0.0,0.0,0.0,0.0,0.0,0.0,0.0,0.0,-2.0414,-2.1396,-2.1913,-2.1766,-2.1692,-2.1376,-2.0618,-2.0555,-2.035,-1.9937,0.0,0.0,0.0,0.0,0.0,0.0,0.0,0.0,0.0,0.0,0.0,0.0,0.0,0.0,0.0,0.0,0.0,0.0,0.0,0.0,0.0,0.0,0.0,0.0,0.0,0.0,0.0,0.0,0.0,0.0,0.0,0.0,0.0,0.0,0.0,0.0,0.0,0.0,0.0,0.0,0.0,0.0,0.0,0.0,0.0,0.0,0.0,0.0,0.0,0.0,0.0,0.0,0.0,0.0,0.0,0.0,0.0,0.0,0.0,0.0,0.0,0.0,0.0,0.0,0.0,0.0,0.0,0.0,0.0,0.0,0.0,0.0,0.0,0.0,0.0,0.0,0.0,0.0,0.0,0.0,0.0,0.0,0.0,0.0,0.0,0.0,0.0,0.0,0.0,0.0,0.0,0.0,0.0,0.0,0.0,0.0,0.0,0.0,0.0,0.0,0.0,0.0,-2.0254,-2.1313,-2.2025,-2.1797,-2.1797,-2.1611,-2.1155,-2.1114,-2.0793,0.0,0.0,0.0,0.0,0.0,0.0,0.0,0.0,0.0,0.0,0.0,0.0,0.0,0.0,0.0,0.0,0.0,0.0,0.0,0.0,0.0,0.0,0.0,0.0,0.0,0.0,0.0,0.0,0.0,0.0,0.0,0.0,0.0,0.0,0.0,0.0,0.0,0.0,0.0,0.0,0.0,0.0,0.0,0.0,0.0,0.0,0.0,0.0,0.0,0.0,0.0,0.0,0.0,0.0,0.0,0.0,0.0,0.0,0.0,0.0,0.0,0.0,0.0,0.0,0.0,0.0,0.0,0.0,0.0,0.0,0.0,0.0,0.0,0.0,0.0,0.0,0.0,0.0,0.0,0.0,0.0,0.0,0.0,0.0,0.0,0.0,0.0,0.0,0.0,0.0,0.0,0.0,0.0,0.0,0.0,0.0,0.0,0.0,0.0,0.0,0.0,0.0,0.0,-1.9318,-2.0958,-2.1873,-2.1436,-2.1665,-2.1384,-2.0337,-2.0277,-1.978,-1.8702,0.0,0.0,0.0,0.0,0.0,0.0,0.0,0.0,0.0,0.0,0.0,0.0,0.0,0.0,0.0,0.0,0.0,0.0,0.0,0.0,0.0,0.0,0.0,0.0,0.0,0.0,0.0,0.0,0.0,0.0,0.0,0.0,0.0,0.0,0.0,0.0,0.0,0.0,0.0,0.0,0.0,0.0,0.0,0.0,0.0,0.0,0.0,0.0,0.0,0.0,0.0,0.0,0.0,0.0,0.0,0.0,0.0,0.0,0.0,0.0,0.0,0.0,0.0,0.0,0.0,0.0,0.0,0.0,0.0,0.0,0.0,0.0,0.0,0.0,0.0,0.0,0.0,0.0,0.0,0.0,0.0,0.0,0.0,0.0,0.0,0.0,0.0,0.0,0.0,0.0,0.0,0.0,0.0,0.0,0.0,0.0,0.0,0.0,0.0,0.0,0.0,0.0,-1.871,-2.0058,-2.0837,-2.0469,-2.0702,-2.0507,-1.9717,-1.9697,-1.9354,-1.859,0.0,0.0,0.0,0.0,0.0,0.0,0.0,0.0,0.0,0.0,0.0,0.0,0.0,0.0,0.0,0.0,0.0,0.0,0.0,0.0,0.0,0.0,0.0,0.0,0.0,0.0,0.0,0.0,0.0,0.0,0.0,0.0,0.0,0.0,0.0,0.0,0.0,0.0,0.0,0.0,0.0,0.0,0.0,0.0,0.0,0.0,0.0,0.0,0.0,0.0,0.0,0.0,0.0,0.0,0.0,0.0,0.0,0.0,0.0,0.0,0.0,0.0,0.0,0.0,0.0,0.0,0.0,0.0,0.0,0.0,0.0,0.0,0.0,0.0,0.0,0.0,0.0,0.0,0.0,0.0,0.0,0.0,0.0,0.0,0.0,0.0,0.0,0.0,0.0,0.0,0.0,0.0,0.0,0.0,0.0,0.0,0.0,0.0,0.0,0.0,0.0,0.0,-1.822,-1.8862,-1.9256,-1.9256,-1.9256,-1.9274,-1.9231,-1.9231,-1.9134,-1.8939,0.0,0.0,0.0,0.0,0.0,0.0,0.0,0.0,0.0,0.0,0.0,0.0,0.0,0.0,0.0,0.0,0.0,0.0,0.0,0.0,0.0,0.0,0.0,0.0,0.0,0.0,0.0,0.0,0.0,0.0,0.0,0.0,0.0,0.0,0.0,0.0,0.0,0.0,0.0,0.0,0.0,0.0,0.0,0.0,0.0,0.0,0.0,0.0,0.0,0.0,0.0,0.0,0.0,0.0,0.0,0.0,0.0,0.0,0.0,0.0,-1.9459,0.0,0.0,0.0,0.0,0.0,0.0,0.0,0.0,0.0,0.0,0.0,0.0,0.0,0.0,0.0,0.0,0.0,0.0,0.0,0.0,0.0,0.0,0.0,0.0,0.0,0.0,0.0,0.0,0.0,0.0,0.0,0.0,0.0,0.0,0.0,0.0,0.0,0.0,0.0,0.0,0.0,-1.7813,-1.8639,-1.9195,-1.8895,-1.9116,-1.9145,-1.8737,-1.8689,-1.8486,-1.8031,-1.9011,0.0,0.0,0.0,0.0,0.0,0.0,0.0,0.0,0.0,0.0,0.0,0.0,0.0,0.0,0.0,0.0,0.0,0.0,0.0,0.0,0.0,0.0,0.0,0.0,0.0,0.0,0.0,0.0,0.0,0.0,0.0,0.0,0.0,0.0,0.0,0.0,0.0,0.0,0.0,0.0,0.0,0.0,0.0,0.0,0.0,0.0,0.0,0.0,0.0,0.0,0.0,0.0,0.0,0.0,0.0,0.0,0.0,0.0,0.0,0.0,-1.9996,0.0,0.0,0.0,0.0,0.0,0.0,0.0,0.0,0.0,0.0,0.0,0.0,0.0,0.0,0.0,0.0,0.0,0.0,0.0,0.0,0.0,0.0,0.0,0.0,0.0,0.0,0.0,0.0,0.0,0.0,0.0,0.0,0.0,0.0,0.0,0.0,0.0,0.0,0.0,0.0,-1.7688,-1.7863,-1.8066,-1.8042,-1.8206,-1.826,-1.8143,-1.8159,-1.8074,-1.7989,-1.8494,0.0,0.0,0.0,0.0,0.0,0.0,0.0,0.0,0.0,0.0,0.0,0.0,0.0,0.0,0.0,0.0,0.0,0.0,0.0,0.0,0.0,0.0,0.0,0.0,0.0,0.0,0.0,0.0,0.0,0.0,0.0,0.0,0.0,0.0,0.0,0.0,0.0,0.0,0.0,0.0,0.0,0.0,0.0,0.0,0.0,0.0,0.0,0.0,0.0,0.0,0.0,0.0,0.0,-2.1954,-2.1753,-2.1481,-2.179,-2.1756,-2.1445,-2.0679,-2.07,-2.1238,-2.1238,0.0,0.0,0.0,0.0,0.0,0.0,0.0,0.0,0.0,0.0,0.0,0.0,0.0,0.0,0.0,0.0,0.0,0.0,0.0,0.0,0.0,0.0,-2.0585,-2.0236,-2.0925,-2.1241,-1.9782,0.0,0.0,0.0,0.0,0.0,0.0,0.0,0.0,0.0,0.0,0.0,-1.7605,-1.7069,-1.6905,-1.7318,-1.7318,-1.7445,-1.7826,-1.7858,-1.8017,-1.8367,-1.8242,-1.8245,0.0,0.0,0.0,0.0,0.0,0.0,0.0,0.0,0.0,0.0,0.0,0.0,0.0,0.0,0.0,0.0,0.0,0.0,0.0,0.0,0.0,0.0,0.0,0.0,0.0,0.0,0.0,0.0,0.0,0.0,0.0,0.0,-1.9084,-2.0105,0.0,0.0,0.0,0.0,0.0,0.0,0.0,0.0,0.0,0.0,0.0,0.0,0.0,-2.1291,-2.0585,-2.0918,-2.0959,-2.0689,-2.1084,-2.1383,-2.1735,-2.219,-2.2584,-2.2915,-2.2791,0.0,-2.1714,-2.1714,0.0,0.0,0.0,0.0,0.0,0.0,0.0,0.0,0.0,0.0,0.0,0.0,0.0,0.0,0.0,0.0,0.0,0.0,0.0,0.0,0.0,0.0,-2.0309,-1.9962,-2.0,-1.9944,-1.9462,-2.0032,-2.0359,-1.9061,-1.8823,-1.8542,0.0,0.0,0.0,0.0,0.0,0.0,-1.7475,-1.7006,-1.6984,-1.7636,-1.7445,-1.754,-1.8176,-1.8224,-1.8383,-1.8732,-1.9512,-1.9604,-1.8853,-1.9312,0.0,0.0,0.0,0.0,0.0,0.0,0.0,0.0,0.0,0.0,0.0,0.0,0.0,0.0,0.0,0.0,0.0,0.0,0.0,0.0,0.0,0.0,0.0,0.0,0.0,0.0,0.0,0.0,0.0,-1.9404,-2.0002,-2.0477,-2.077,-2.1366,0.0,0.0,0.0,0.0,0.0,0.0,0.0,0.0,0.0,-2.1408,-2.1894,-2.2004,-2.159,-2.2045,-2.217,-2.1983,-2.219,-2.2377,-2.2584,-2.2791,-2.2998,-2.3184,-2.3184,-2.2956,-2.2584,-2.2584,-2.2584,-2.2584,0.0,0.0,0.0,0.0,-2.2418,-2.2211,-2.2252,-2.2108,-2.1818,-2.1362,0.0,0.0,0.0,0.0,0.0,0.0,0.0,-1.8901,-1.9616,-1.975,-1.9806,-1.9861,-2.0126,-2.0237,-2.0053,-2.0381,-2.0255,-1.8724,-1.8996,-1.9179,-1.8121,-1.7891,0.0,0.0,0.0,-1.7529,-1.7751,-1.7368,-1.7302,-1.8001,-1.7938,-1.8049,-1.8557,-1.8589,-1.8653,-1.8812,-1.918,-1.9307,-1.8832,-1.9127,-1.9252,0.0,0.0,0.0,0.0,0.0,0.0,0.0,0.0,0.0,0.0,0.0,0.0,0.0,0.0,0.0,0.0,0.0,0.0,0.0,0.0,0.0,0.0,0.0,0.0,0.0,0.0,0.0,0.0,-2.0236,-2.0488,-2.0582,-2.0892,-2.1322,0.0,0.0,0.0,0.0,0.0,0.0,-2.1502,-2.1912,-2.1996,-2.169,-2.2205,-2.2501,-2.2501,-2.2832,-2.2956,-2.2832,-2.2695,-2.2737,-2.2839,-2.2716,-2.2734,-2.2855,-2.3103,-2.3021,-2.2835,-2.3104,-2.3184,-2.3184,-2.3184,-2.3184,-2.3205,-2.3308,-2.3143,-2.2915,-2.337,-2.3308,-2.2956,-2.2604,-2.2273,-2.1859,-2.1345,0.0,0.0,0.0,0.0,-1.8957,-1.9771,-1.9684,-1.9401,-1.949,-1.9822,-1.9947,-1.9644,-1.9901,-1.9869,-1.8596,-1.9065,-1.9336,-1.8361,-1.786,0.0,-1.8495,-1.7818,-1.7456,-1.7941,-1.7644,-1.7668,-1.8367,-1.8351,-1.8446,-1.8796,-1.8827,-1.8827,-1.8827,-1.8827,-1.8827,-1.8827,-1.8856,-1.9083,-1.9604,0.0,0.0,0.0,0.0,0.0,0.0,0.0,0.0,0.0,0.0,0.0,0.0,0.0,0.0,0.0,0.0,0.0,0.0,0.0,0.0,0.0,0.0,0.0,0.0,0.0,0.0,0.0,0.0,0.0,-2.0369,-2.0293,0.0,0.0,0.0,0.0,-2.0022,-2.044,-2.0757,-2.0854,-2.1624,-2.2213,-2.2418,-2.248,-2.2501,-2.2501,-2.2522,-2.2315,-2.188,-2.1411,-2.1406,-2.1734,-2.1296,-2.136,-2.1817,-2.2678,-2.2591,-2.1831,-2.2772,-2.3184,-2.3184,-2.3184,-2.3184,-2.3246,-2.3681,-2.3826,-2.3867,-2.4322,-2.4467,-2.4447,-2.4405,-2.3515,-2.2459,-2.2397,-2.2087,0.0,0.0,-2.187,-2.1425,-2.1898,-2.0761,-1.9252,-1.8579,-1.8434,-1.8177,-1.7084,-1.8062,-1.9213,-1.9127,-1.8918,-1.8538,-1.7946,0.0,-1.7871,-1.7432,-1.8014,-1.8297,-1.7841,-1.7818,-1.8017,-1.8732,-1.8494,-1.8446,-1.8796,-1.8827,-1.8827,-1.8827,-1.8827,-1.8827,-1.8827,-1.8796,-1.8969,-1.9428,-1.9553,0.0,0.0,0.0,0.0,0.0,0.0,0.0,0.0,0.0,0.0,0.0,0.0,0.0,0.0,0.0,0.0,0.0,0.0,0.0,0.0,0.0,0.0,0.0,0.0,0.0,0.0,0.0,0.0,-1.9163,-1.9106,0.0,-1.9487,-1.9279,-1.9278,-1.941,-2.0081,-2.0407,-2.0213,-2.1614,-2.2268,-2.2066,-2.2312,-2.2426,-2.2426,-2.2116,-2.192,-2.1767,-2.158,-2.1558,-2.1689,-2.1489,-2.1548,-2.1695,-2.205,-2.205,-2.1765,-2.2082,-2.2227,-2.2313,-2.2913,-2.2742,-2.2246,-2.2399,-2.2457,-2.2476,-2.2629,-2.2668,-2.2725,-2.2993,-2.2694,-2.237,-2.253,-2.2069,-2.1585,-2.207,-2.1195,-2.0247,-2.0772,-1.9745,-1.8557,-1.8081,-1.7795,-1.7477,-1.6857,-1.7363,-1.8022,-1.8235,-1.87,-1.8819,-1.8343,-1.8062,-1.8011,-1.8396,-1.8262,-1.8046,-1.8153,-1.8112,-1.8303,-1.878,-1.8716,-1.8684,-1.8812,-1.8827,-1.8827,-1.8827,-1.905,-1.9177,-1.9177,-1.9383,-1.9638,-2.0022,-1.989,-1.9877,0.0,0.0,0.0,0.0,0.0,0.0,0.0,0.0,0.0,0.0,0.0,0.0,0.0,0.0,0.0,0.0,0.0,0.0,0.0,0.0,0.0,0.0,0.0,0.0,0.0,-1.8769,-1.834,-1.8815,-1.837,-1.8279,-1.8679,-1.8357,-1.8184,-1.8248,-1.8999,-1.9462,-1.9403,-2.08,-2.159,-2.1511,-2.1762,-2.2007,-2.2141,-2.1813,-2.1695,-2.1695,-2.1427,-2.1248,-2.1248,-2.0889,-2.0709,-2.0709,-2.1069,-2.1069,-2.0799,-2.1427,-2.1338,-2.0889,-2.212,-2.2227,-2.1695,-2.1695,-2.1786,-2.1915,-2.1953,-2.2007,-2.2044,-2.2318,-2.2409,-2.2446,-2.2608,-2.2321,-2.1795,-2.2167,-2.1199,-2.0128,-2.0424,-1.9553,-1.8573,-1.8208,-1.8049,-1.7826,-1.7223,-1.7556,-1.7938,-1.7795,-1.8284,-1.8596,-1.8462,-1.8116,-1.8024,-1.8543,-1.8311,-1.8033,-1.8271,-1.8398,-1.8573,-1.8796,-1.8827,-1.8827,-1.8827,-1.8716,-1.8748,-1.9002,-1.9129,-1.9288,-1.9526,-1.9415,-1.9511,-1.986,-1.9749,-1.9882,-2.0149,0.0,0.0,0.0,0.0,0.0,0.0,0.0,0.0,0.0,0.0,0.0,0.0,0.0,0.0,0.0,0.0,0.0,0.0,0.0,0.0,0.0,0.0,0.0,-1.934,-1.8653,-1.8318,-1.9067,-1.8205,-1.7569,-1.7946,-1.6877,-1.6349,-1.6683,-1.7196,-1.7792,-1.8445,-1.9324,-2.0181,-2.0966,-2.1021,-2.1204,-2.1695,-2.1606,-2.1606,-2.1606,-2.0709,-2.0257,-2.0257,-1.9271,-1.8827,-1.8827,-1.9803,-1.9729,-1.8936,-2.0817,-2.0546,-1.9044,-2.0907,-2.1606,-2.1606,-2.1606,-2.1861,-2.2171,-2.2441,-2.2586,-2.2586,-2.2604,-2.2604,-2.2604,-2.2623,-2.2623,-2.2623,-2.2623,-2.1977,-2.1326,-2.1326,-2.0309,-1.9304,-1.8939,-1.9113,-1.9082,-1.8001,-1.8605,-1.905,-1.7985,-1.7795,-1.7906,-1.824,-1.8017,-1.7795,-1.7795,-1.8097,0.0,-1.8319,-1.8621,-1.8827,-1.8812,-1.8827,-1.8827,-1.8827,-1.8526,-1.8637,-1.9336,-1.9066,-1.9177,-1.986,-1.8923,-1.8541,-1.8891,-1.9209,-1.9841,-2.0466,0.0,0.0,0.0,0.0,0.0,0.0,0.0,0.0,0.0,0.0,0.0,0.0,0.0,0.0,0.0,0.0,0.0,0.0,0.0,0.0,0.0,-1.7671,-1.6839,-1.7447,-1.7106,-1.6818,-1.7017,-1.673,-1.6618,-1.6652,-1.6413,-1.6238,-1.6349,-1.7529,-1.834,-1.8479,-1.984,-2.0765,-2.0985,-2.066,-2.0587,-2.0709,-1.9985,-1.9637,-1.9637,-1.9363,-1.918,-1.918,-1.892,-1.8827,-1.8827,-1.9088,-1.9249,-1.9319,-1.9772,-1.9825,-1.9718,-2.0371,-2.0257,-1.9637,-1.9637,-1.987,-2.0218,-2.0301,-2.05,-2.0749,-2.0933,-2.1015,-2.1065,-2.1329,-2.1412,-2.1412,-2.1412,-2.1211,-2.1026,-2.1026,-2.0568,-1.9955,-1.9368,-1.9304,-1.9082,-1.8001,-1.8414,-1.8812,-1.8255,-1.8367,-1.8494,-1.8319,-1.8224,-1.824,-1.8494,-1.8621,-1.8684,-1.8684,-1.8764,-1.8732,-1.8478,-1.8669,-1.8827,-1.8827,-1.8986,-1.9272,-1.9701,-1.9876,-2.0051,-2.0241,-2.021,-2.0241,-2.0337,-2.0262,-2.0295,0.0,0.0,0.0,0.0,0.0,0.0,0.0,0.0,0.0,0.0,0.0,0.0,0.0,0.0,0.0,0.0,0.0,0.0,0.0,0.0,0.0,0.0,-1.6884,-1.6304,-1.6353,-1.6167,-1.6095,-1.6397,-1.6301,-1.6269,-1.6412,-1.6428,-1.6492,-1.6651,-1.7515,-1.8128,-1.8427,-1.9366,-1.9937,-2.011,-1.9793,-1.9637,-1.9637,-1.9088,-1.8827,-1.8827,-1.8827,-1.8907,-1.905,-1.905,-1.9129,-1.9256,-1.9256,-1.9383,-1.9574,-1.9574,-1.9685,-1.9925,0.0,0.0,0.0,0.0,-1.9622,-1.9828,-1.9971,-2.0146,-2.0337,-2.0543,-2.0607,-2.0655,-2.0861,-2.0925,-2.0925,-2.0925,-2.0813,-2.0702,-2.0702,-2.0432,-2.0035,-1.9495,-1.959,-1.9511,-1.8446,-1.8764,-1.9113,-1.8621,-1.8684,0.0,-1.8557,-1.8526,-1.8589,-1.8796,-1.8827,-1.8827,-1.8827,-1.8955,-1.897,-1.878,-1.905,-1.9256,-1.9256,-1.9336,0.0,0.0,0.0,-2.0114,-1.9971,-2.0162,0.0,0.0,0.0,-2.0243,-2.0687,-2.05,0.0,0.0,-2.0642,-2.0725,0.0,0.0,0.0,0.0,0.0,0.0,0.0,0.0,0.0,0.0,0.0,0.0,0.0,0.0,0.0,0.0,-1.63,-1.6047,-1.5777,-1.5745,-1.5968,-1.6603,-1.6428,-1.6397,-1.6698,-1.6778,-1.6905,-1.7191,-1.7334,-1.7636,-1.8208,-1.8319,0.0,0.0,0.0,-1.8843,-1.8891,-1.8891,-1.8907,-1.8939,-1.8939,-1.9113,-1.9431,-1.9431,-1.959,-1.986,-1.986,-1.9892,-1.9924,-1.9924,-1.9955,-1.9971,-1.9892,-1.986,-1.9908,-2.021,-2.0353,-2.0432,-2.075,0.0,0.0,-2.0925,-2.0925,-2.0925,-2.0925,-2.0925,-2.0925,-2.0925,-2.0702,-2.0448,-2.0448,-2.0226,-1.9892,-1.9574,-1.9987,-2.0162,-1.9113,-1.9399,-1.9654,-1.8955,-1.8859,-1.8891,-1.8891,-1.8859,-1.8843,-1.8875,-1.8891,-1.8923,-1.8986,-1.9288,-1.9495,-1.9495,-1.9781,0.0,-1.9987,-1.9749,-1.9876,-2.0527,-2.0273,-1.9955,-1.9622,-1.9606,-1.959,-1.9542,-1.9542,-2.0003,-2.0925,-2.0925,-2.0925,-2.0877,-2.0371,-2.0731,0.0,0.0,0.0,0.0,0.0,0.0,0.0,0.0,0.0,0.0,0.0,0.0,0.0,0.0,0.0,-1.7184,-1.6398,-1.5856,-1.6079,-1.6111,-1.6158,-1.6285,-1.6508,-1.6667,-1.673,-1.7,-1.708,-1.6857,-1.762,-1.8033,-1.7874,-1.8414,-1.8764,-1.8827,-1.8827,-1.897,-1.9256,-1.9272,-1.9399,-1.9669,0.0,0.0,-1.9765,-1.9765,-1.9812,-1.986,-1.986,-2.0019,-2.0289,-2.0289,-2.0464,-2.0655,-2.0083,-1.986,-1.9876,-1.994,-2.0146,-2.04,-2.0464,-2.0686,-2.0925,-2.0925,-2.0925,-2.0925,-2.0925,-2.0925,0.0,-2.0925,-2.0877,-2.0813,-2.0813,-2.0766,-2.0623,-2.0273,-2.0512,-2.0527,-1.9495,-1.959,-1.9654,-1.8955,-1.9066,-1.9272,-1.9272,-1.9018,-1.8923,-1.9225,-1.9272,-1.9463,-2.0019,-2.0146,-2.0194,-2.0194,-2.0512,-2.0718,-2.0718,-2.0925,-2.1227,-2.1624,-2.1592,-2.1401,-2.1068,-2.1052,-2.0909,-2.0623,-2.0623,-2.0718,-2.0925,-2.0925,-2.0925,-2.0909,-2.0797,-2.0752,0.0,0.0,0.0,0.0,0.0,0.0,0.0,0.0,0.0,0.0,0.0,-1.6493,-1.6776,0.0,-1.6509,-1.6608,-1.6393,-1.6206,-1.6206,-1.6365,-1.6476,-1.6476,-1.6635,-1.673,-1.673,-1.7064,-1.727,-1.7254,-1.7906,-1.8303,-1.8303,-1.8812,-1.9098,-1.9098,-1.9256,-1.9431,-1.9622,-1.9622,-1.9701,-1.986,-1.986,-1.9955,-2.013,-2.013,-2.0226,-2.04,-2.04,-2.0496,-2.0655,-2.0655,-2.0766,-2.0893,-2.0527,-2.04,-2.04,-2.04,-2.0512,-2.0655,-2.0655,-2.0766,-2.0925,-2.0925,-2.0925,-2.0925,-2.0925,-2.0925,-2.0925,-2.0925,-2.0925,-2.0925,-2.0925,-2.0925,-2.0877,-2.0702,-2.0798,-2.0734,-2.0035,-2.0019,-1.9971,-1.9447,-1.9495,-1.9669,-1.9844,-1.9733,-1.9669,-1.986,-1.9876,-2.0067,-2.0591,-2.0813,-2.0925,-2.0925,-2.1227,-2.1433,-2.1433,-2.1608,-2.1703,-2.1703,-2.1703,-2.1624,-2.1465,-2.1449,-2.1449,-2.1433,-2.1274,-2.1179,-2.1179,-2.1004,-2.0925,-2.0925,-2.0925,-2.0829,0.0,0.0,0.0,0.0,0.0,0.0,0.0,-1.681,-1.6969,-1.6603,-1.6587,-1.654,-1.6254,-1.6492,-1.6555,-1.5983,-1.6365,-1.6635,-1.6349,-1.6555,-1.673,-1.673,-1.673,-1.6762,-1.6841,-1.7159,-1.7477,-1.7747,-1.8224,-1.8605,-1.8812,-1.9241,-1.9463,-1.9463,-1.9733,-1.9892,-1.9971,-1.9971,-2.0003,-2.0067,-2.0067,-2.0226,-2.0496,-2.0496,-2.0655,-2.0925,-2.0925,-2.0956,-2.102,-2.102,-2.1068,-2.1115,-2.1052,-2.1068,-2.1099,-2.0972,-2.0925,-2.0925,-2.0925,-2.0925,-2.0925,-2.0925,-2.0925,-2.0925,-2.0925,-2.0925,-2.0941,-2.1004,-2.0972,-2.0941,-2.1004,-2.0972,-2.0941,-2.1004,-2.0972,-2.0845,-2.0559,-2.0448,-2.0289,-1.994,-1.9924,-2.0051,-2.0337,-2.0395,-2.0389,-2.0607,-2.0591,-2.075,-2.1179,-2.1481,-2.1671,-2.1751,-2.2005,-2.2132,-2.2069,-2.2053,-2.191,-2.1576,-2.1608,-2.1624,-2.1544,-2.1608,-2.1751,-2.1957,-2.1687,-2.1544,-2.1544,-2.1258,-2.1084,-2.102,-2.102,-2.0988,-1.6984,-1.6953,-1.6555,-1.6269,-1.6508,-1.6619,0.0,-1.6063,-1.6222,-1.5872,-1.6047,-1.6254,-1.6222,-1.6492,-1.6714,-1.6635,-1.6683,-1.6714,-1.6683,-1.6714,-1.673,-1.673,-1.673,-1.6857,-1.7191,-1.7525,-1.7731,-1.7763,-1.8684,-1.9129,-1.8843,-1.9447,-1.9812,-1.9812,-1.9844,-2.0019,-2.0337,-2.0337,-2.0496,-2.0798,-2.0798,-2.0829,-2.0861,-2.0861,-2.0877,-2.0925,-2.0925,-2.1099,-2.1385,-2.1385,-2.156,-2.1814,-2.1513,-2.1576,-2.1767,-2.1147,-2.0925,-2.0925,-2.0925,-2.0925,-2.0925,-2.0925,-2.0925,-2.0925,-2.0925,-2.0925,-2.0988,-2.1306,-2.1163,-2.0988,-2.1306,-2.1163,-2.1004,-2.1322,-2.1147,-2.0909,-2.0877,-2.0607,-2.0289,-1.994,-2.0114,-2.0353,-2.0384,-2.0292,-2.0377,-2.1128,-2.1338,-2.1576,-2.2227,-2.2355,-2.2498,-2.2799,-2.2879,-2.2768,-2.245,-2.2434,-2.2275,-2.1926,-2.2196,-2.2227,-2.191,-2.2196,-2.2243,-2.1957,-2.1926,-2.191,-2.191,-2.1862,-2.1687,-2.1385,-2.1385,-2.1227,-1.654,-1.6841,-1.6921,-1.6349,-1.6635,-1.6921,-1.6412,-1.6571,-1.673,-1.6365,-1.6412,-1.6508,-1.6508,-1.6635,-1.673,-1.673,-1.673,-1.673,-1.673,-1.673,-1.673,-1.673,-1.649,-1.6592,-1.7254,-1.7763,-1.816,-1.8367,-1.9177,-1.959,-1.9447,-1.9908,-2.0178,-2.0178,-2.0369,-2.0559,-2.0702,-2.0702,-2.0782,-2.0925,-2.0925,-2.1036,-2.1227,-2.1227,-2.1338,-2.1528,-2.1528,-2.1608,-2.1751,-2.1751,-2.183,-2.1941,-2.1798,-2.183,-2.1894,-2.1401,-2.1354,-2.1528,-2.1528,-2.1528,-2.1497,-2.129,-2.1227,-2.1195,-2.0988,-2.0925,-2.1004,-2.1354,-2.1338,-2.1306,-2.1655,-2.1481,-2.137,-2.1926,-2.1481,-2.1036,-2.1433,-2.0669,-1.9944,-1.979,-1.9475,-1.9317,-1.9494,-1.943,-1.957,-2.0204,-2.0234,-2.058,-2.1795,-2.1647,-2.1462,-2.1601,-2.1339,-2.1175,-2.1041,-2.1541,-2.1846,-2.1524,-2.2072,-2.2418,-2.2275,-2.2402,-2.2513,-2.2577,-2.237,-2.2259,-2.2259,-2.2053,-2.1878,-2.1751,-2.1751,-2.1783,-1.6714,-1.7016,-1.7239,-1.6524,-1.6746,-1.7064,-1.6794,-1.6937,-1.7048,-1.6794,-1.673,-1.673,-1.673,-1.673,-1.673,-1.673,-1.673,-1.673,-1.673,-1.6562,-1.6542,-1.6542,-1.6159,-1.6211,-1.685,-1.7637,-1.8438,-1.9082,-1.9669,-2.0003,-2.0003,-2.0353,-2.0543,-2.0543,-2.0782,-2.0972,-2.1068,-2.1068,-2.1115,-2.1211,-2.1211,-2.1338,-2.1592,-2.1592,-2.1719,-2.1957,-2.1957,-2.2021,-2.21,-2.21,-2.2164,-2.2243,-2.2148,-2.2164,-2.2212,-2.1862,-2.183,-2.1957,-2.1957,-2.1957,-2.191,-2.1671,-2.1592,-2.1544,-2.129,-2.1211,-2.1274,-2.164,-2.1671,-2.1671,-2.2005,-2.1846,-2.1613,-2.1885,-2.1368,-2.081,-2.1171,-2.0242,-1.939,-1.9479,-1.8898,-1.8492,-1.8702,-1.86,-1.8617,-1.896,-1.8659,-1.9071,-2.0823,-2.067,-2.045,-2.045,-2.0186,-1.9991,-1.9794,-2.0783,-2.1361,-2.0922,-2.1883,-2.2482,-2.2482,-2.2577,-2.2752,-2.3006,-2.2768,-2.2625,-2.2625,-2.237,-2.2196,-2.21,-2.2212,-2.2339,-1.8001,-1.7747,-1.7588,-1.6889,-1.673,-1.6746,-1.673,-1.6746,-1.6746,-1.673,-1.673,-1.673,-1.673,-1.673,-1.673,-1.673,-1.673,-1.673,-1.673,-1.6347,-1.6119,-1.6119,-1.5791,-1.5659,-1.6057,-1.7014,-1.8331,-1.9781,-2.0178,-2.0369,-2.0369,-2.0718,-2.0909,-2.0909,-2.0909,-2.1084,-2.1433,-2.1433,-2.1592,-2.1926,-2.1926,-2.1926,-2.1941,-2.1941,-2.1941,-2.1957,-2.1957,-2.2148,-2.2466,-2.2466,-2.2672,-2.2942,-2.2609,-2.2672,-2.2942,-2.2593,-2.2243,-2.1957,-2.1957,-2.1957,-2.1957,-2.1941,-2.1941,-2.1941,-2.1926,-2.1926,-2.2005,-2.2355,-2.2212,-2.2021,-2.2386,-2.2212,-2.1726,-2.097,-2.0512,-2.0042,-1.9495,-1.8856,-1.8506,-1.88,-1.8618,-1.8422,-1.8436,-1.7943,-1.7603,-1.7603,-1.6951,-1.7148,-1.9318,-1.9821,-1.9878,-1.9878,-2.0174,-2.013,-1.9709,-2.0594,-2.0922,-2.0595,-2.1744,-2.2482,-2.2482,-2.2815,-2.3006,-2.3022,-2.3006,-2.299,-2.299,-2.299,-2.2815,-2.2482,-2.2815,-2.2799,-1.7874,-1.7429,-1.7032,-1.6794,-1.673,-1.673,-1.673,-1.673,-1.673,-1.673,-1.7096,-1.7429,-1.7429,-1.7429,-1.7429,-1.7429,-1.68,-1.6308,-1.6308,-1.5994,-1.5658,-1.5658,-1.5314,-1.551,-1.6578,-1.7003,-1.7534,-1.8262,-1.8789,-1.9096,-1.9096,-1.9199,-1.9345,-1.9459,-1.9459,-1.9938,-2.0818,-2.0818,-2.1202,-2.1957,-2.2196,-2.2307,-2.2323,-2.2545,-2.2307,-2.175,-2.2434,-2.2386,-2.1918,-2.2607,-2.2911,-2.3006,-2.2879,-2.2911,-2.3006,-2.2879,-2.2768,-2.2656,-2.2656,-2.2656,-2.2625,-2.2386,-2.2307,-2.2259,-2.2037,-2.1957,-2.1866,-2.1433,-2.1338,-2.1349,-2.0885,-2.0603,-2.0419,-2.0183,-1.9685,-1.922,-1.9104,-1.8441,-1.7916,-1.8009,-1.7559,-1.7296,-1.7296,-1.7164,-1.7006,-1.7006,-1.7641,-1.8043,-1.8237,-1.8931,-1.9319,-1.8931,-1.8752,-1.8644,-1.8555,-1.9535,-2.0074,-1.9979,-2.1,-2.1423,-2.122,-2.19,-2.2215,-2.2085,-2.2667,-2.3022,-2.3022,-2.3022,-2.2958,-2.2847,-2.3197,-2.3419,-1.7811,-1.7445,-1.708,-1.6953,-1.6921,-1.6889,-1.6762,-1.673,-1.673,-1.673,-1.7191,-1.7636,-1.7747,-1.7604,-1.7595,-1.8112,-1.6964,-1.6126,-1.6491,-1.5866,-1.5386,-1.5278,-1.4981,-1.514,-1.5976,-1.6202,-1.6779,-1.7806,-1.8198,-1.8422,-1.8422,-1.852,-1.8568,-1.8763,-1.8874,-1.941,-2.0274,-2.0274,-2.0663,-2.146,-2.1562,-2.1668,-2.1668,-2.1896,-2.1759,-2.1174,-2.1759,-2.1645,-2.1174,-2.1759,-2.1987,-2.1987,-2.1987,-2.1987,-2.1987,-2.1987,-2.1987,-2.2101,-2.278,-2.3022,-2.2862,-2.2401,-2.2212,-2.2069,-2.1505,-2.1334,-2.1224,-2.067,-2.0618,-2.0608,-2.0161,-1.9878,-1.9682,-1.9456,-1.9138,-1.8671,-1.8343,-1.778,-1.7461,-1.7461,-1.6981,-1.6706,-1.6706,-1.6706,-1.6706,-1.6706,-1.7715,-1.8186,-1.755,-1.8173,-1.858,-1.8197,-1.8114,-1.8022,-1.8022,-1.9018,-1.9715,-1.9715,-2.0563,-2.0962,-2.0767,-2.1715,-2.2082,-2.1974,-2.2912,-2.3387,-2.3387,-2.3387,-2.3387,-2.3387,-2.3753,-2.4039,-1.7858,-1.7763,-1.7699,-1.7382,-1.7286,-1.7191,-1.6841,-1.6746,-1.6746,-1.6762,-1.7064,-1.7429,-1.7763,-1.7213,-1.716,-1.8533,-1.7139,-1.6099,-1.6948,-1.5992,-1.5145,-1.4888,-1.4774,-1.4606,-1.4364,-1.4811,-1.5934,-1.8039,-1.8304,-1.8331,-1.8254,-1.8531,-1.8697,-1.8711,-1.8988,-1.9278,-1.9709,-1.9709,-1.9962,-2.027,-2.027,-2.027,-2.027,-2.027,-2.027,-2.027,-2.027,-2.027,-2.027,-2.027,-2.0284,-2.0298,-2.0298,-2.0298,-2.0312,-2.0312,-2.0312,-2.0543,-2.226,-2.2925,-2.2667,-2.1858,-2.1502,-2.1388,-2.05,-2.027,-2.027,-2.0256,-2.0032,-1.9878,-2.0071,-1.9932,-1.9583,-1.8704,-1.8672,-1.8545,-1.7359,-1.708,-1.7092,-1.7092,-1.6899,-1.6742,-1.6742,-1.6742,-1.6742,-1.6742,-1.7165,-1.7382,-1.7129,-1.7346,-1.7624,-1.7865,-1.8143,-1.8324,-1.8336,-1.917,-1.9646,-1.9646,-2.0497,-2.0846,-2.0832,-2.1915,-2.2513,-2.2498,-2.3448,-2.4055,-2.4055,-2.4055,-2.4055,-2.4086,-2.4436,-2.4611,-1.7795,-1.7763,-1.7747,-1.7668,-1.7461,-1.7254,-1.7159,-1.6937,-1.681,-1.708,-1.762,-1.8144,-1.8494,-1.7903,-1.7597,-1.7948,-1.6387,-1.5272,-1.547,-1.4974,-1.4629,-1.4777,-1.4546,-1.4533,-1.4871,-1.5028,-1.545,-1.6197,-1.6411,-1.6712,-1.7127,-1.7215,-1.7353,-1.7554,-1.7629,-1.8135,-1.911,-1.98,-2.0186,-2.027,-2.027,-2.027,-2.027,-2.027,-1.9924,-1.9345,-2.004,-1.9924,-1.9345,-2.004,-2.0396,-2.0475,-2.0475,-2.0614,-2.0823,-2.0823,-2.0823,-2.0942,-2.1403,-2.1219,-2.096,-2.073,-2.0615,-2.0615,-2.0385,-2.027,-2.0113,-1.9193,-1.9004,-1.9008,-1.8389,-1.8119,-1.8068,-1.7848,-1.7633,-1.7461,-1.6851,-1.696,-1.7092,-1.7092,-1.7201,-1.7286,-1.7286,-1.7286,-1.7286,-1.7286,-1.7394,-1.7382,-1.7129,-1.7672,-1.8106,-1.8179,-1.842,-1.8662,-1.8855,-1.912,-1.9247,-1.9247,-1.9499,-1.9525,-1.9324,-2.0178,-2.0686,-2.0442,-2.2125,-2.2974,-2.2974,-2.37,-2.4182,-2.4452,-2.4817,-2.5119,-1.7763,-1.7763,-1.7763,-1.7763,-1.7525,-1.7318,-1.7461,-1.7334,-1.7202,-1.7218,-1.8108,-1.8688,-1.835,-1.7804,-1.7574,-1.8103,-1.6239,-1.4912,-1.5292,-1.4958,-1.463,-1.4545,-1.4702,-1.4896,-1.5089,-1.5318,-1.5608,-1.5994,-1.6054,-1.6199,-1.6501,-1.6742,-1.6936,-1.7092,-1.7201,-1.7566,-1.8298,-1.8765,-1.9113,-1.9113,-1.9113,-1.9113,-1.9113,-1.9113,-1.8829,-1.8475,-1.9063,-1.9024,-1.8665,-1.9259,-1.9469,-1.9614,-1.9614,-1.9706,-1.985,-1.985,-1.985,-1.985,-1.985,-1.964,-1.9496,-1.9838,-2.0074,-1.9956,-1.9496,-1.9378,-1.9233,-1.8606,-1.8462,-1.8395,-1.7924,-1.7744,-1.7684,-1.7805,-1.772,-1.7551,-1.7274,-1.7334,-1.7406,-1.7286,-1.7382,-1.7479,-1.7479,-1.7479,-1.7479,-1.7479,-1.7479,-1.743,-1.7286,-1.7865,-1.8336,-1.8456,-1.8698,-1.8915,-1.906,-1.9072,-1.9072,-1.9072,-1.9072,-1.9012,-1.8867,-1.9852,-2.0276,-2.0094,-2.1572,-2.2393,-2.2523,-2.3137,-2.3548,-2.3878,-2.4074,-2.4254,-1.7628,-1.7763,-1.7826,-1.7779,-1.7525,-1.7382,-1.766,-1.762,-1.7539,-1.7175,-1.8148,-1.8752,-1.7864,-1.7251,-1.7218,-1.8233,-1.6289,-1.506,-1.5738,-1.5432,-1.492,-1.4558,-1.5065,-1.5403,-1.527,-1.568,-1.6139,-1.661,-1.6501,-1.6416,-1.6441,-1.6887,-1.7141,-1.7141,-1.737,-1.7479,-1.7479,-1.7479,-1.7479,-1.7479,-1.7479,-1.7479,-1.7479,-1.7515,-1.766,-1.7877,-1.7913,-1.807,-1.83,-1.83,-1.8312,-1.8348,-1.8348,-1.836,-1.8396,-1.8396,-1.8396,-1.8396,-1.8396,-1.8396,-1.8507,-1.9267,-1.9485,-1.9363,-1.8533,-1.83,-1.83,-1.83,-1.8118,-1.7998,-1.8275,-1.8143,-1.7986,-1.8239,-1.8263,-1.8155,-1.7877,-1.7817,-1.7756,-1.7527,-1.7479,-1.7479,-1.7479,-1.7479,-1.7479,-1.7479,-1.7479,-1.7491,-1.7527,-1.795,-1.8336,-1.8601,-1.8867,-1.9036,-1.9072,-1.9072,-1.9072,-1.9072,-1.9072,-1.9072,-1.9072,-1.9954,-2.0475,-2.0514,-2.1402,-2.206,-2.2365,-2.2493,-2.2646,-2.2953,-2.2953,-2.2967,-1.6657,-1.7327,-1.8144,-1.7842,-1.7525,-1.7274,-1.7265,-1.6996,-1.6773,-1.6876,-1.6933,-1.707,-1.7344,-1.6674,-1.6143,-1.6534,-1.5758,-1.504,-1.5242,-1.4996,-1.4992,-1.5547,-1.5354,-1.5415,-1.6018,-1.6163,-1.6247,-1.6344,-1.673,-1.7044,-1.7261,-1.7358,-1.7418,-1.7418,-1.7455,-1.7479,-1.7479,-1.7479,-1.7479,-1.7479,-1.7479,-1.7479,-1.7491,-1.7708,-1.7829,-1.7889,-1.8118,-1.8251,-1.83,-1.83,-1.842,-1.8613,-1.8613,-1.8746,-1.8939,-1.8939,-1.8939,-1.8939,-1.8939,-1.8939,-1.8867,-1.868,-1.8533,-1.8533,-1.8287,-1.83,-1.83,-1.83,-1.8263,-1.8275,-1.8553,-1.842,-1.8227,-1.8275,-1.8118,-1.7877,-1.7612,-1.7551,-1.7539,-1.7491,-1.7479,-1.7479,-1.7479,-1.7479,-1.7479,-1.7479,-1.7479,-1.7563,-1.7781,-1.7889,-1.8046,-1.8336,-1.8601,-1.8843,-1.906,-1.9072,-1.9072,-1.9072,-1.9072,-1.9072,-1.9072,-1.9328,-1.9426,-1.9646,-2.0696,-2.1357,-2.1635,-2.2421,-2.2967,-2.3259,-2.3259,-2.3398,-1.6009,-1.6477,-1.707,-1.6907,-1.6624,-1.6433,-1.6979,-1.6944,-1.6763,-1.6751,-1.7114,-1.7313,-1.6887,-1.65,-1.6299,-1.6186,-1.5594,-1.5113,-1.5113,-1.5113,-1.527,-1.5644,-1.5704,-1.5922,-1.6453,-1.6622,-1.6754,-1.6899,-1.7153,-1.7286,-1.7286,-1.7406,-1.7479,-1.7479,-1.7479,-1.7479,-1.7479,-1.7479,-1.7479,-1.7479,-1.7479,-1.7551,-1.7696,-1.7817,-1.8034,-1.83,-1.8432,-1.8577,-1.8698,-1.8698,-1.877,-1.8891,-1.8891,-1.8963,-1.9072,-1.9072,-1.9072,-1.9072,-1.9072,-1.9072,-1.9036,-1.8782,-1.8698,-1.8698,-1.8698,-1.8698,-1.8698,-1.8698,-1.8698,-1.8734,-1.8855,-1.8794,-1.8662,-1.8529,-1.8179,-1.7805,-1.7539,-1.7479,-1.7479,-1.7479,-1.7479,-1.7479,-1.7479,-1.7479,-1.7479,-1.7479,-1.7599,-1.7732,-1.7853,-1.8118,-1.8348,-1.8481,-1.8734,-1.8939,-1.906,-1.9072,-1.9072,-1.9072,-1.9072,-1.9132,-1.9277,-1.9277,-1.941,-1.9676,-2.0216,-2.0605,-2.0881,-2.127,-2.168,-2.1965,-2.1965,-2.2043,-1.5383,-1.5694,-1.5993,-1.5937,-1.5729,-1.5708,-1.6539,-1.6746,-1.6742,-1.6587,-1.7264,-1.7459,-1.6343,-1.6253,-1.6394,-1.6177,-1.5667,-1.527,-1.527,-1.5499,-1.5692,-1.5753,-1.6115,-1.6501,-1.6839,-1.7056,-1.7261,-1.7467,-1.7479,-1.7394,-1.7189,-1.737,-1.7479,-1.7479,-1.7479,-1.7479,-1.7479,-1.7479,-1.7479,-1.7479,-1.7539,-1.7672,-1.7877,-1.7998,-1.8275,-1.8686,-1.8746,-1.8891,-1.9072,-1.9072,-1.9072,-1.9072,-1.9072,-1.9072,-1.9072,-1.9072,-1.9072,-1.9072,-1.9072,-1.9072,-1.9072,-1.9072,-1.9072,-1.9072,-1.9072,-1.9072,-1.9072,-1.9072,-1.9072,-1.9072,-1.9072,-1.9072,-1.9,-1.8674,-1.8179,-1.7732,-1.7527,-1.7479,-1.7479,-1.7479,-1.7479,-1.7479,-1.7479,-1.7527,-1.7563,-1.7563,-1.7793,-1.7986,-1.8034,-1.842,-1.871,-1.8758,-1.8951,-1.9072,-1.9072,-1.9072,-1.9072,-1.9072,-1.9132,-1.9253,-1.9458,-1.9531,-1.9688,-1.9965,-1.9977,-2.0098,-2.0364,-2.0364,-2.046,-2.0665,-2.0665,-2.0665,-1.4578,-1.5332,-1.5951,-1.5659,-1.5486,-1.5527,-1.577,-1.5771,-1.5818,-1.6008,-1.5891,-1.5793,-1.5883,-1.5555,-1.5397,-1.5846,-1.5919,-1.5813,-1.5813,-1.6042,-1.6308,-1.6561,-1.6634,-1.6863,-1.7358,-1.743,-1.7455,-1.7479,-1.7479,-1.7479,-1.7443,-1.7467,-1.7479,-1.7479,-1.7479,-1.7479,-1.7479,-1.7479,-1.7479,-1.7491,-1.772,-1.7853,-1.7889,-1.8384,-1.8638,-1.8698,-1.8939,-1.9048,-1.9072,-1.9072,-1.9072,-1.9072,-1.9072,-1.9072,-1.9072,-1.9072,-1.9072,-1.9072,-1.9072,-1.9072,-1.9072,-1.9072,-1.9072,-1.9072,-1.9072,-1.9072,-1.9072,-1.9072,-1.9072,-1.9072,-1.9072,-1.9072,-1.8951,-1.8444,-1.7913,-1.7515,-1.7491,-1.7479,-1.7479,-1.7479,-1.7479,-1.7479,-1.7479,-1.7684,-1.7841,-1.7841,-1.8082,-1.8336,-1.8577,-1.865,-1.877,-1.9012,-1.906,-1.9072,-1.9072,-1.9072,-1.9072,-1.9072,-1.9301,-1.9434,-1.947,-1.9712,-1.9977,-2.0231,-2.0243,-2.0376,-2.0629,-2.0629,-2.0641,-2.0665,-2.0665,-2.0665,-1.4105,-1.4583,-1.4948,-1.4846,-1.4854,-1.5121,-1.5332,-1.5469,-1.5626,-1.5895,-1.568,-1.5584,-1.5837,-1.5596,-1.5463,-1.5825,-1.5885,-1.5946,-1.6103,-1.6211,-1.6441,-1.6887,-1.6936,-1.708,-1.7443,-1.7479,-1.7479,-1.7479,-1.7334,-1.7249,-1.7249,-1.7249,-1.7322,-1.7479,-1.7334,-1.7322,-1.7479,-1.7479,-1.7563,-1.772,-1.7829,-1.8046,-1.8372,-1.8589,-1.877,-1.8927,-1.9024,-1.9072,-1.9072,-1.9072,-1.9072,-1.9072,-1.9072,-1.9072,-1.9072,-1.9072,-1.9072,-1.9072,-1.9072,-1.9072,-1.9072,-1.9072,-1.9072,-1.9072,-1.9072,-1.9072,-1.9072,-1.9072,-1.9072,-1.9072,-1.9072,-1.8843,-1.8553,-1.8348,-1.7877,-1.7479,-1.7479,-1.7479,-1.7527,-1.7684,-1.772,-1.7768,-1.7937,-1.8058,-1.8131,-1.8131,-1.836,-1.8565,-1.8674,-1.8819,-1.8963,-1.906,-1.9072,-1.9072,-1.9072,-1.9072,-1.9072,-1.9072,-1.9169,-1.9374,-1.97,-1.9833,-2.0086,-2.0509,-2.0509,-2.0569,-2.0665,-2.0665,-2.0665,-2.0665,-2.0665,-2.0665,-1.4002,-1.4159,-1.4292,-1.4292,-1.4509,-1.4787,-1.5052,-1.5306,-1.5572,-1.5837,-1.5741,-1.5668,-1.5861,-1.568,-1.5584,-1.5849,-1.5958,-1.6066,-1.626,-1.6489,-1.6754,-1.7056,-1.7165,-1.7158,-1.6985,-1.6644,-1.6526,-1.6891,-1.6716,-1.6854,-1.7201,-1.7201,-1.7261,-1.7358,-1.7261,-1.7298,-1.7479,-1.7648,-1.7817,-1.7998,-1.8239,-1.8541,-1.8915,-1.9,-1.9096,-1.9193,-1.9193,-1.9193,-1.9193,-1.9193,-1.9193,-1.9193,-1.9193,-1.9145,-1.9072,-1.9072,-1.9072,-1.9072,-1.9072,-1.9072,-1.9072,-1.9072,-1.9072,-1.9072,-1.9072,-1.9072,-1.9072,-1.9072,-1.9072,-1.906,-1.8976,-1.8625,-1.8275,-1.8191,-1.7817,-1.7479,-1.7479,-1.7479,-1.7563,-1.7817,-1.7877,-1.7962,-1.8239,-1.836,-1.8408,-1.8408,-1.8638,-1.8794,-1.8794,-1.8963,-1.9072,-1.9072,-1.9072,-1.9072,-1.9072,-1.9072,-1.9072,-1.9072,-1.9229,-1.9483,-1.9869,-2.0038,-2.0291,-2.0665,-2.0665,-2.0665,-2.0665,-2.0665,-2.0665,-2.0665,-2.0665,-2.0665,-1.422,-1.4292,-1.4292,-1.4292,-1.4509,-1.4787,-1.5052,-1.5306,-1.5572,-1.5837,-1.5885,-1.5885,-1.5885,-1.568,-1.5584,-1.5849,-1.6103,-1.6272,-1.6284,-1.6972,-1.737,-1.7117,-1.7322,-1.6997,-1.5688,-1.45,-1.4262,-1.5569,-1.5569,-1.6161,-1.7479,-1.7479,-1.7358,-1.7105,-1.7346,-1.7479,-1.7479,-1.8022,-1.8287,-1.83,-1.9084,-1.9458,-1.947,-1.9748,-1.9724,-1.9458,-1.9458,-1.9458,-1.9458,-1.9458,-1.9458,-1.9458,-1.9458,-1.9301,-1.9072,-1.9072,-1.9072,-1.9072,-1.9072,-1.9072,-1.9072,-1.9072,-1.9072,-1.9072,-1.9072,-1.9072,-1.9072,-1.9072,-1.9072,-1.9012,-1.8758,-1.8493,-1.8227,-1.795,-1.7672,-1.7479,-1.7479,-1.7479,-1.7563,-1.7817,-1.7877,-1.7962,-1.8239,-1.8505,-1.8686,-1.8686,-1.8903,-1.9072,-1.9072,-1.9072,-1.9072,-1.9072,-1.9072,-1.9072,-1.9072,-1.9072,-1.9072,-1.9072,-1.9579,-1.9881,-1.9881,-2.0388,-2.0665,-2.0665,-2.0665,-2.0665,-2.0665,-2.0665,-2.0665,-2.0665,-2.0665,-2.0665,-1.4727,-1.4727,-1.463,-1.4811,-1.5052,-1.527,-1.5354,-1.5572,-1.5789,-1.5873,-1.5741,-1.568,-1.5861,-1.568,-1.5704,-1.6344,-1.6513,-1.6694,-1.7056,-1.6611,-1.6138,-1.606,-1.5408,-1.4738,-1.4381,-1.3904,-1.3904,-1.4262,-1.3986,-1.4109,-1.4621,-1.5438,-1.6506,-1.7612,-1.7889,-1.8118,-1.83,-1.865,-1.8915,-1.9096,-1.935,-1.9567,-1.976,-1.9845,-1.9833,-1.9748,-1.9748,-1.9748,-1.9748,-1.9748,-1.9748,-1.9748,-1.9748,-1.9591,-1.9362,-1.9555,-1.9507,-1.9374,-1.9567,-1.9627,-1.9627,-1.9627,-1.9627,-1.9591,-1.9398,-1.9217,-1.9072,-1.9072,-1.9205,-1.9277,-1.9024,-1.8891,-1.8758,-1.8493,-1.8227,-1.8034,-1.8034,-1.8034,-1.8118,-1.8372,-1.8432,-1.8517,-1.8782,-1.8891,-1.8951,-1.8951,-1.9024,-1.9072,-1.9072,-1.9072,-1.9072,-1.9072,-1.9072,-1.9072,-1.9072,-1.9072,-1.9072,-1.9072,-1.9241,-1.9495,-1.9869,-2.005,-2.0303,-2.0665,-2.0665,-2.0665,-2.0665,-2.0665,-2.0665,-2.0665,-2.0665,-2.0665,-1.4879,-1.4992,-1.4908,-1.5065,-1.5306,-1.5499,-1.5499,-1.5704,-1.5885,-1.5885,-1.5765,-1.5587,-1.5316,-1.5352,-1.5376,-1.5076,-1.5467,-1.5783,-1.5836,-1.5226,-1.4857,-1.4857,-1.3784,-1.2946,-1.2946,-1.2466,-1.2466,-1.2946,-1.2713,-1.2786,-1.3461,-1.4371,-1.5424,-1.6541,-1.7843,-1.8517,-1.8686,-1.9145,-1.9458,-1.9627,-1.9833,-2.0014,-2.0183,-2.0183,-2.0122,-2.0038,-2.0038,-2.0038,0.0,-2.0038,-1.9757,-1.9206,-1.9206,-1.863,-1.8028,-1.873,-1.8951,-1.8835,-1.9687,-1.9881,-1.9881,-1.9881,-1.9881,-1.9857,-1.9676,-1.9434,-1.9241,-1.935,-1.9495,-1.9567,-1.9289,-1.9217,-1.9132,-1.877,-1.8565,-1.8408,-1.8312,-1.83,-1.8372,-1.8638,-1.8686,-1.877,-1.9024,-1.9072,-1.9072,-1.9072,-1.9072,-1.9072,-1.9072,-1.9072,-1.9072,-1.9072,-1.9072,-1.9072,-1.9072,-1.9072,-1.9072,-1.9072,-1.9265,-1.9531,-1.9869,-2.0074,-2.034,-2.0665,-2.0665,-2.0665,-2.0665,-2.0665,-2.0665,-2.0665,-2.0665,-2.0665,0.0,-1.5035,-1.5137,-1.5059,-1.5239,-1.5419,-1.5315,-1.5505,0.0,-1.5672,-1.566,-1.5316,-1.4245,-1.4684,-1.4616,-1.2724,-1.3487,-1.4054,-1.3165,-1.3302,-1.3555,-1.3444,-1.2354,-1.1518,-1.1526,-1.055,-1.0308,-1.1511,-1.1511,-1.2189,-1.3582,-1.3936,-1.4276,-1.4345,-1.7092,-1.853,-1.8506,-1.928,-1.9673,-1.9807,-2.0299,-2.0527,-2.0665,-2.0665,-2.0533,-2.0303,-2.0167,-2.0167,-2.0167,-2.003,-1.9187,-1.7919,-1.7919,-1.6813,-1.5545,-1.6912,-1.7453,-1.7712,-1.9113,-1.9661,-1.9661,-1.9661,-1.9649,-1.9638,-1.9661,-1.9591,-1.9555,-1.9808,-1.9905,-1.9857,-1.9567,-1.9507,-1.9398,-1.8891,-1.8758,-1.8674,-1.8432,-1.836,-1.842,-1.8662,-1.871,-1.8794,-1.9036,-1.9072,-1.9072,-1.9072,-1.9072,-1.9072,-1.9072,-1.9072,-1.9072,-1.9072,-1.9072,-1.9084,-1.9096,-1.9084,-1.9084,-1.9096,-1.9579,-1.9869,-1.9917,-2.0388,-2.0653,-2.0665,-2.0665,-2.0665,-2.0665,-2.0665,-2.0665,-2.0665,-2.0665,-2.0665,-1.2759,0.0,-1.5243,-1.459,-1.4467,-1.4297,0.0,-1.3136,-1.3176,-1.3176,-1.3143,-1.3022,-1.2713,-1.2745,-1.2785,-1.2908,-1.316,-1.3546,-1.3575,-1.2764,-1.1801,-1.0957,-1.0501,-1.0229,-1.0355,-1.0012,-0.9943,-1.0179,-1.0308,-1.0494,-1.09,-1.2186,-1.3079,-1.3265,-1.529,-1.6405,-1.6235,-1.6726,-1.7534,-1.8805,-1.8916,-1.9541,-2.0665,-2.0665,-2.0641,-2.0581,-1.9311,-1.8894,-1.8743,-1.7607,-1.6907,-1.6617,-1.6617,-1.6211,-1.5634,-1.6202,-1.6302,-1.6186,-1.6768,-1.6967,-1.6967,-1.6967,-1.6857,-1.6746,-1.6917,-1.8358,-1.9808,-1.9869,-2.0026,-2.0122,-1.9857,-1.9941,-2.0002,-1.9688,-1.9434,-1.9265,-1.9205,-1.9036,-1.8915,-1.8976,-1.8988,-1.9,-1.906,-1.9072,-1.9072,-1.9072,-1.9072,-1.9072,-1.9072,-1.9072,-1.9072,-1.9072,-1.9072,-1.9157,-1.9362,-1.9193,-1.9157,-1.9362,-1.9495,-1.9748,-2.0171,-2.0303,-2.046,-2.0665,-2.0665,-2.0665,-2.0665,-2.0665,-2.0665,-2.0665,-2.0665,-2.0665,-1.1138,-1.2581,-1.3857,-1.3449,-1.3403,-1.3176,-1.2526,-1.2276,-1.2269,-1.2257,-1.2211,-1.1992,-1.1557,-1.1705,-1.1769,-1.1202,-1.1569,-1.1942,-1.1902,-1.1401,-1.0776,-1.0046,-0.9978,-0.993,-0.9944,-0.9869,-0.9822,-0.9822,-0.9883,-1.0019,-1.0243,-1.1242,-1.1871,-1.212,-1.3141,-1.4388,-1.5512,-1.5971,-1.6554,-1.7409,-1.7409,-1.783,-1.8541,-1.8541,-1.8541,-1.8541,-1.7689,-1.7409,-1.7268,-1.6413,-1.5707,-1.515,-1.515,-1.4523,-1.3883,-1.4823,-1.4938,-1.5008,-1.5812,-1.6131,-1.6131,-1.6131,-1.6056,-1.584,-1.6093,-1.7096,-1.8161,-1.8161,-1.8248,-1.8324,-1.8194,-1.8809,-1.9129,-1.8189,-1.8898,-1.952,-1.8835,-1.8912,-1.9253,-1.9253,-1.9253,-1.9217,-1.9096,-1.9072,-1.912,-1.9241,-1.9253,-1.9301,-1.9434,-1.9446,-1.9446,-1.9446,-1.9446,-1.9507,-1.9652,-1.9531,-1.9507,-1.9652,-1.9772,-1.9965,-2.0267,-2.0388,-2.0521,-2.0665,-2.0665,-2.0665,-2.0665,-2.0665,-2.0665,-2.0665,-2.0665,-2.0665,-0.9799,-1.0647,-1.1672,-1.1953,-1.2107,-1.1999,-1.1891,-1.1627,-1.1539,-1.1599,-1.1499,-1.1236,-1.0347,-1.0903,-1.0864,-0.9127,-0.9765,-1.0235,-0.9868,-1.0046,-1.0168,-1.0059,-1.0025,-0.9971,-0.9869,-0.9836,-0.9829,-0.9856,-0.9998,-1.0215,-1.0514,-1.069,-1.0914,-1.1192,-1.1348,-1.2537,-1.5041,-1.5343,-1.5566,-1.5707,-1.5707,-1.5849,-1.6131,-1.6131,-1.6131,-1.6131,-1.5849,-1.5707,-1.5707,-1.5566,-1.4725,-1.3603,-1.3603,-1.2753,-1.1763,-1.3031,-1.3603,-1.3737,-1.5008,-1.5425,-1.5425,-1.5425,-1.5425,-1.5425,-1.5425,-1.5425,-1.5425,-1.5425,-1.5707,-1.6131,-1.6131,-1.7127,-1.7648,-1.6192,-1.7507,-1.8844,-1.7609,-1.8095,-1.8862,-1.8862,-1.8994,-1.9054,-1.8571,-1.8665,-1.8877,-1.8827,-1.8862,-1.8944,-1.9166,-1.9201,-1.9201,-1.9201,-1.9468,-1.9626,-1.9661,-1.9807,-1.9965,-2.0002,-2.0183,-2.0291,-2.034,-2.0557,-2.0665,-2.0665,-2.0665,-2.0665,-2.0665,-2.0665,-2.0665,-2.0665,-2.0665,-2.0665,-0.8688,-0.8898,-0.9354,-1.0322,-1.054,-1.033,-0.9286,-0.9039,-0.901,-0.9032,-0.9017,-0.901,-0.8829,-0.8934,-0.9033,-0.8893,-0.9373,-0.9696,-0.9795,-0.9863,-0.993,-1.0039,-0.9937,-0.9897,-1.0005,-0.9897,-0.9876,-1.0005,-1.0161,-1.0371,-1.067,-1.0948,-1.1172,-1.1348,-1.1504,-1.1722,-1.2294,-1.2316,-1.2888,-1.4307,-1.4307,-1.4867,-1.6131,-1.6131,-1.6131,-1.599,-1.4725,-1.4307,-1.4164,-1.2896,-1.2187,-1.19,-1.19,-1.1763,-1.1619,-1.19,-1.19,-1.2043,-1.2187,-1.233,-1.233,-1.233,-1.233,-1.233,-1.233,-1.233,-1.233,-1.233,-1.4164,-1.6131,-1.6131,-1.6272,-1.6404,-1.6093,-1.6202,-1.6333,-1.6048,-1.6021,-1.5875,-1.5875,-1.6954,-1.7481,-1.6106,-1.6902,-1.7459,-1.6146,-1.5875,-1.602,-1.6059,-1.6059,-1.6059,-1.6059,-1.7151,-1.8047,-1.8243,-1.9516,-2.0315,-2.0533,-2.0376,-2.0376,-2.0605,-2.0641,-2.0665,-2.0665,-2.0665,-2.0665,-2.0665,-2.0665,-2.0665,-2.0665,-2.0665,-2.0665,-0.818,-0.8241,-0.8364,-0.9065,-0.9384,-0.937,-0.8838,-0.8601,-0.8506,-0.8587,-0.854,-0.8506,-0.8587,-0.8676,-0.8689,-0.8798,-0.9129,-0.9413,-0.9559,-0.9711,-0.981,-0.9928,-0.9985,-0.9937,-0.9924,-0.9863,-0.9917,-1.0154,-1.031,-1.0561,-1.0941,-1.1165,-1.1355,-1.1511,-1.1586,-1.1619,-1.1619,-1.1619,-1.19,-1.261,-1.261,-1.3031,-1.3737,-1.3737,-1.3737,-1.3595,-1.2888,-1.261,-1.261,-1.19,-1.1619,-1.1619,-1.1619,-1.1619,-1.1619,-1.1619,-1.1619,-1.1619,-1.1619,-1.1619,-1.1619,-1.1619,-1.1619,-1.1619,-1.1619,-1.1619,-1.1619,-1.1619,-1.261,-1.3737,-1.3737,-1.4298,-1.4725,-1.388,-1.4719,-1.558,-1.485,-1.5135,-1.555,-1.555,-1.6099,-1.6333,-1.54,-1.5924,-1.6234,-1.5668,-1.555,-1.5587,-1.57,-1.5709,-1.5709,-1.5709,-1.6402,-1.7144,-1.809,-1.8805,-1.9692,-2.0665,-2.0557,-2.0545,-2.0665,-2.0665,-2.0665,-2.0665,-2.0665,-2.0665,-2.0665,-2.0665,-2.0665,-2.0665,-2.0665,-2.0665,-0.7997,-0.8065,-0.8133,-0.8282,-0.8526,-0.8743,-0.8818,-0.8621,-0.8472,-0.8628,-0.8594,-0.8474,-0.8737,-0.8913,-0.8963,-0.8736,-0.8962,-0.9168,-0.9316,-0.9522,-0.9619,-0.9888,-0.9875,-0.9828,-0.9836,-0.9822,-0.9951,-1.0256,-1.0412,-1.069,-1.1138,-1.1307,-1.1463,-1.1613,-1.1619,-1.1619,-1.1619,-1.1619,-1.1619,-1.1619,-1.1619,-1.1619,-1.1619,-1.1619,-1.1619,-1.1619,-1.1619,-1.1619,-1.1619,-1.1619,-1.1619,-1.1619,-1.1619,-1.1619,-1.1619,-1.1619,-1.1619,-1.1619,-1.1619,-1.1619,-1.1619,-1.1619,-1.1619,-1.1619,-1.1619,-1.1619,-1.1619,-1.1619,-1.1619,-1.1619,-1.1619,-1.2466,-1.3031,-1.19,-1.3216,-1.4552,-1.3571,-1.4048,-1.4789,-1.4789,-1.5068,-1.5153,-1.4595,-1.4707,-1.4889,-1.4762,-1.4789,-1.4841,-1.4982,-1.5008,-1.5008,-1.5008,-1.5425,-1.6131,-1.77,-1.8121,-1.8832,-2.0098,-2.0527,-2.0665,-2.0665,-2.0665,-2.0665,-2.0665,-2.0665,-2.0665,-2.0665,-2.0665,-2.0665,-2.0665,-2.0665,-2.0665,-0.7997,-0.8147,-0.8289,-0.8431,-0.8282,-0.8174,-0.8452,-0.8397,-0.833,-0.8472,-0.8395,-0.8419,-0.8783,-0.9157,-0.9238,-0.8904,-0.9026,-0.9168,-0.9316,-0.9111,-0.9123,-0.9721,-0.9592,-0.947,-0.9822,-0.9822,-0.9951,-1.0256,-1.0412,-1.069,-1.1138,-1.1307,-1.1463,-1.1613,-1.1619,-1.1619,-1.1619,-1.1619,-1.1619,-1.1619,-1.1619,-1.1619,-1.1619,-1.1619,-1.1619,-1.1619,-1.1619,-1.1619,-1.1619,-1.1619,-1.1619,-1.1619,-1.1619,-1.1619,-1.1619,-1.1619,-1.1619,-1.1619,-1.1619,-1.1619,-1.1619,-1.1619,-1.1619,-1.1619,-1.1619,-1.1619,-1.1619,-1.1619,-1.1619,-1.1619,-1.1619,-1.1619,-1.1763,-1.1619,-1.1749,-1.1886,-1.1756,-1.1893,-1.1886,-1.1886,-1.3016,-1.3579,-1.2158,-1.2993,-1.3563,-1.2166,-1.1886,-1.1893,-1.19,-1.19,-1.19,-1.19,-1.3174,-1.4725,-1.6131,-1.7549,-1.8412,-1.8552,-1.9959,-2.0665,-2.0665,-2.0665,-2.0665,-2.0665,-2.0665,-2.0665,-2.0665,-2.0665,-2.0665,-2.0665,-2.0665,-2.0665,-0.7834,-0.7912,-0.7965,-0.8316,-0.816,-0.7948,-0.8348,-0.8474,-0.8615,-0.8633,-0.8659,-0.8789,-0.9042,-0.8977,-0.885,-0.8765,-0.8543,-0.8479,-0.8702,-0.861,-0.8732,-0.922,-0.9098,-0.9098,-0.922,-0.9335,-0.9614,-1.0128,-1.0417,-1.0833,-1.128,-1.145,-1.1558,-1.1619,-1.1619,-1.1619,-1.1619,-1.1619,-1.1619,-1.1619,-1.1619,-1.1619,-1.1619,-1.1619,-1.1619,-1.1619,-1.1619,-1.1619,-1.1619,-1.1619,-1.1619,-1.1619,-1.1619,-1.1619,-1.1619,-1.1619,-1.1619,-1.1619,-1.1619,-1.1619,-1.1619,-1.1619,-1.1619,-1.1619,-1.1619,-1.1619,-1.1619,-1.1619,-1.1619,-1.1619,-1.1619,-1.1619,-1.1619,-1.1619,-1.1619,-1.1619,-1.1619,-1.1619,-1.1619,-1.1619,-1.2043,-1.233,-1.1763,-1.2043,-1.233,-1.1619,-1.1619,-1.1619,-1.1619,-1.1619,-1.1619,-1.1619,-1.3031,-1.4164,-1.4725,-1.6141,-1.6987,-1.6987,-1.939,-2.0665,-2.0665,-2.0665,-2.0665,-2.0665,-2.0665,-2.0665,-2.0665,-2.0665,-2.0665,-2.0665,-2.0665,-2.0665,-0.7664,-0.7661,-0.7743,-0.7994,-0.7885,-0.782,-0.7999,-0.8246,-0.8507,-0.8463,-0.8745,-0.8858,-0.8858,-0.8739,-0.8603,-0.8419,-0.8154,-0.8072,-0.8332,-0.8366,-0.8366,-0.8854,-0.8854,-0.8751,-0.8916,-0.9038,-0.9331,-0.9882,-1.0306,-1.069,-1.0946,-1.1395,-1.1476,-1.1476,-1.1476,-1.1619,-1.1619,-1.1476,-1.1476,-1.1476,-1.1476,-1.1476,-1.1619,-1.1619,-1.1619,-1.1619,-1.1619,-1.1619,-1.1619,-1.1619,-1.1619,-1.1619,-1.1619,-1.1619,-1.1619,-1.1619,-1.1619,-1.1619,-1.1619,-1.1619,-1.1619,-1.1619,-1.1619,-1.1619,-1.1619,-1.1619,-1.1619,-1.1619,-1.1619,-1.1619,-1.1619,-1.1619,-1.1619,-1.1619,-1.1619,-1.1619,-1.1619,-1.1619,-1.1619,-1.1619,-1.1619,-1.1619,-1.1619,-1.1619,-1.1619,-1.1619,-1.1619,-1.1619,-1.1619,-1.1619,-1.1619,-1.1619,-1.261,-1.3174,-1.3174,-1.4583,-1.5425,-1.5425,-1.783,-1.9529,-1.9959,-1.9959,-1.9959,-1.9959,-1.9959,-1.9959,-1.9959,-2.0527,-2.0665,-2.0665,-2.0665,-2.0665,-0.7427,-0.7633,-0.7776,-0.7608,-0.7644,-0.7717,-0.7463,-0.7742,-0.8037,-0.7987,-0.8489,-0.8711,-0.8097,-0.8495,-0.8684,-0.8102,-0.7985,-0.8072,-0.8332,-0.8122,-0.8116,-0.8854,-0.8616,-0.8547,-0.8919,-0.8937,-0.9227,-0.963,-1.0046,-1.0385,-1.0248,-1.111,-1.1476,-1.1044,-1.1332,-1.1619,-1.1619,-1.1188,-1.1044,-1.1044,-1.1044,-1.1188,-1.1619,-1.1619,-1.1619,-1.1619,-1.1619,-1.1619,-1.1619,-1.1619,-1.1619,-1.1619,-1.1619,-1.1619,-1.1619,-1.1619,-1.1619,-1.1619,-1.1619,-1.1619,-1.1619,-1.1619,-1.1619,-1.1619,-1.1619,-1.1619,-1.1619,-1.1619,-1.1619,-1.1619,-1.1619,-1.1619,-1.1619,-1.1619,-1.1619,-1.1619,-1.1619,-1.1619,-1.1619,-1.1619,-1.1619,-1.1619,-1.1619,-1.1619,-1.1619,-1.1619,-1.1619,-1.1619,-1.1619,-1.1619,-1.1619,-1.1619,-1.1619,-1.1619,-1.1619,-1.3031,-1.388,-1.388,-1.5283,-1.6705,-1.8272,-1.8412,-1.8412,-1.8412,-1.8412,-1.8412,-1.8412,-1.9959,-2.0665,-2.0665,-2.0665,-2.0665,-0.7253,-0.729,-0.7434,-0.7467,-0.7509,-0.7529,-0.7396,-0.7816,-0.8272,-0.8342,-0.852,-0.8628,-0.832,-0.8375,-0.8384,-0.8207,-0.7892,-0.7714,-0.7978,-0.8005,-0.8011,-0.8116,-0.8195,-0.8268,-0.8301,-0.8638,-0.8898,-0.9109,-0.9588,-1.0067,-1.0107,-1.0618,-1.0743,-1.0599,-1.0743,-1.0887,-1.0887,-1.0743,-1.0599,-1.0599,-1.0599,-1.0743,-1.0887,-1.1325,-1.1476,-1.1188,-1.1476,-1.1619,-1.1619,-1.1619,-1.1619,-1.1619,-1.1619,-1.1619,-1.1619,-1.1619,-1.1619,-1.1619,-1.1619,-1.1619,-1.1619,-1.1619,-1.1619,-1.1619,-1.1619,-1.1619,-1.1619,-1.1619,-1.1619,-1.1619,-1.1619,-1.1619,-1.1619,-1.1619,-1.1619,-1.1619,-1.1619,-1.1619,-1.1619,-1.1619,-1.1619,-1.1619,-1.1619,-1.1619,-1.1619,-1.1619,-1.1619,-1.1619,-1.1619,-1.1619,-1.1619,-1.1619,-1.1619,-1.1619,-1.1619,-1.2043,-1.233,-1.233,-1.3737,-1.5292,-1.6705,-1.6836,-1.6836,-1.6836,-1.6836,-1.7268,-1.8412,-1.8832,-1.968,-2.0665,-2.0665,-2.0665,-0.7211,-0.7125,-0.7108,-0.724,-0.7356,-0.7442,-0.7379,-0.7604,-0.795,-0.8146,-0.8276,-0.847,-0.8546,-0.84,-0.7939,-0.6532,-0.6961,-0.7276,-0.6381,-0.7271,-0.7899,-0.7888,-0.7992,-0.8079,-0.8254,-0.8492,-0.8654,-0.8879,-0.9437,-0.9739,-0.9783,-1.0227,-1.0455,-1.0311,-1.0455,-1.0455,-1.0455,-1.0311,-1.0311,-1.0311,-1.0311,-1.0167,-1.0023,-1.075,-1.1038,-1.075,-1.1038,-1.1181,-1.1332,-1.1332,-1.1476,-1.1619,-1.1619,-1.1619,-1.1619,-1.1619,-1.1619,-1.1619,-1.1619,-1.1619,-1.1619,-1.1619,-1.1619,-1.1619,-1.1619,-1.1619,-1.1619,-1.1619,-1.1619,-1.1619,-1.1619,-1.1619,-1.1619,-1.1619,-1.1619,-1.1619,-1.1619,-1.1619,-1.1619,-1.1619,-1.1619,-1.1619,-1.1619,-1.1619,-1.1619,-1.1619,-1.1619,-1.1619,-1.1619,-1.1619,-1.1619,-1.1619,-1.1619,-1.1619,-1.1619,-1.1619,-1.1619,-1.1619,-1.2466,-1.346,-1.4298,-1.4867,-1.5292,-1.5292,-1.5292,-1.5717,-1.6574,-1.7127,-1.8261,-1.982,-1.982,-2.0098,-0.6813,-0.6664,-0.6582,-0.6811,-0.6995,-0.7281,-0.716,-0.7054,-0.7049,-0.7733,-0.772,-0.7772,-0.8364,-0.845,-0.7434,-0.4124,-0.5379,-0.6189,-0.4174,-0.5794,-0.7291,-0.7552,-0.764,-0.7875,-0.8386,-0.8372,-0.8568,-0.8894,-0.9215,-0.9327,-0.9258,-1.0011,-1.0167,-0.9879,-1.0167,-1.0455,-1.0455,-1.0023,-0.9879,-0.9879,-0.9879,-0.959,-0.9302,-1.0167,-1.0455,-1.0455,-1.0455,-1.0606,-1.09,-1.09,-1.1188,-1.1476,-1.1476,-1.1619,-1.1619,-1.1619,-1.1619,-1.1619,-1.1619,-1.1619,-1.1619,-1.1619,-1.1619,-1.1619,-1.1619,-1.1619,-1.1619,-1.1619,-1.1619,-1.1619,-1.1619,-1.1619,-1.1619,-1.1619,-1.1619,-1.1619,-1.1619,-1.1619,-1.1619,-1.1619,-1.1619,-1.1619,-1.1619,-1.1619,-1.1619,-1.1619,-1.1619,-1.1619,-1.1619,-1.1619,-1.1619,-1.1619,-1.1619,-1.1619,-1.1619,-1.1619,-1.1619,-1.1619,-1.1619,-1.1619,-1.1619,-1.2896,-1.3737,-1.3737,-1.3737,-1.3737,-1.388,-1.5283,-1.6705,-1.8121,-1.8261,-1.9111,-0.4976,-0.4332,-0.4293,-0.415,-0.4312,-0.4908,-0.6735,-0.5717,-0.5035,-0.741,-0.6177,-0.462,-0.4672,-0.6985,-0.7707,-0.4181,-0.2428,-0.2089,-0.3689,-0.2585,-0.2474,-0.4505,-0.4823,-0.5801,-0.8117,-0.8503,-0.86,-0.866,-0.8845,-0.8976,-0.9024,-0.9347,-0.9446,-0.9446,-0.9446,-0.959,-0.959,-0.9446,-0.9446,-0.9446,-0.9446,-0.9446,-0.9302,-1.0167,-1.0455,-1.0455,-1.0455,-1.0599,-1.0599,-1.0599,-1.0599,-1.0743,-1.1044,-1.1188,-1.1188,-1.1476,-1.1619,-1.1619,-1.1619,-1.1619,-1.1619,-1.1619,-1.1619,-1.1619,-1.1619,-1.1619,-1.1619,-1.1619,-1.1619,-1.1619,-1.1619,-1.1619,-1.1619,-1.1619,-1.1619,-1.1619,-1.1619,-1.1619,-1.1619,-1.1619,-1.1619,-1.1619,-1.1619,-1.1619,-1.1619,-1.1619,-1.1619,-1.1619,-1.1619,-1.1619,-1.1619,-1.1619,-1.1619,-1.1619,-1.1619,-1.1619,-1.1619,-1.1619,-1.1619,-1.1619,-1.1619,-1.19,-1.2043,-1.2043,-1.2043,-1.2753,-1.388,-1.4164,-1.515,-1.6554,-1.784,-1.8552,-0.5578,-0.3668,-0.1839,-0.165,-0.267,-0.426,-0.6639,-0.6182,-0.5725,-0.7315,-0.64,-0.4616,-0.2288,-0.3376,-0.4027,-0.2161,-0.0855,-0.0494,-0.1848,-0.0863,-0.0496,-0.1888,-0.2041,-0.2588,-0.4202,-0.6934,-0.8638,-0.8547,-0.8718,-0.8842,-0.9035,-0.9209,-0.9302,-0.9302,-0.9302,-0.9302,-0.9302,-0.9302,-0.9302,-0.9302,-0.9302,-0.9302,-0.9302,-0.9735,-0.9879,-0.9879,-0.9879,-1.0023,-1.0167,-1.0167,-1.0311,-1.0455,-1.075,-1.075,-1.075,-1.1038,-1.1038,-1.1038,-1.1332,-1.1332,-1.1332,-1.1476,-1.1619,-1.1619,-1.1619,-1.1619,-1.1619,-1.1619,-1.1619,-1.1619,-1.1619,-1.1619,-1.1619,-1.1619,-1.1619,-1.1619,-1.1619,-1.1619,-1.1619,-1.1619,-1.1619,-1.1619,-1.1619,-1.1619,-1.1619,-1.1619,-1.1619,-1.1619,-1.1619,-1.1619,-1.1619,-1.1619,-1.1619,-1.1619,-1.1619,-1.1619,-1.1619,-1.1619,-1.1681,-1.1721,-1.1721,-1.1721,-1.1687,-1.1619,-1.1619,-1.2043,-1.2753,-1.2753,-1.3642,-1.5149,-1.6007,-1.6777,-0.5695,-0.299,0.0,0.0,-0.1457,-0.3477,-0.5514,-0.6649,-0.6985,-0.6083,-0.598,-0.4761,-0.0691,0.0,0.0,0.0,0.0,0.0,0.0,0.0,0.0,0.0,0.0,0.0,0.0,-0.4273,-0.7305,-0.7791,-0.8454,-0.8847,-0.9101,-0.9215,-0.9285,-0.9302,-0.9302,-0.9302,-0.9302,-0.9302,-0.9302,-0.9302,-0.9302,-0.9302,-0.9302,-0.9302,-0.9302,-0.9302,-0.9302,-0.9446,-0.9735,-0.9735,-1.0023,-1.0311,-1.0311,-1.0455,-1.0455,-1.0455,-1.0455,-1.0599,-1.075,-1.09,-1.1044,-1.1332,-1.1476,-1.1619,-1.1619,-1.1619,-1.1619,-1.1619,-1.1619,-1.1619,-1.1619,-1.1619,-1.1619,-1.1619,-1.1619,-1.1619,-1.1619,-1.1619,-1.1619,-1.1619,-1.1619,-1.1619,-1.1619,-1.1619,-1.1619,-1.1619,-1.1619,-1.1619,-1.1619,-1.1619,-1.1619,-1.1619,-1.1619,-1.1619,-1.1619,-1.164,-1.1653,-1.1653,-1.1789,-1.187,-1.187,-1.187,-1.1816,-1.1694,-1.1647,-1.1633,-1.1653,-1.1653,-1.2294,-1.372,-1.4035,-1.4855,-0.0961,-0.0509,0.0,0.0,-0.0224,-0.0561,-0.0897,-0.4158,-0.5971,-0.1795,-0.0907,-0.0806,-0.0117,0.0,0.0,0.0,0.0,0.0,0.0,0.0,0.0,0.0,0.0,0.0,0.0,-0.0671,-0.215,-0.4708,-0.7238,-0.8729,-0.9126,-0.9095,-0.9204,-0.9302,-0.9302,-0.9302,-0.9302,-0.9302,-0.9302,-0.9302,-0.9302,-0.9302,-0.9302,-0.9302,-0.9302,-0.9302,-0.9302,-0.9302,-0.9446,-0.9446,-0.9446,-0.9446,-0.9879,-1.0023,-1.0023,-1.0311,-1.0455,-1.0455,-1.0599,-1.075,-1.1044,-1.1044,-1.1332,-1.1619,-1.1619,-1.1619,-1.1619,-1.1619,-1.1619,-1.1619,-1.1619,-1.1619,-1.1619,-1.1619,-1.1619,-1.1619,-1.1619,-1.1619,-1.1619,-1.1619,-1.1619,-1.1619,-1.1619,-1.1619,-1.1619,-1.1619,-1.1619,-1.1619,-1.1619,-1.1619,-1.1619,-1.1619,-1.1619,-1.1619,-1.1619,-1.1735,-1.1803,-1.1803,-1.1945,-1.2033,-1.2033,-1.2033,-1.202,-1.2006,-1.1748,-1.1681,-1.1803,-1.1803,-1.1955,-1.2122,-1.3567,-1.4383,0.0,0.0,0.0,0.0,0.0,0.0,0.0,-0.1683,-0.258,-0.0449,0.0,0.0,0.0,0.0,0.0,0.0,0.0,0.0,0.0,0.0,0.0,0.0,0.0,0.0,0.0,0.0,-0.0538,-0.1746,-0.3012,-0.5282,-0.8697,-0.9007,-0.9269,-0.9318,-0.9307,-0.9302,-0.9302,-0.9302,-0.9302,-0.9302,-0.9302,-0.9302,-0.9302,-0.9302,-0.9302,-0.9302,-0.9302,-0.9302,-0.9302,-0.9302,-0.9302,-0.9302,-0.9446,-0.959,-0.959,-0.9735,-0.9879,-0.9879,-1.0023,-1.0311,-1.0462,-1.0606,-1.1038,-1.1332,-1.1332,-1.1476,-1.1619,-1.1619,-1.1619,-1.1619,-1.1619,-1.1619,-1.1619,-1.1619,-1.1619,-1.1619,-1.1619,-1.1619,-1.1619,-1.1619,-1.1619,-1.1619,-1.1619,-1.1619,-1.1619,-1.1619,-1.1619,-1.1647,-1.1728,-1.1735,-1.1769,-1.1857,-1.187,-1.187,-1.187,-1.1925,-1.1959,-1.1959,-1.2108,-1.2189,-1.2189,-1.2189,-1.223,-1.2305,-1.202,-1.1857,-1.183,-1.1918,-1.1959,-1.1965,-1.2856,-1.3273,0.0,0.0,0.0,0.0,0.0,0.0,0.0,0.0,0.0,0.0,0.0,0.0,0.0,0.0,0.0,0.0,0.0,0.0,0.0,0.0,0.0,0.0,0.0,0.0,0.0,0.0,0.0,0.0,0.0,-0.1941,-0.6136,-0.7389,-0.8356,-0.9291,-0.928,-0.9285,-0.9318,-0.9313,-0.9313,-0.9313,-0.9307,-0.9307,-0.9313,-0.9307,-0.9307,-0.9313,-0.9307,-0.9302,-0.9302,-0.9302,-0.9302,-0.9302,-0.9302,-0.9302,-0.9302,-0.9302,-0.9302,-0.9302,-0.959,-0.9879,-0.9879,-1.0311,-1.0599,-1.0894,-1.0894,-1.1188,-1.1476,-1.1476,-1.1476,-1.1619,-1.1619,-1.1619,-1.1619,-1.1619,-1.1619,-1.1619,-1.1619,-1.1619,-1.1619,-1.1619,-1.1647,-1.166,-1.1626,-1.1647,-1.1674,-1.1674,-1.1674,-1.1728,-1.187,-1.1891,-1.1932,-1.2047,-1.206,-1.206,-1.206,-1.2094,-1.2121,-1.2121,-1.2264,-1.2345,-1.2345,-1.2345,-1.2393,-1.2501,-1.2284,-1.2101,-1.1945,-1.206,-1.2121,-1.2121,-1.2277,-1.24,0.0,0.0,0.0,0.0,0.0,0.0,0.0,0.0,0.0,0.0,0.0,0.0,0.0,0.0,0.0,0.0,0.0,0.0,0.0,0.0,0.0,0.0,0.0,0.0,0.0,0.0,0.0,0.0,0.0,-0.0136,-0.0412,-0.3023,-0.599,-0.9177,-0.933,-0.9242,-0.9356,-0.934,-0.9329,-0.9329,-0.9313,-0.9313,-0.9329,-0.9313,-0.9313,-0.9329,-0.9313,-0.9302,-0.9302,-0.9302,-0.9302,-0.9302,-0.9302,-0.9302,-0.9302,-0.9302,-0.9302,-0.9302,-0.9302,-0.959,-0.9879,-0.9879,-1.0167,-1.0599,-1.0599,-1.075,-1.1044,-1.1044,-1.1332,-1.1619,-1.1619,-1.1619,-1.1619,-1.1619,-1.1619,-1.1619,-1.1619,-1.1619,-1.1619,-1.1619,-1.1728,-1.1775,-1.164,-1.1728,-1.1823,-1.1823,-1.1823,-1.1877,-1.2033,-1.2047,-1.2054,-1.206,-1.206,-1.206,-1.206,-1.2196,-1.2277,-1.2277,-1.2413,-1.2488,-1.2488,-1.2488,-1.2494,-1.2501,-1.2488,-1.2406,-1.2264,-1.2277,-1.2277,-1.2284,-1.2427,-1.2494,0.0,0.0,0.0,0.0,0.0,0.0,0.0,0.0,0.0,0.0,0.0,0.0,0.0,0.0,0.0,0.0,0.0,0.0,0.0,0.0,0.0,0.0,0.0,0.0,0.0,0.0,0.0,0.0,0.0,0.0,0.0,-0.0976,-0.2955,-0.6215,-0.6312,-0.6383,-0.6413,-0.6406,-0.7289,-0.9351,-0.934,-0.934,-0.92,-0.728,-0.7421,-0.9329,-0.9323,-0.9313,-0.9302,-0.9302,-0.9302,-0.9302,-0.9302,-0.9302,-0.9302,-0.9302,-0.9302,-0.9302,-0.9302,-0.9446,-0.9446,-0.9446,-0.9735,-1.0167,-1.0167,-1.0311,-1.075,-1.075,-1.0743,-1.0887,-1.0887,-1.1038,-1.1332,-1.1476,-1.1619,-1.1619,-1.1619,-1.1619,-1.1619,-1.1619,-1.1735,-1.1816,-1.1762,-1.1877,-1.1979,-1.1979,-1.1979,-1.2033,-1.2189,-1.221,-1.2244,-1.2332,-1.2345,-1.2345,-1.2345,-1.2393,-1.2427,-1.2427,-1.2474,-1.2501,-1.2501,-1.2501,-1.2501,-1.2501,-1.2501,-1.2433,-1.2291,-1.2379,-1.2379,-1.2291,-1.2433,-1.2501,0.0,0.0,0.0,0.0,0.0,0.0,0.0,0.0,0.0,0.0,0.0,0.0,0.0,0.0,0.0,0.0,0.0,0.0,0.0,0.0,0.0,0.0,0.0,0.0,0.0,0.0,0.0,0.0,0.0,0.0,0.0,0.0,-0.0978,-0.3062,-0.3154,-0.319,-0.3162,-0.3173,-0.4194,-0.6228,-0.7246,-0.829,-0.9216,-0.6119,-0.641,-0.9345,-0.934,-0.9329,-0.9302,-0.9302,-0.9302,-0.9302,-0.9302,-0.9302,-0.9302,-0.9302,-0.9329,-0.9356,-0.9318,-0.9329,-0.9356,-0.9318,-0.9446,-0.9735,-0.9735,-1.0023,-1.0311,-1.0311,-1.0455,-1.0455,-1.0455,-1.0606,-1.0894,-1.1181,-1.1181,-1.1194,-1.1247,-1.1509,-1.1633,-1.1681,-1.1809,-1.1911,-1.1911,-1.2033,-1.2142,-1.2142,-1.2142,-1.2189,-1.2338,-1.2359,-1.24,-1.2488,-1.2501,-1.2501,-1.2501,-1.2501,-1.2501,-1.2501,-1.2501,-1.2501,-1.2501,-1.2501,-1.2501,-1.2501,-1.2501,-1.2454,-1.2359,-1.2454,-1.2454,-1.2366,-1.2461,-1.2501,0.0,0.0,0.0,0.0,0.0,0.0,0.0,0.0,0.0,0.0,0.0,0.0,0.0,0.0,0.0,0.0,0.0,0.0,0.0,0.0,0.0,0.0,0.0,0.0,0.0,0.0,0.0,0.0,0.0,0.0,0.0,0.0,0.0,0.0,0.0,0.0,0.0,0.0,0.0,-0.0,-0.3139,-0.6191,-0.8931,-0.5977,-0.6123,-0.9076,-0.9216,-0.9195,-0.9163,-0.9307,-0.9313,-0.9313,-0.9313,-0.9313,-0.9307,-0.9307,-0.9383,-0.947,-0.9351,-0.9389,-0.947,-0.9351,-0.9313,-0.9307,-0.9307,-0.9596,-0.9879,-0.9885,-1.0173,-1.0462,-1.0468,-1.0462,-1.0462,-1.0468,-1.0462,-1.0498,-1.0633,-1.1147,-1.1674,-1.1809,-1.1959,-1.206,-1.2067,-1.2196,-1.2298,-1.2298,-1.2298,-1.2345,-1.2481,-1.2501,-1.2501,-1.2501,-1.2501,-1.2501,-1.2501,-1.2501,-1.2501,-1.2501,-1.2501,-1.2501,-1.2501,-1.2501,-1.2501,-1.2501,-1.2501,-1.2501,-1.2501,-1.2501,-1.2501,-1.2501,-1.2501,-1.2501,0.0,0.0,0.0,0.0,0.0,0.0,0.0,0.0,0.0,0.0,0.0,0.0,0.0,0.0,0.0,0.0,0.0,0.0,0.0,0.0,0.0,0.0,0.0,0.0,0.0,0.0,0.0,0.0,0.0,0.0,0.0,0.0,0.0,0.0,0.0,0.0,0.0,0.0,0.0,-0.0,-0.0866,-0.1743,-0.248,-0.175,-0.1749,-0.2766,-0.7302,-0.8071,-0.6191,-0.8421,-0.9318,-0.9318,-0.9318,-0.9313,-0.9296,-0.9356,-0.9394,-0.9481,-0.9449,-0.9514,-0.9612,-0.9579,-0.9508,-0.9438,-0.9438,-0.9518,-0.9468,-0.9557,-0.9731,-0.9894,-1.0133,-1.024,-1.0334,-1.0577,-1.0675,-1.0639,-1.0779,-1.0928,-1.1057,-1.1392,-1.1884,-1.2094,-1.221,-1.2345,-1.244,-1.244,-1.244,-1.2461,-1.2494,-1.2501,-1.2501,-1.2501,-1.2501,-1.2501,-1.2501,-1.2501,-1.2501,-1.2501,-1.2501,-1.2501,-1.2501,-1.2501,-1.2501,-1.2501,-1.2501,-1.2501,-1.2501,-1.2501,-1.2501,-1.2501,-1.2501,-1.2501,0.0,0.0,0.0,0.0,0.0,0.0,0.0,0.0,0.0,0.0,0.0,0.0,0.0,0.0,0.0,0.0,0.0,0.0,0.0,0.0,0.0,0.0,0.0,0.0,0.0,0.0,0.0,0.0,0.0,0.0,0.0,0.0,0.0,0.0,0.0,0.0,0.0,0.0,0.0,0.0,0.0,0.0,0.0,0.0,0.0,-0.0146,-0.3813,-0.517,-0.4906,-0.6616,-0.7356,-0.7425,-0.7425,-0.74,-0.7512,-0.8826,-0.9329,-0.9568,-0.9568,-0.9644,-0.9731,-0.9688,-0.9622,-0.9563,-0.9563,-0.9514,-0.947,-0.9541,-0.9563,-0.9579,-0.9949,-0.9916,-1.0025,-1.0248,-1.0208,-1.0191,-1.0312,-1.0451,-1.0733,-1.1089,-1.1403,-1.175,-1.1893,-1.2139,-1.2192,-1.2192,-1.2347,-1.2501,-1.2501,-1.2501,-1.2501,-1.2501,-1.2501,-1.2501,-1.2501,-1.2501,-1.2501,-1.2501,-1.2501,-1.2347,-1.2192,-1.2192,-1.2192,-1.2037,-1.2037,-1.2037,-1.2037,-1.2347,-1.2501,-1.2501,-1.2501,-1.2501,0.0,0.0,0.0,0.0,0.0,0.0,0.0,0.0,0.0,0.0,0.0,0.0,0.0,0.0,0.0,0.0,0.0,0.0,0.0,0.0,0.0,0.0,0.0,0.0,0.0,0.0,0.0,0.0,0.0,0.0,0.0,0.0,0.0,0.0,0.0,0.0,0.0,0.0,0.0,0.0,0.0,0.0,0.0,0.0,0.0,0.0,0.0,-0.1638,-0.4188,-0.413,-0.4109,-0.4166,-0.4166,-0.414,-0.4546,-0.7269,-0.8552,-0.9091,-0.9553,-0.9775,-0.9845,-0.9742,-0.9699,-0.9688,-0.9688,-0.9677,-0.9671,-0.9688,-0.9699,-0.9709,-0.9709,-0.9699,-0.9693,-0.9704,-0.9699,-0.972,-0.9835,-1.0084,-1.0341,-1.0762,-1.0926,-1.1109,-1.1238,-1.1572,-1.1882,-1.1882,-1.2192,-1.2347,-1.2347,-1.2347,-1.2347,-1.2347,-1.2347,-1.2347,-1.2347,-1.2347,-1.2347,-1.2347,-1.2347,-1.2192,-1.1882,-1.1882,-1.1727,-1.1262,-1.1262,-1.1262,-1.1262,-1.2037,-1.2347,-1.2347,-1.2501,-1.2501,0.0,0.0,0.0,0.0,0.0,0.0,0.0,0.0,0.0,0.0,0.0,0.0,0.0,0.0,0.0,0.0,0.0,0.0,0.0,0.0,0.0,0.0,0.0,0.0,0.0,0.0,0.0,0.0,0.0,0.0,0.0,0.0,0.0,0.0,0.0,0.0,0.0,0.0,0.0,0.0,0.0,0.0,0.0,0.0,0.0,0.0,0.0,-0.0299,-0.0907,-0.092,-0.0922,-0.0918,-0.0918,-0.0916,-0.1065,-0.1661,-0.3489,-0.5979,-0.8765,-0.9767,-1.0003,-0.9981,-0.99,-0.9807,-0.9807,-0.9742,-0.9688,-0.978,-0.9878,-0.9954,-0.9954,-0.9878,-0.9829,-0.9927,-0.9878,-0.984,-0.996,-0.9965,-1.0114,-1.0136,-1.0679,-1.1109,-1.1238,-1.1417,-1.1417,-1.1417,-1.1417,-1.1572,-1.1572,-1.1572,-1.1572,-1.1572,-1.1572,-1.1572,-1.1572,-1.1572,-1.1572,-1.1572,-1.1572,-1.1572,-1.1417,-1.1417,-1.1417,-1.1262,-1.1262,-1.1262,-1.1262,-1.1727,-1.1882,-1.1572,-1.2192,-1.2347,0.0,0.0,0.0,0.0,0.0,0.0,0.0,0.0,0.0,0.0,0.0,0.0,0.0,0.0,0.0,0.0,0.0,0.0,0.0,0.0,0.0,0.0,0.0,0.0,0.0,0.0,0.0,0.0,0.0,0.0,0.0,0.0,0.0,0.0,0.0,0.0,0.0,0.0,0.0,0.0,0.0,0.0,0.0,0.0,0.0,0.0,0.0,0.0,0.0,0.0,0.0,0.0,0.0,0.0,0.0,0.0,-0.1073,-0.2619,-0.434,-0.6393,-0.8462,-0.9573,-0.9992,-0.9927,-0.9927,-0.9889,-0.9856,-0.9911,-0.997,-1.0019,-1.0019,-0.9976,-0.9943,-1.0008,-0.9976,-0.9943,-1.0008,-1.0019,-1.0019,-1.0019,-1.028,-1.0572,-1.063,-1.0796,-1.0952,-1.0952,-1.1107,-1.1262,-1.1262,-1.1262,-1.1262,-1.1262,-1.1262,-1.1262,-1.1262,-1.1262,-1.1262,-1.1262,-1.1262,-1.1262,-1.0952,-1.0952,-1.0796,-1.0641,-1.0641,-1.0641,-1.0641,-1.1107,-1.1262,-1.1262,-1.1727,-1.1727,0.0,0.0,0.0,0.0,0.0,0.0,0.0,0.0,0.0,0.0,0.0,0.0,0.0,0.0,0.0,0.0,0.0,0.0,0.0,0.0,0.0,0.0,0.0,0.0,0.0,0.0,0.0,0.0,0.0,0.0,0.0,0.0,0.0,0.0,0.0,0.0,0.0,0.0,0.0,0.0,0.0,0.0,0.0,0.0,0.0,0.0,0.0,0.0,0.0,0.0,0.0,0.0,0.0,0.0,0.0,0.0,0.0,-0.0155,-0.0781,-0.3288,-0.6733,-0.9261,-1.0036,-1.0019,-1.0019,-1.0019,-1.0019,-1.0019,-1.0019,-1.0019,-1.0019,-1.0019,-1.0019,-1.0019,-1.0019,-1.0019,-1.0019,-1.0019,-1.0019,-1.0019,-1.0019,-1.0019,-1.0019,-1.033,-1.0486,-1.0486,-1.0796,-1.1107,-1.1107,-1.1107,-1.1107,-1.1107,-1.1107,-1.1107,-1.1107,-1.1107,-1.1107,-1.1107,-1.1107,-1.0952,-1.0486,-1.0486,-1.0342,-1.0057,-1.0057,-1.0068,-1.009,-1.0403,-1.0687,-1.1107,-1.1262,-1.1262,0.0,0.0,0.0,0.0,0.0,0.0,0.0,0.0,0.0,0.0,0.0,0.0,0.0,0.0,0.0,0.0,0.0,0.0,0.0,0.0,0.0,0.0,0.0,0.0,0.0,0.0,0.0,0.0,0.0,0.0,0.0,0.0,0.0,0.0,0.0,0.0,0.0,0.0,0.0,0.0,0.0,0.0,0.0,0.0,0.0,0.0,0.0,0.0,0.0,0.0,0.0,0.0,0.0,0.0,0.0,0.0,0.0,-0.047,-0.3456,-0.4709,-0.5799,-0.8959,-1.0047,-1.0019,-1.0019,-1.0019,-1.0019,-1.0019,-1.0019,-1.0019,-1.0019,-1.0019,-1.0019,-1.0019,-1.0019,-1.0019,-1.0019,-1.0019,-1.0019,-1.0019,-1.0019,-1.0019,-1.0019,-1.0019,-1.0019,-1.0019,-1.0175,-1.0175,-1.0175,-1.0175,-1.0175,-1.0175,-1.0175,-1.0175,-1.0175,-1.0175,-1.0175,-1.0175,-1.0175,-1.0175,-1.0019,-1.0019,-1.0074,-1.0182,-1.0182,-1.0237,-1.0346,-1.0346,-1.039,-1.0175,-1.0952,-1.1107,0.0,0.0,0.0,0.0,0.0,0.0,0.0,0.0,0.0,0.0,0.0,0.0,0.0,0.0,0.0,0.0,0.0,0.0,0.0,0.0,0.0,0.0,0.0,0.0,0.0,0.0,0.0,0.0,0.0,0.0,0.0,0.0,0.0,0.0,0.0,0.0,0.0,0.0,0.0,0.0,0.0,0.0,0.0,0.0,0.0,0.0,0.0,0.0,0.0,0.0,0.0,0.0,0.0,0.0,0.0,0.0,0.0,-0.0157,-0.1571,-0.4711,-0.8172,-0.9589,-1.0041,-1.0019,-1.0019,-1.0019,-1.0019,-1.0019,-1.0019,-1.0019,-1.0019,-1.0019,-1.0019,-1.0019,-1.0019,-1.0019,-1.0019,-1.0019,-1.0019,-1.0019,-1.0019,-1.0019,-1.0019,-1.0019,-1.0019,-1.0019,-1.0019,-1.0019,-1.0019,-1.0019,-1.0047,-1.0117,-1.0128,-1.0128,-1.0128,-1.0128,-1.0095,-1.0025,-1.0019,-1.0019,-1.0019,-1.009,-1.015,-1.0204,-1.0275,-1.0335,-1.0384,-1.0384,-1.0335,-1.0231,-1.0549,-1.0628,0.0184,0.0,0.0,0.0,0.0,0.0,0.0,0.0,0.0,0.0,0.0,0.0,0.0,0.0,0.0,0.0,0.0,0.0,0.0,0.0,0.0,0.0,0.0,0.0,0.0,0.0,0.0,0.0,0.0,0.0,0.0,0.0,0.0,0.0,0.0,0.0,0.0,0.0,0.0,0.0,0.0,0.0,0.0,0.0,0.0,0.0,0.0,0.0,0.0,0.0,0.0,0.0,0.0,0.0,0.0,0.0,0.0,0.0,0.0,-0.314,-0.7542,-0.9427,-1.0041,-1.0025,-1.0025,-1.0025,-1.0019,-1.0019,-1.0019,-1.0019,-1.0019,-1.0019,-1.0019,-1.0019,-1.0019,-1.0019,-1.0019,-1.0019,-1.0019,-1.0019,-1.0019,-1.0019,-1.0019,-1.0019,-1.0019,-1.0019,-1.0019,-1.003,-1.0068,-1.0068,-1.0117,-1.0242,-1.0253,-1.0253,-1.0253,-1.0221,-1.015,-1.003,-1.0052,-1.0068,-1.0068,-1.0188,-1.0269,-1.0297,-1.0389,-1.0449,-1.0481,-1.0481,-1.0465,-1.0433,-1.04,-1.0291,0.0,0.0,0.0,0.0,0.0,0.0,0.0,0.0,0.0,0.0,0.0,0.0,0.0,0.0,0.0,0.0,0.0,0.0,0.0,0.0,0.0,0.0,0.0,0.0,0.0,0.0,0.0,0.0,0.0,0.0,0.0,0.0,0.0,0.0,0.0,0.0,0.0,0.0,0.0,0.0,0.0,0.0,0.0,0.0,0.0,0.0,0.0,0.0,0.0,0.0,0.0,0.0,0.0,0.0,0.0,0.0,0.0,0.0,0.0,-0.0157,-0.141,-0.7855,-1.0063,-1.0047,-1.0047,-1.0036,-1.0019,-1.0019,-1.0019,-1.0019,-1.0019,-1.0019,-1.0019,-1.0019,-1.0019,-1.0019,-1.0019,-1.0019,-1.0019,-1.0019,-1.0019,-1.0019,-1.0019,-1.0019,-1.0019,-1.0019,-1.0019,-1.0063,-1.0182,-1.0199,-1.0242,-1.0367,-1.0378,-1.0378,-1.0378,-1.0269,-1.015,-1.003,-1.0134,-1.0199,-1.0199,-1.0318,-1.0433,-1.0541,-1.0547,-1.0606,-1.0726,-1.0726,-1.0666,-1.0547,-1.0438,-1.0384,0.0,0.0,0.2164,0.0403,0.0,0.0,0.0,0.0,0.0,0.0,0.0,0.0,0.0,0.0,0.0,0.0,0.0,0.0,0.0,0.0,0.0,0.0,0.0,0.0,0.0,0.0,0.0,0.0,0.0,0.0,0.0,0.0,0.0,0.0,0.0,0.0,0.0,0.0,0.0,0.0,0.0,0.0,0.0,0.0,0.0,0.0,0.0,0.0,0.0,0.0,0.0,0.0,0.0,0.0,0.0,0.0,0.0,0.0,0.0,0.0,-0.0313,-0.2664,-0.4857,-0.7056,-0.9271,-1.0052,-1.0036,-1.0036,-1.003,-1.0019,-1.0019,-1.0019,-1.0019,-1.0019,-1.0019,-1.0019,-1.0019,-1.0019,-1.0019,-1.0019,-1.0085,-1.0117,-1.0036,-1.0155,-1.021,-1.0047,-1.009,-1.0128,-1.009,-1.0226,-1.034,-1.0384,-1.0384,-1.0384,-1.0384,-1.0275,-1.0182,-1.0144,-1.0259,-1.0324,-1.0324,-1.0438,-1.0514,-1.0552,-1.0634,-1.0699,-1.0737,-1.0737,-1.0715,-1.0672,-1.0634,-1.0536,0.7944,0.6619,0.0,0.3247,0.2126,0.0,0.0198,0.0,0.0633,0.0,0.0,0.0,0.0,0.0,0.0,0.0,0.0,0.0,0.0,0.0,0.0,0.0,0.0,0.0,0.0,0.0,0.0,0.0,0.0,0.0,0.0,0.0,0.0,0.0,0.0,0.0,0.0,0.0,0.0,0.0,0.0,0.0,0.0,0.0,0.0,0.0,0.0,0.0,0.0,0.0,0.0,0.0,0.0,0.0,0.0,0.0,0.0,0.0,0.0,0.0,0.0,0.0,-0.141,-0.3603,-0.5805,-0.7217,-0.8471,-0.974,-1.0041,-1.003,-1.003,-1.0025,-1.0019,-1.0019,-1.0019,-1.0019,-1.0019,-1.0019,-1.0019,-1.0019,-1.0117,-1.0177,-1.0101,-1.0253,-1.0318,-1.0117,-1.0188,-1.0242,-1.0161,-1.0291,-1.04,-1.0443,-1.0449,-1.0449,-1.0449,-1.0373,-1.0313,-1.0269,-1.0378,-1.0449,-1.0449,-1.0558,-1.0579,-1.0498,-1.0655,-1.0693,-1.0612,-1.0693,-1.0737,-1.0737,-1.0737,-1.0655]}]]